GFSSGP_con_sbcape_000.txt.gz
CAPE
1639 1642 1953 2128 1259 97 130 97 170 222 314 215 41 78 207 162 103 226 326 456 421 465 600 523 1010 1040 1146 1188 1663 2012 2404 2239 2658 2245 1830 1641 2093 2428 2590 2600 2397 2309 2315 2253 2160 2023 1997 1907 1906
1820 1709 1783 1458 95 68 221 196 218 327 279 313 306 268 228 177 127 166 445 462 399 334 439 386 1237 1371 1092 1035 1651 1764 1852 1671 2002 1837 1626 1840 2080 2241 2447 2342 2264 2283 2176 2052 2024 1990 1951 1857 1939
1138 1432 1514 95 2 95 191 293 472 388 204 208 406 375 302 266 293 329 506 494 514 610 478 862 1244 1270 1183 1152 1595 2116 2032 2022 2156 1777 1740 1744 1932 2384 2397 2173 2139 2088 2037 1985 1860 1734 1812 1932 2047
1259 1172 1096 60 0 0 111 427 623 538 365 264 275 382 390 348 417 528 610 599 633 815 850 646 988 1242 1196 1533 1744 1878 2034 2079 2163 1881 1776 1942 2271 2123 1985 1976 2093 2008 1990 1982 1943 1910 1885 1865 2115
965 443 37 7 0 0 23 432 577 521 443 268 236 313 410 599 527 672 832 849 904 927 1092 842 1651 1753 1580 1642 1896 2367 1911 2038 2160 2183 2018 2207 1960 2009 2000 2217 2141 1948 1851 1912 1848 1967 2041 2095 2239
531 115 80 30 0 5 51 394 526 591 619 456 333 580 667 605 682 952 1076 959 964 1139 1022 1440 1852 2076 2074 2065 2229 2494 2141 2221 2359 2205 2128 2131 2035 2130 2171 2106 1931 1868 1833 1801 1961 2080 2021 2023 2101
273 100 87 81 11 7 42 189 347 596 709 407 360 690 865 568 942 1234 1294 1202 1030 1193 1207 1562 1523 2106 2351 2385 2417 2475 2236 2096 1964 2140 2275 2156 2178 2108 2292 2107 1924 1900 2000 2159 2139 1950 1704 1908 1919
275 90 51 79 91 22 20 146 296 234 608 415 374 582 816 607 944 1192 1254 1107 1141 1423 1665 1898 2004 2028 1974 2069 2494 2429 2103 1600 1778 2145 2165 2215 2237 2122 1842 2013 2005 1924 1800 1854 2018 1901 1866 1928 1851
202 143 68 69 111 118 155 185 408 389 629 550 546 379 494 448 769 1071 1308 1070 1427 1464 1645 1820 1966 2067 2180 1629 1784 1964 1754 1842 1922 2136 2226 1838 1455 1640 1492 1734 1781 1986 1807 1697 1911 1919 1991 1693 1626
81 181 86 29 71 205 208 209 589 655 609 529 734 495 413 442 806 997 1274 1542 1491 1589 1595 1521 1756 1935 1997 1617 2041 2000 1480 1198 1130 1129 1380 1293 1538 1829 1406 1645 1835 1850 1773 1750 1841 1646 1576 1738 1136
0 110 69 38 31 194 238 281 523 314 504 402 747 718 520 519 789 936 1082 1279 1318 1530 1613 1788 1627 1998 1930 1912 1855 1823 1571 1418 1477 1844 1775 1386 1544 1553 1805 1682 1548 1287 1389 1762 1632 1508 1267 1472 1259
0 0 1 29 48 206 294 359 407 295 197 293 518 764 686 702 685 797 960 1122 1187 1300 1355 1483 1681 1842 1861 3152 1798 1677 1468 1435 1312 1358 1863 1863 1696 1752 1989 1723 1765 1928 1462 1585 1556 1262 1465 1450 1176
0 0 0 0 11 83 344 402 369 413 351 395 673 903 739 776 663 724 759 925 1048 1271 1354 1414 1678 2051 2169 2318 1622 1574 1488 1333 1176 1171 1587 1496 1377 2022 1892 1738 1785 1651 1542 1342 1341 1392 1438 1409 1053
0 0 0 0 0 124 445 543 529 450 281 794 886 1037 857 835 814 872 792 877 1021 1127 1258 1466 1673 2029 2132 2134 1995 1734 1579 1393 1349 1112 1126 1680 1482 2080 1572 1533 1372 1464 1529 1232 1288 1561 1521 1236 824
0 0 4 1 70 302 391 663 611 544 619 1110 1090 1079 989 939 980 1012 951 962 1091 1192 1221 1537 1948 2135 2542 2576 2312 2124 1693 1493 1386 1278 1671 1786 1984 1887 1612 1548 1412 1436 1548 1827 1521 1474 1215 759 520
0 0 18 81 196 365 444 240 545 702 870 1234 1167 1165 1016 1001 988 1056 1079 1095 1116 1277 1485 1609 1543 1807 2307 2318 2146 1935 1554 1558 1557 1326 1595 2072 1979 1956 1864 1675 1403 1260 1358 1453 1330 1193 758 528 383
0 1 9 218 249 512 515 202 559 765 905 1053 1141 958 983 1082 1149 1257 1193 1120 1127 1489 1782 1854 1745 1598 1888 2231 2119 2049 1904 2383 2338 2311 1866 1749 1853 1639 1817 1520 1445 1603 1338 1504 1139 835 614 328 136
2 1 27 37 281 427 471 251 630 802 799 750 1176 979 908 938 1065 1219 1229 1232 1365 1634 1966 2079 1890 1936 2278 3117 2985 2311 2203 1954 1689 1802 2398 2124 2307 1762 1913 1639 1484 1458 1528 1139 938 842 367 433 129
3 28 43 38 229 364 281 240 337 878 812 767 1005 1146 976 819 905 1102 1374 1495 1585 1791 2214 2531 2404 2499 2770 2717 1700 1770 1565 1692 2022 1698 2403 2264 2110 2002 1944 1498 1625 1543 1471 929 599 316 201 15 78
0 4 39 87 159 228 177 239 269 416 901 715 722 1066 1287 1029 882 1244 1506 1465 1519 1897 2353 2709 2797 2764 2850 2203 2455 2011 2302 1637 1853 2000 2133 2225 2172 2225 1957 1896 1695 1598 507 746 340 213 46 23 48
0 0 24 94 158 209 150 246 192 152 598 698 621 653 1103 1197 1003 1109 1289 1478 1509 1799 2391 2711 3051 3125 3074 2937 2392 2563 2432 2432 2066 2162 2422 2735 2589 2518 2404 2224 1528 1357 371 3 156 126 31 14 338
0 0 7 56 108 139 181 151 67 128 476 643 817 698 612 1136 1145 1134 1116 1339 1441 1650 2042 2751 3175 3423 3242 3210 2972 3586 2291 1787 1374 1730 1392 2066 2650 2451 2323 2147 1652 429 1 60 119 26 55 193 27
0 0 0 9 88 123 154 160 53 74 114 449 813 839 584 463 917 1095 1105 1068 1384 1511 1821 2351 3201 3734 3739 3377 3616 3150 3030 1792 1436 1512 1999 2359 2313 2490 1703 2200 875 346 126 314 151 61 140 62 28
0 0 0 13 40 92 101 76 6 15 80 69 273 681 752 388 429 785 935 975 1190 1371 1620 1952 3177 4089 3741 3649 3587 3540 2895 2635 1537 2020 1643 1139 1138 1795 1916 2061 936 294 48 281 172 34 99 86 61
0 0 6 28 38 45 65 64 1 1 2 13 8 165 748 540 399 540 828 969 1161 1369 1554 1877 2763 3653 3554 3555 3414 3484 3487 3195 2942 2632 1877 1083 763 807 1413 2095 1016 327 414 216 40 62 22 65 45
0 0 6 42 24 25 11 7 0 7 12 0 0 44 469 703 377 468 697 911 1221 1316 1583 1885 2503 3566 3371 3320 3724 4274 4043 3270 3059 2946 1892 1295 795 386 610 1821 857 436 298 231 33 2 10 29 36
0 0 0 26 39 23 1 1 0 0 15 0 32 91 204 637 576 359 633 864 1136 1381 1895 2553 3278 3059 3142 3067 3414 3770 3982 3634 2993 2841 2783 1785 1467 432 1064 1139 729 271 366 93 45 2 9 8 12
0 0 0 2 67 36 4 12 0 7 0 0 25 115 236 573 662 418 549 774 1043 1312 1606 2027 2541 3149 2886 2865 3048 3152 3331 3535 3331 3158 3231 2256 1888 1403 918 741 323 286 244 94 143 25 11 10 0
0 0 0 1 4 12 22 1 0 0 0 0 3 124 159 448 762 705 518 618 1031 1135 1396 1873 2296 2623 2859 2836 3425 3246 2941 3050 3370 3304 3428 3017 2210 1396 947 789 263 277 232 175 235 186 9 22 4
0 0 0 2 1 10 9 0 0 0 0 0 0 8 10 260 733 909 808 791 912 1251 1216 1541 1939 2382 2695 3304 3540 2997 2913 2889 3140 3390 3058 2317 1729 973 1038 534 397 305 173 196 298 185 10 24 0

GFSSGP_con_sbcape_003.txt.gz
CAPE
1258 1351 1616 1583 717 70 74 233 44 164 408 258 173 310 118 19 237 551 241 462 340 227 202 470 1172 1270 1667 2389 2398 2320 2108 2223 2570 2561 2692 2485 2495 3201 2938 2315 2224 2232 2167 2059 2000 1945 1841 1807 1708
1425 1809 2408 2067 693 147 66 130 130 288 199 291 309 241 167 216 310 387 439 219 304 165 216 458 1700 1227 1435 1783 1951 1988 1683 1725 2072 2243 2118 2204 2321 2564 2241 2128 2079 2037 2086 1988 1852 1788 1846 1920 1940
2100 1795 1697 1381 57 62 197 284 376 312 285 350 345 351 364 51 391 534 516 418 210 406 650 830 1465 1427 1495 1818 2078 2298 2095 1784 1746 1847 1734 1740 2126 2298 1986 1937 1938 2017 2064 1900 1749 1852 1887 1937 2157
1636 1375 1322 61 8 107 357 304 275 239 257 313 474 463 366 230 319 393 437 477 613 849 801 1096 1351 1475 1615 2061 2603 2298 2077 2235 2020 1759 1689 1953 2180 1942 1766 1982 1943 1894 1951 1913 1896 1877 1914 1941 2133
1412 1027 743 9 1 39 336 336 289 260 319 386 535 654 527 622 623 550 548 483 689 1019 744 941 2012 1912 1820 2067 2218 2279 2064 2144 2096 1953 1916 2160 2009 1914 1992 2058 1812 1720 1810 1842 1935 2028 2060 1892 2091
880 204 58 40 0 4 122 303 291 359 387 329 671 631 872 799 777 761 725 703 752 987 873 1031 1674 1812 1993 2113 2228 2064 2045 2078 2339 2166 2121 2049 2011 1996 2055 1851 1757 1734 1779 1843 1904 1704 1674 1840 1905
803 412 42 42 3 2 17 82 160 207 395 408 712 979 927 910 961 828 1064 961 807 1157 1107 1520 1555 1985 2277 2412 2094 2225 2194 2259 2071 2201 2168 2042 2021 1932 2068 1777 1435 1731 1967 2000 1995 1774 1675 1878 1870
259 38 72 178 27 0 0 38 6 107 380 380 706 989 977 1155 1073 1302 1072 1009 792 1289 1272 1572 1746 1767 1843 2056 2246 2225 2153 1818 1776 2100 1972 1845 1930 1852 1369 1375 1763 1723 1603 1710 1897 1721 1819 1706 1738
0 60 137 61 74 4 0 5 1 159 190 225 395 723 899 1052 1138 1271 1223 986 1105 1455 1596 1491 1550 1823 2246 2289 2502 2400 1840 1415 1769 1846 1848 1706 1436 1669 1879 2081 1612 1831 1839 1692 1752 1748 1730 1650 1773
8 92 59 33 79 50 10 11 12 62 135 267 359 760 927 1069 1080 1192 1311 1487 1401 1443 1403 1402 1830 1893 1819 1254 2111 1592 1047 1003 1047 1008 1171 1419 1673 2259 1428 1860 1954 1750 1811 1636 1742 1693 1754 1924 1621
9 161 76 48 46 61 19 29 16 77 94 252 424 633 796 1046 1080 1153 1185 1317 1066 1049 1150 1624 2238 2090 2310 2252 1590 1616 1474 1322 1198 1396 1680 1339 1517 1951 1784 2250 2198 2292 1744 2182 1874 1848 1708 1275 1173
0 43 33 94 6 139 44 45 29 7 74 122 410 428 647 961 1075 1075 1185 1214 1224 1270 1148 1429 2034 2350 2035 2278 1579 1385 1204 1065 1120 1384 1838 1978 1732 2405 1669 2163 2516 2158 1857 1585 2038 1818 1366 1372 1381
0 19 25 8 9 56 142 53 17 9 3 107 467 407 547 818 987 1056 1017 1039 1127 1212 1331 1374 1579 1847 2043 2510 1269 1230 1191 977 1027 1152 1575 1614 1348 2434 2262 1800 1559 1709 2227 2047 1435 1345 1305 1220 1341
3 10 5 4 18 14 151 53 49 11 14 221 599 540 554 662 836 990 1023 1050 1057 1115 1186 1202 1632 2044 2193 2499 2128 1662 1373 1681 1000 1053 1067 1763 1756 2325 1752 2861 2206 1995 2027 2238 1099 1721 1471 1562 1066
0 0 2 0 4 5 19 40 0 12 169 281 601 696 560 616 666 853 914 1044 1065 1175 1246 1320 1460 1886 2204 2331 2274 1703 1434 1083 1406 960 1268 1402 1713 1711 2158 2351 1889 1461 1613 1861 1736 1874 1596 1088 88
0 0 24 63 3 7 8 118 143 145 114 237 500 793 672 625 590 758 820 855 1007 1115 1277 1371 1315 1521 2169 2453 2402 2132 1567 2172 1517 1683 1663 1828 1969 2174 2268 1780 1533 2182 1421 2122 1488 1303 760 87 34
0 0 7 18 10 82 37 127 271 365 110 219 393 682 779 727 718 837 804 812 879 1173 1406 1536 1640 1573 2049 3327 2539 2091 2630 2178 2144 2118 2116 2750 2189 2374 2256 1875 1920 2196 1725 1372 1222 1060 892 11 20
9 10 77 178 13 165 56 162 429 409 370 24 180 327 676 677 722 831 887 857 919 1090 1440 1780 1725 2277 2307 3640 3342 2736 1767 1900 2028 2018 1970 2167 2088 2360 2320 1788 1863 1737 2028 1164 1049 783 76 25 75
14 61 44 46 27 81 174 145 266 455 413 257 90 131 400 572 718 761 948 943 924 1107 1546 2155 2546 3669 2715 2157 2656 2243 1745 1969 1740 1475 2738 2717 2363 2288 2191 2070 2331 1508 1929 1386 394 146 27 27 62
0 24 66 46 42 29 114 203 222 773 536 380 231 123 153 337 489 780 998 1012 939 1304 1888 2892 3182 3927 3341 2353 2828 2629 2276 1535 1328 1319 2334 2256 2843 2684 2137 2846 1546 1430 1316 961 362 131 0 26 124
0 8 43 71 145 77 134 129 155 214 668 588 305 263 198 200 229 690 891 1063 1124 1521 2272 3227 4144 4352 3957 3775 2998 3071 2752 2206 2411 1826 2020 2385 2435 2398 2423 2204 2218 2001 907 0 281 46 9 5 290
0 0 16 66 49 112 41 171 162 120 206 640 609 432 305 255 287 450 931 1195 1160 1567 1901 3340 4289 4423 4328 4312 3119 3649 2151 1484 924 1173 1152 2037 2721 2501 2364 2383 1662 1586 152 465 38 16 26 73 29
0 0 15 46 140 135 72 117 99 59 133 259 619 618 433 268 388 452 794 1112 1136 1321 1658 2658 4348 4651 4548 4309 3888 2512 2768 1362 1312 885 3074 1768 3025 1927 1486 1417 1842 1045 68 171 93 2 84 158 12
0 0 18 40 83 112 156 117 214 52 116 170 284 633 712 550 375 750 677 918 1084 1248 1532 2456 4356 4776 4841 4501 4093 4090 3861 3036 1431 1550 1805 1602 1242 1772 1410 1122 1772 887 12 112 114 33 91 106 118
0 0 8 44 66 42 89 152 204 221 70 73 75 124 557 823 510 622 989 1003 1331 1802 2123 2640 4183 4853 4790 4193 4376 4227 3909 4169 3324 2723 2042 1594 680 861 2417 1622 2173 933 323 166 98 146 170 65 66
0 0 0 17 39 41 50 66 86 95 41 55 69 33 122 644 747 418 783 1276 1846 1819 2627 2859 3753 4680 4831 4568 4725 4750 4714 2860 2494 2989 2162 1363 964 741 1571 1665 1642 1141 273 287 234 27 1 306 33
0 0 0 24 67 57 53 54 23 32 75 62 28 9 27 285 679 609 494 861 1530 1655 2436 2919 3787 4357 4577 3631 4870 4859 4729 4552 2696 3704 3685 2136 2437 846 521 1240 1729 1320 579 426 399 39 510 35 9
0 0 0 7 74 71 75 68 62 53 8 5 31 14 12 51 657 662 485 625 1252 1245 1881 2780 3557 4249 4017 4185 4459 4275 4420 4611 4279 4372 4080 3445 2808 1857 1860 1267 1324 1102 937 982 915 506 528 343 16
0 0 0 1 29 37 70 74 53 59 38 0 3 5 37 58 491 786 567 551 845 918 1472 1980 2745 3842 4045 4184 4125 4303 3928 4058 4307 4090 3913 3729 2947 2798 2110 2168 1628 974 740 395 475 363 153 730 774
0 0 0 25 35 21 72 71 29 8 3 4 14 18 31 77 290 652 726 522 650 1262 1077 1293 1712 2069 3138 3961 4437 4421 4420 4100 3974 4155 4101 3984 3537 2901 2194 1975 1412 665 606 624 678 274 108 234 103

GFSSGP_con_sbcape_006.txt.gz
CAPE
868 819 997 1359 565 89 202 57 203 38 124 186 73 63 205 395 360 172 379 274 244 144 187 636 1630 1883 1919 2278 2501 2791 2762 2755 2946 2999 3110 3202 3270 3092 2971 2912 2829 2772 2585 2055 1941 1874 1862 1677 1405
639 1200 1611 194 90 102 283 117 146 232 195 301 195 59 116 332 161 104 367 330 164 119 146 351 1758 2152 2256 2330 2423 2454 2371 2478 2684 2763 2836 3101 3147 2874 2639 2329 2168 2182 2280 1916 1786 1836 1858 1949 1662
968 1492 1661 1056 255 125 168 42 262 300 182 213 141 266 125 545 239 292 229 286 93 263 466 649 1944 2030 2323 2352 2474 2409 2331 2371 2579 2617 2568 2922 2858 2631 2464 2062 1891 1915 1901 1836 1837 1832 1735 1854 1963
1452 1769 1705 1348 274 52 254 276 132 126 428 325 378 179 223 258 441 172 281 207 338 693 625 1352 1943 1734 2260 2453 2621 2402 2500 2445 2482 2313 2503 2712 2525 2146 1902 1822 1652 1683 1711 1724 1834 1863 1859 1840 2000
1944 1280 847 556 103 356 290 253 199 101 355 326 165 147 277 476 308 304 354 403 733 589 686 837 2169 2283 2247 2457 2611 2184 2145 2314 2458 2384 2428 2350 2124 1824 1925 1640 1503 1530 1675 1662 1796 1623 1762 1674 1932
120 759 475 6 0 37 107 327 220 139 432 321 364 450 492 283 300 525 451 527 720 464 734 900 1963 2214 2278 2507 2836 2566 2394 2121 2364 2234 2053 1957 1776 1758 1800 1436 1402 1469 1655 1772 1861 1523 1614 1716 1614
22 438 201 72 0 9 25 60 51 146 322 369 600 509 531 394 570 596 604 743 712 883 962 1145 1298 1912 2264 2655 2634 2560 2210 2189 2083 1886 1936 1797 1695 1672 1708 1431 1186 1490 1626 1672 1809 1459 1532 1641 1559
172 467 45 27 4 0 0 27 25 32 390 324 778 553 636 606 821 865 772 828 1021 823 1134 1682 1747 1517 1918 1874 2654 2076 2061 1822 1888 1963 1844 1615 1589 1684 1827 1607 1816 1569 1375 1549 1712 1460 1473 1401 1572
107 15 103 23 7 0 0 0 50 216 167 619 547 494 713 924 1027 902 925 950 843 1075 1313 1280 1378 2023 2448 2098 1955 2240 1844 1492 1778 1728 1824 2020 1307 1443 1713 2212 2169 1644 1763 1585 1608 1461 1449 1459 1769
44 71 21 2 14 0 0 0 0 0 14 228 548 604 655 1065 949 934 953 871 1176 937 1350 1140 1308 2054 2010 1341 2445 2455 1385 1022 1411 1433 1820 1548 1086 1992 2147 2071 1657 1884 2072 1422 1625 1655 1536 2104 1890
11 3 16 35 8 1 3 0 0 0 2 108 833 753 659 954 1295 1102 1115 934 1049 1122 1063 1219 1734 2279 2159 2218 2129 1709 1440 1485 1625 2767 2219 2300 2111 1202 704 1235 349 1602 1572 1226 1614 1824 1674 1675 1436
13 4 18 3 19 42 2 9 1 7 22 93 648 899 771 847 930 850 919 828 1137 1422 1785 2133 2193 2665 2643 2503 2232 2252 1769 1624 1629 1899 2838 3243 2985 2457 870 1047 753 1510 977 1262 1525 1667 1540 1392 1563
0 34 16 18 0 16 6 8 11 10 33 55 208 701 847 770 730 887 773 1016 1080 832 1828 1929 2424 3099 3259 3260 2078 1831 2021 1488 1292 2429 2663 2135 2600 2251 898 2858 2698 2856 2380 1869 2276 1810 1778 2134 1824
1 2 3 15 2 4 85 38 0 2 10 6 128 386 703 793 724 930 818 956 1197 1129 1229 1733 2550 3115 2569 3155 3689 3298 2870 1389 2192 1283 2623 3007 3119 3069 1352 2277 1937 2197 1871 2697 2175 2489 2283 1734 1359
0 2 2 0 0 13 2 32 13 0 0 40 127 205 434 661 867 980 813 1016 1208 1251 1558 2033 2316 2284 2554 3269 3288 3214 2313 1317 1609 1874 2110 3071 3354 3636 3297 2688 2898 2260 2119 2646 2192 2214 986 516 573
0 0 3 0 0 0 0 92 0 4 0 0 190 154 274 442 553 996 979 939 1033 1284 1907 2025 989 2178 2339 2654 2923 2246 1803 2445 2384 2927 1304 2738 3287 3243 3224 2691 1328 545 2161 2278 1544 1445 1504 544 369
0 0 0 1 0 4 9 133 76 70 0 0 87 208 168 507 560 879 815 1106 1072 1606 2255 2090 2271 2176 2663 2679 2675 2658 2451 2652 2432 2672 2418 2167 1483 2781 2818 2748 1564 2023 2036 2192 1176 390 1204 279 504
0 0 3 23 30 8 0 61 39 40 53 13 0 106 336 208 373 704 726 860 1117 1511 2216 2284 2080 3257 2890 3110 3234 2872 2628 2019 2367 2458 2725 2028 2563 2817 2800 2767 2191 2622 2897 1428 1703 1167 847 577 289
0 3 0 0 40 1 125 100 0 0 185 4 101 64 194 377 480 676 744 844 924 1523 2131 2308 2432 3228 3537 3257 2400 2367 2110 2709 2337 2360 2182 2725 3116 2643 3012 2735 2202 1791 2602 874 1133 870 487 603 425
0 0 9 10 58 19 71 322 40 328 279 199 10 41 52 48 310 705 931 789 911 1381 1812 2696 2702 3498 3176 3090 2904 2670 2284 1942 2029 2310 2775 3096 2781 3468 2412 2629 2350 1865 1803 1803 1353 692 387 421 773
0 0 0 3 16 14 22 60 260 320 184 121 94 39 19 86 79 765 917 912 1044 1416 2089 2491 3095 3247 3180 3051 3039 3215 2761 2473 2362 2815 2778 3241 3310 3213 1726 2535 2687 2426 1634 1276 1400 839 358 291 1161
0 0 0 0 22 23 26 0 339 87 581 196 139 82 63 64 162 453 958 1203 1177 1422 1926 2789 3242 3436 3580 2927 3032 2715 2233 2400 2504 2879 2277 2936 3160 3074 3032 3101 2939 2629 1322 1729 1204 688 284 829 419
0 0 0 0 0 56 161 86 86 367 409 643 358 256 188 206 108 216 910 1131 1231 1467 2076 2571 3479 3627 3618 3560 3176 2982 2804 2107 2066 1694 3635 3220 3494 2942 2578 2841 2833 2224 1435 1645 765 617 416 839 564
0 0 0 0 0 16 39 24 63 183 94 54 402 501 415 382 319 373 773 1091 1319 1469 2169 2273 3739 3966 3886 3902 3299 3539 2497 2534 1952 2802 2927 2631 2498 2818 2939 2353 2445 2115 1156 1341 852 807 960 590 665
0 0 0 0 12 5 25 61 192 212 122 69 2 163 657 662 545 530 722 1134 1445 1606 1942 2512 3463 3935 4050 4091 3577 3423 3461 3116 3558 3879 2898 2550 1715 2095 2351 2594 2419 1682 1294 1423 1147 1131 1162 757 604
0 0 0 0 1 3 12 20 81 236 112 79 15 23 490 774 671 634 888 1056 1548 1595 2012 2438 3332 3806 4184 3958 3965 3713 3378 3041 3075 3519 2535 2563 1706 1884 1771 2166 2473 2308 1100 1049 1057 827 535 713 601
0 0 0 0 0 7 17 43 12 78 176 11 0 58 112 663 777 715 1010 1144 1578 1626 1945 2409 3423 3903 4210 4212 4173 4235 3723 3384 3006 3232 3227 2786 2354 2348 2193 1935 2350 1813 1382 1167 1344 404 571 608 993
0 0 0 0 2 18 12 53 122 137 294 130 74 39 51 91 852 923 834 1398 1569 1751 1851 2532 2946 3889 4278 4214 4215 4210 4212 3704 3381 3100 3417 2363 2513 2479 1646 2117 1674 1848 1118 1331 1217 596 852 674 558
0 0 0 0 0 7 30 29 124 487 522 390 123 37 24 54 685 700 968 1039 1662 1891 1912 2231 2631 3666 4130 4219 4151 4187 4142 4000 3651 4123 3839 2831 3090 2119 2152 1671 1845 1708 1300 1257 940 681 580 623 679
0 0 0 0 0 0 0 5 19 252 273 59 56 35 43 55 185 609 1099 950 1348 1643 1753 2144 2602 3233 3768 3972 4103 4089 4113 4125 4006 3507 3875 3197 3542 2541 2003 2129 1907 1700 887 1112 800 509 159 734 684

GFSSGP_con_sbcape_009.txt.gz
CAPE
684 610 321 611 232 57 99 69 159 89 73 36 63 219 222 136 64 1 10 51 45 139 440 711 1560 1829 2075 2243 2821 2732 2902 2985 3221 3191 3202 3130 2626 2743 2895 2464 2386 2499 2414 1870 1838 1818 1670 1426 1335
491 498 12 0 93 19 99 21 73 207 59 4 96 177 158 49 16 17 90 99 56 149 325 799 1818 2085 2303 2403 2756 2561 2439 2317 2978 3071 3157 3045 2723 2865 2590 2032 2064 2197 2196 1780 1730 1723 1930 1774 1436
560 854 472 169 48 3 8 79 203 319 236 173 87 89 237 65 80 96 77 48 19 68 257 971 2217 2105 2436 2545 2649 2600 2553 2453 2794 2892 3129 2961 2651 2406 2041 1924 1919 1893 1868 1788 1735 1718 1754 1933 1645
608 667 176 397 185 164 70 142 39 335 277 203 178 296 66 174 241 135 166 16 113 232 647 1822 2327 2303 2244 2544 2646 2376 2409 2548 2634 2674 3033 2712 2504 1921 1842 1699 1682 1673 1682 1798 1781 1903 1698 1703 1927
928 753 629 473 260 148 106 166 328 272 280 254 283 227 213 69 67 170 69 462 334 392 835 1439 2224 2396 2465 2660 2575 2622 2263 2224 2552 2750 2769 2698 2560 2232 1838 1538 1473 1566 1621 1922 1783 1488 1679 1587 1769
36 154 489 82 212 140 86 146 293 170 223 298 294 309 177 110 122 128 327 363 410 446 703 1277 2180 2416 2604 2318 2094 2503 2446 2249 2708 2730 2634 2601 2585 2607 2240 1764 1805 1534 1713 1701 1729 1451 1612 1646 1593
48 45 194 12 17 101 155 180 338 253 391 372 391 208 171 183 175 329 588 530 269 521 660 1141 1366 1700 2187 2774 2481 2403 2722 2619 2637 2739 2601 2464 2414 2406 1939 1658 1534 1571 1531 1719 1717 1369 1506 1633 1608
1 164 69 14 36 10 72 42 207 276 529 467 328 234 234 252 346 353 523 443 622 711 828 967 1337 1432 1673 2040 2463 2039 2251 2255 2083 2254 2222 2360 2085 1738 1782 2091 1577 1365 1342 1537 1632 1415 1461 1500 1768
78 148 21 35 45 1 12 192 384 367 542 508 436 358 519 442 458 506 553 586 611 817 866 876 1140 1332 1401 1500 1814 2342 2078 2006 2114 2178 2495 2049 1315 984 1457 1430 1888 1466 1522 1377 1486 1645 1829 1971 2085
0 30 13 6 11 0 1 250 272 607 600 453 629 613 622 715 585 584 629 658 617 901 1024 1035 1074 1217 1149 1526 1655 1574 1283 1181 1377 1407 1335 1349 1013 670 1561 1263 288 1502 1753 1489 1794 2090 1995 2175 1512
0 0 16 10 2 1 3 0 0 259 516 405 542 725 719 757 692 673 657 601 711 968 965 903 1200 1319 1161 1038 1406 1492 971 595 772 870 987 844 1110 243 555 238 0 126 1194 922 914 1434 1391 1299 453
0 0 0 2 30 10 0 0 0 0 409 509 629 890 861 693 681 592 551 633 823 760 802 890 1299 1053 1485 1365 1385 1289 747 659 744 1320 895 1519 747 449 552 45 480 481 482 1152 607 755 1161 897 946
0 1 2 23 37 44 23 0 0 4 649 687 579 624 793 699 659 544 468 585 656 657 919 941 1074 1593 1409 1303 977 961 955 964 803 1273 1297 980 1126 447 404 625 416 522 560 811 539 1075 1086 975 1009
0 0 35 17 0 78 50 0 7 54 722 798 715 480 604 865 759 630 425 472 565 1145 1316 1342 1658 1707 1297 1756 1780 1247 1261 843 1030 1440 1271 1231 1442 971 806 966 886 1248 1342 1430 1220 1005 689 420 349
0 0 0 1 0 9 87 0 0 22 159 747 731 658 580 544 627 481 488 450 711 989 1383 1513 1718 1702 1520 1915 1732 1843 1612 720 713 900 1768 1631 1126 1131 1568 1318 905 1292 1262 1434 793 777 150 24 41
0 0 0 0 0 0 20 0 41 0 85 328 481 660 665 573 459 395 312 491 261 558 1302 1485 1787 1465 1551 1786 1850 1833 1111 1327 1048 1547 1475 1632 1550 1789 1612 1226 1067 371 1126 985 799 717 430 240 0
0 0 0 0 0 0 2 0 0 0 41 60 218 266 461 540 497 582 400 251 520 763 1225 1547 1385 1219 1290 1369 1571 1602 779 1341 1040 1297 1312 1605 1843 1741 1159 1316 806 522 971 723 263 158 330 0 0
0 0 0 0 0 2 0 0 2 0 0 51 61 20 123 236 337 589 502 542 652 990 1110 899 1149 1350 1086 1367 1582 1655 1295 1559 1782 1631 633 776 989 1179 1227 1189 789 1087 886 268 249 191 0 0 0
0 0 0 0 9 5 35 9 17 0 0 0 73 0 39 93 81 446 511 534 693 1306 1208 1070 1132 1651 1490 1447 1642 1578 1705 1479 1264 1073 1604 1034 1307 1418 1298 1310 1169 1307 998 388 437 37 0 0 0
0 0 0 0 3 2 39 47 0 0 0 0 1 33 27 56 46 247 318 415 640 971 1118 1077 837 2024 1598 1769 1643 1302 1270 1345 1268 1188 1191 1083 1776 1535 1334 1323 1251 1042 1002 295 3 0 0 0 0
0 0 0 0 0 14 57 49 36 0 0 0 4 2 44 60 80 151 201 283 351 772 1300 1242 1013 1626 1921 1859 1533 1780 1408 1448 1424 1367 1786 1863 1812 1747 1267 1429 1108 754 453 273 5 0 0 0 0
0 0 0 0 0 1 30 20 23 15 305 147 31 0 1 53 101 131 236 276 311 800 1022 1300 1411 1729 1737 1830 1689 1529 1340 1022 1226 1404 1175 1629 2133 1922 975 1180 1321 904 186 114 5 8 0 10 0
0 0 0 0 0 20 0 0 0 65 39 2 6 0 0 0 16 136 347 297 385 593 1000 1649 1583 1563 1991 1746 1738 1500 1161 889 1215 1395 1030 1757 1962 1696 1597 1553 1448 513 0 76 69 3 0 63 5
0 0 0 0 0 0 0 0 0 19 7 10 25 0 0 0 0 138 295 416 370 789 1180 1478 1963 2010 2199 1582 1945 1723 1550 1289 973 867 1662 1767 1621 1432 1839 1458 1034 391 156 34 28 47 14 62 39
0 0 0 0 0 0 0 0 0 44 27 45 72 21 29 1 0 0 298 512 507 825 1039 1778 1982 2080 2319 2131 1626 2063 1617 1424 1237 1005 1570 1604 1335 1620 1583 1353 761 231 160 118 46 47 76 28 41
0 0 0 0 0 0 0 0 0 4 52 89 120 188 81 78 6 3 322 457 659 714 1263 1742 2159 2083 2524 2455 2446 1723 2068 1330 1145 1618 1638 1467 1373 1424 1188 1191 812 337 80 278 269 79 88 52 1
0 0 0 0 0 0 0 0 0 0 15 61 27 29 13 37 17 11 137 402 649 733 1470 1513 2475 2516 2598 2777 2669 2199 2056 2003 1726 1712 2070 1355 913 1098 1072 1271 1021 530 187 258 185 102 11 129 54
0 0 0 0 0 0 0 0 0 0 23 20 18 32 26 1 5 64 116 411 681 824 1275 1608 2196 2689 2884 2549 2936 2629 2368 1798 1739 1657 1886 1913 1063 1254 833 1329 1390 946 220 169 175 38 112 29 32
0 0 0 0 0 0 0 0 0 0 33 78 20 15 15 11 64 132 188 371 788 956 1230 1568 2164 2727 2964 3048 2925 2818 2694 2268 1932 2138 1950 1678 1426 1127 1131 1015 1455 963 343 325 281 16 24 149 0
0 0 0 0 0 0 0 0 0 0 132 158 33 38 7 0 24 147 243 440 938 1082 1077 1558 2622 2753 3040 3182 3109 3034 2998 2765 2401 2021 2124 1970 1564 1122 1236 1253 851 1028 560 355 358 62 111 28 79

GFSSGP_con_sbcape_012.txt.gz
CAPE
511 545 301 345 132 149 48 93 151 141 99 81 130 232 23 19 1 0 0 0 0 16 207 650 1411 2048 2353 2866 2674 2749 2503 2551 3036 2964 2456 2158 2168 2287 2312 2123 2116 2035 1867 1860 1927 1770 1546 1466 1395
671 342 53 13 96 21 91 81 40 154 135 180 186 89 26 11 1 0 8 0 65 142 309 667 1599 2223 2390 2609 2730 2825 2541 2461 3148 2922 2500 2240 2204 2249 2051 2052 2002 1878 1844 1795 1769 1899 1929 1646 1424
49 41 210 367 65 34 16 25 176 115 147 44 143 118 12 24 12 13 13 52 197 302 490 878 1705 2248 2375 2331 2591 2726 2675 2436 2907 2476 1991 1955 1944 1978 1903 1858 1851 1882 1844 1824 1803 1795 1752 1873 1579
21 2 4 708 160 65 182 299 493 277 179 220 108 9 61 61 72 67 80 26 61 295 675 1648 2167 1906 2232 2350 2517 2183 2181 2133 2601 2662 2037 1893 1938 1821 1713 1727 1744 1774 1838 1790 1770 1773 1651 1716 1896
66 261 255 355 249 185 291 39 392 384 331 243 27 96 87 91 88 82 20 27 155 461 821 1459 2199 2533 2531 2594 2286 2311 1995 1890 2504 2709 1952 1843 1927 1712 1592 1541 1640 1725 1677 1754 1584 1533 1647 1588 1754
17 271 340 9 0 195 319 221 415 338 335 261 178 82 26 99 132 69 78 141 365 708 1002 1334 2063 2192 2651 2184 1884 2053 1799 1809 2405 2537 2231 2070 2038 1901 1605 1535 1524 1632 1812 1811 1568 1481 1669 1753 1654
4 1 94 1 46 216 380 421 283 366 318 324 206 84 97 134 143 211 275 347 457 800 1051 1137 1184 1191 1851 2571 1971 1981 1897 1867 2020 2070 2279 2415 2019 1918 1528 1398 1477 1559 1581 1766 1688 1449 1559 1650 1609
0 1 9 0 6 24 199 251 321 389 468 334 199 184 182 158 146 299 314 279 401 679 1055 1157 1276 1120 1695 1922 2017 2170 2232 2015 1973 2030 1898 1905 1805 1739 1627 1726 1322 1396 1356 1581 1661 1479 1554 1681 1635
56 44 1 0 14 55 274 350 382 482 377 291 367 218 150 161 310 417 240 394 498 706 966 1173 1244 1296 1541 1761 1703 2191 2140 2130 2014 1921 2008 2371 1245 869 1410 1631 1406 1569 1681 1396 1492 1485 1715 2169 2019
194 25 13 50 21 45 197 339 536 432 346 389 363 276 195 335 376 433 438 480 610 655 733 1089 1194 1286 1359 1756 1346 1593 1401 1570 1715 1731 1517 1443 741 580 1610 1323 217 688 1654 1603 1824 1874 1855 2062 1344
1 0 0 26 33 154 362 492 550 397 435 286 417 310 367 354 383 449 489 573 657 665 801 923 1050 1148 1152 1327 1240 1142 902 842 1040 1056 790 856 702 234 315 93 0 0 765 529 690 916 1142 1304 275
0 0 0 18 15 38 209 403 707 526 465 421 464 400 399 421 437 514 521 513 634 827 902 819 907 1027 826 772 1291 1123 806 370 464 518 542 495 607 24 134 0 254 247 606 133 775 565 767 993 605
0 0 0 7 37 0 0 298 687 531 580 599 555 577 568 439 443 474 534 526 718 894 863 813 943 1014 882 856 911 928 635 405 292 394 688 702 371 167 57 214 410 292 487 396 675 782 871 765 554
0 0 0 0 3 11 0 17 134 518 689 735 630 629 683 567 515 430 492 563 662 794 710 927 986 822 1016 989 735 674 619 462 394 687 896 604 328 166 227 155 535 608 578 689 716 731 421 55 15
0 0 0 0 0 9 2 67 632 668 679 802 766 721 697 620 524 389 421 488 615 530 714 800 925 1027 1082 871 761 710 1074 869 532 864 872 1087 805 350 476 574 408 698 610 884 405 246 41 5 11
0 0 0 0 0 0 7 57 744 697 723 859 900 908 806 618 590 396 270 401 423 619 760 757 1081 1277 985 1076 1317 1187 916 329 305 662 995 1216 755 736 898 925 968 564 479 544 510 365 229 144 0
0 0 0 0 0 8 1 0 108 713 625 542 566 836 760 712 654 562 430 280 368 892 1007 936 982 1135 925 1018 1270 1222 661 762 593 827 950 1009 1095 1325 983 759 701 271 712 355 105 81 106 1 0
0 0 0 0 0 1 0 0 0 733 688 666 587 476 480 683 837 454 449 232 585 926 1095 1147 1157 918 1018 1059 967 1020 622 554 948 823 800 1338 1358 1372 608 906 503 303 494 173 67 38 0 0 0
0 0 0 0 0 0 0 0 0 198 511 583 600 551 483 454 342 310 154 249 274 680 1060 1144 1120 851 971 923 986 990 1053 946 859 925 416 629 819 933 684 719 906 652 518 106 49 0 0 0 0
0 0 0 0 0 0 1 0 0 8 65 278 321 375 453 409 352 255 204 323 319 755 1023 1129 1033 818 772 820 923 979 1030 948 994 731 720 657 647 812 891 765 818 838 720 154 0 0 0 0 0
0 0 0 0 0 0 6 35 2 0 1 2 46 88 211 190 171 207 285 287 431 688 776 744 1072 1051 919 916 1001 894 817 773 944 884 852 907 1017 1006 1083 877 810 636 433 90 0 0 0 0 0
0 0 0 0 0 0 7 1 43 0 0 0 0 4 62 71 32 94 277 229 370 609 669 657 820 1350 1191 1176 1156 1140 1033 1027 979 841 947 1330 1323 1202 938 800 611 280 96 36 0 0 0 0 0
0 0 0 0 0 0 0 0 0 11 0 0 0 1 59 24 36 7 218 267 257 437 698 643 467 1499 1468 1388 1214 1172 991 873 578 768 979 945 1405 1349 956 817 709 226 36 4 0 0 0 0 0
0 0 0 0 0 0 0 0 0 0 0 0 1 0 2 28 16 0 74 153 215 353 681 762 614 777 1460 1493 1334 1267 1101 858 651 577 738 948 1480 1244 1049 887 942 105 7 0 0 0 0 6 8
0 0 0 0 0 0 0 0 0 0 0 0 26 0 0 2 37 0 3 71 97 205 565 924 850 740 1102 1520 1388 1283 1121 897 722 446 791 1251 1336 1034 1239 1026 833 97 0 0 0 0 0 0 0
0 0 0 0 0 0 0 0 0 0 0 7 13 1 0 0 4 17 4 63 63 184 591 935 1074 961 1186 1274 1446 1411 1237 1111 975 373 1032 1141 1291 1349 991 1076 560 44 0 0 0 0 0 1 0
0 0 0 0 0 0 0 0 0 0 0 0 2 5 0 0 0 0 36 66 122 220 567 903 1332 1231 1368 1565 1234 1471 1554 1307 1123 849 946 1129 1014 1099 913 1058 437 65 3 2 10 0 0 18 0
0 0 0 0 0 0 0 0 0 0 0 0 0 6 2 0 0 0 2 118 246 220 610 1040 1415 1448 1651 1818 1647 1433 1434 1625 1211 828 1206 1064 873 1003 915 825 540 146 14 72 15 4 0 9 7
0 0 0 0 0 0 0 0 0 0 0 0 6 27 19 10 8 0 4 120 289 357 795 1198 1442 1435 1748 1969 1883 1868 1645 1384 1496 1230 1256 1410 846 587 859 711 662 305 87 26 0 1 3 0 6
0 0 0 0 0 0 0 0 0 0 0 0 0 1 114 100 3 8 1 71 259 524 940 1143 1665 1674 1771 2102 2106 2028 2035 1836 1510 1410 1453 1197 1201 643 823 710 897 655 243 32 80 0 0 5 0

GFSSGP_con_sbcape_015.txt.gz
CAPE
826 574 265 232 118 39 17 104 47 2 51 89 34 3 1 0 0 0 0 0 7 33 167 352 1071 1585 2155 2266 2323 2124 1956 2130 2276 2107 2102 1982 2100 2119 2020 2033 1981 1883 1885 1929 1897 1700 1571 1439 1503
688 44 13 0 29 10 51 106 63 149 187 86 110 42 13 30 5 2 5 0 1 63 305 541 1368 1820 2048 2180 2303 2383 2149 2171 2071 2056 2072 2085 2159 1975 2020 1990 1881 1828 1788 1754 1833 2090 1912 1606 1429
117 156 168 100 2 8 32 57 158 209 240 73 112 27 10 34 5 0 6 3 4 124 316 886 1492 2114 1990 1974 2278 2626 2775 2144 2041 2033 2036 2035 1939 1907 1880 1803 1820 1826 1810 1818 1878 1828 1857 1756 1607
26 83 58 332 58 31 137 283 226 155 150 35 39 49 43 12 9 37 52 106 132 265 541 1343 1617 1717 1788 1915 2062 2070 2080 2030 2019 1834 1839 1907 1840 1774 1793 1827 1844 1826 1817 1820 1829 1768 1758 1769 1273
85 168 149 367 118 72 281 114 469 329 244 157 51 23 62 68 78 46 143 166 221 395 801 1307 2219 2337 1962 1796 1838 1744 1868 2209 2147 1904 1823 1915 1737 1640 1675 1677 1758 1722 1758 1862 1572 1652 1719 1663 1592
71 98 147 11 0 90 252 16 526 440 207 107 59 75 79 130 109 117 111 152 263 488 943 1238 1792 2074 2200 1661 1699 1719 1648 1962 2182 1997 1847 1949 1867 1625 1588 1595 1640 1723 1797 1854 1590 1545 1765 1446 1545
39 0 1 2 82 266 336 133 528 321 172 107 68 85 129 131 111 51 106 253 356 613 984 1178 1215 1392 1833 2158 1732 1700 1651 1874 2079 1994 1917 1906 2029 1763 1542 1427 1568 1566 1646 1696 1658 1486 1464 1550 1825
20 0 0 0 255 269 428 358 412 273 292 174 101 116 126 178 130 152 244 344 583 835 939 960 812 777 1324 1510 1701 1659 1698 1779 1997 1902 1905 1939 1936 1900 1653 1618 1280 1431 1336 1541 1621 1487 1543 1450 1325
40 23 7 0 0 32 338 386 349 395 312 213 235 157 137 216 255 262 320 344 603 819 961 1023 873 799 1370 1480 1375 1978 1863 1857 1897 1823 1797 2177 1376 1143 1532 1748 1428 1896 1747 1379 1499 1477 1634 1530 1460
96 7 17 0 0 206 386 406 407 411 347 317 271 208 245 237 329 331 346 371 456 682 941 1072 1007 1080 1360 1730 1399 1509 1447 1548 1467 1538 1407 1673 941 573 1136 1373 1052 888 1681 1644 1749 1664 1727 1461 768
218 267 18 0 0 291 417 415 493 466 384 294 244 240 247 359 376 306 410 405 385 637 821 1045 1050 1140 1318 1459 1041 1192 1062 1120 1227 1326 1108 1096 641 785 888 324 36 0 767 507 672 665 831 1110 302
0 11 69 0 0 339 482 478 471 393 375 347 211 205 227 391 416 342 420 451 479 501 637 931 1016 1042 1084 836 1046 1039 922 600 757 807 696 597 537 105 73 0 44 57 367 296 192 469 593 695 587
0 0 0 0 0 238 476 661 612 471 553 375 288 235 294 380 435 368 445 496 525 481 569 760 874 883 933 572 1015 842 733 519 315 326 401 321 309 285 0 0 232 141 300 333 459 626 715 732 192
0 0 0 0 0 264 517 707 738 558 576 539 389 377 394 361 397 409 482 533 535 600 682 641 692 707 678 524 596 754 638 306 120 170 450 496 442 205 26 0 200 266 303 435 645 595 420 36 18
0 0 0 0 0 22 321 548 774 682 731 628 516 499 440 386 397 465 476 447 586 706 726 609 663 641 619 567 530 427 381 371 235 224 604 590 485 159 104 33 276 466 525 612 480 212 10 5 8
0 0 0 0 0 0 16 0 366 658 772 686 664 636 558 464 451 420 486 445 556 679 606 625 876 697 641 709 481 474 468 675 414 259 502 733 619 240 202 466 355 408 375 568 270 217 129 41 0
0 0 0 0 0 0 0 0 595 674 763 703 725 749 742 590 532 413 436 451 454 494 552 625 818 751 693 789 688 591 612 558 240 272 446 706 709 498 568 612 547 218 402 130 98 16 2 0 0
0 0 0 0 0 0 0 0 572 638 733 743 689 680 770 636 589 476 338 348 411 344 421 477 731 879 779 726 871 808 571 286 299 421 558 663 764 923 667 527 452 195 449 151 14 0 0 0 0
0 0 0 0 0 0 0 0 505 611 689 831 763 750 810 702 552 502 330 236 310 399 456 526 600 698 825 655 800 736 777 307 483 574 568 845 950 1085 648 542 353 238 416 144 0 0 0 0 0
0 0 0 0 0 0 0 0 392 501 590 736 800 796 832 769 618 531 392 311 148 476 664 673 657 644 732 769 790 751 561 513 437 574 464 523 834 889 588 415 560 444 452 103 21 0 0 0 0
0 0 0 0 0 0 0 0 0 472 539 544 531 551 668 563 588 576 371 301 165 371 728 784 773 719 614 625 640 431 439 431 612 534 541 541 454 482 636 432 482 517 380 170 4 0 0 0 0
0 0 0 0 0 0 0 0 0 12 415 391 430 441 392 332 327 328 393 131 174 297 615 789 844 768 530 484 563 723 697 616 629 669 601 641 659 596 622 647 558 459 274 64 0 0 0 0 0
0 0 0 0 0 0 0 0 0 0 0 7 99 165 243 263 237 222 227 158 133 203 564 799 836 765 567 492 565 579 475 520 352 472 706 729 837 852 794 647 481 215 46 49 0 0 0 0 0
0 0 0 0 0 0 0 0 0 0 0 0 0 0 29 104 168 200 177 227 234 268 485 672 652 773 707 631 633 601 579 517 373 385 619 560 701 935 867 683 444 145 16 8 0 0 0 0 0
0 0 0 0 0 0 0 0 0 0 0 0 0 0 0 1 43 71 79 143 218 331 537 583 475 835 900 871 824 757 695 531 426 367 442 536 801 971 954 644 557 150 7 0 0 0 0 0 0
0 0 0 0 0 0 0 0 0 0 0 0 0 0 0 0 0 12 23 26 167 170 457 518 459 631 1032 1103 1025 895 781 694 601 270 410 550 891 1024 1014 834 687 323 0 0 0 0 0 0 0
0 0 0 0 0 0 0 0 0 0 0 0 0 0 0 0 0 4 11 1 69 130 161 545 511 445 855 1146 1134 1026 962 860 699 330 387 557 768 1005 886 915 774 248 9 0 0 0 0 0 0
0 0 0 0 0 0 0 0 0 0 0 0 0 0 0 0 0 1 16 16 14 69 106 392 613 561 517 896 1121 1123 1030 927 759 544 448 597 744 842 746 931 721 216 18 0 0 0 0 0 0
0 0 0 0 0 0 0 0 0 0 0 0 0 0 0 0 0 0 12 21 16 35 47 308 654 672 623 713 917 973 1110 1045 876 630 729 749 690 655 817 816 723 274 30 0 0 0 0 0 0
0 0 0 0 0 0 0 0 0 0 0 0 0 0 0 0 0 0 0 7 41 48 55 318 592 813 749 848 1011 958 948 1091 1184 930 762 921 877 606 729 659 670 369 87 17 6 0 0 0 0

GFSSGP_con_sbcape_018.txt.gz
CAPE
554 551 251 170 99 8 8 71 41 4 47 41 2 2 11 17 11 0 0 6 4 6 41 357 667 1158 1851 2462 2520 2231 2004 1926 2100 2101 1921 2020 1929 1967 1933 1871 1867 1883 1975 1782 1653 1674 1594 1517 1389
725 224 0 0 0 0 1 30 38 90 20 18 24 18 22 29 2 5 1 0 12 27 119 293 930 2053 1947 2260 2243 2356 1896 1909 2059 1970 2137 2038 1932 1945 1958 1854 1736 1725 1743 1720 1616 1749 1534 1484 1344
202 148 80 20 0 3 3 9 87 101 112 110 10 2 1 25 1 1 0 17 40 130 257 511 1258 2389 2114 1958 2248 2605 2046 1955 1963 1900 2014 1897 1849 1875 1751 1721 1752 1823 1835 1907 1815 1701 1533 1259 1033
200 64 113 211 99 68 0 94 119 147 27 13 4 8 4 1 0 8 1 20 84 212 536 1148 1631 1703 2131 2001 2339 2349 1947 1812 1850 1847 1856 1827 1737 1688 1750 1833 1846 1864 1862 1775 1736 1595 1569 1022 859
132 122 157 274 223 97 88 233 284 93 157 22 39 5 6 14 14 10 23 59 128 307 747 1080 2120 2165 2129 2028 2192 2034 1833 1881 1777 1780 1845 1741 1652 1636 1666 1683 1765 1792 1872 1700 1538 1590 1435 1343 1450
46 139 71 67 3 161 99 12 389 204 74 12 0 17 55 35 31 69 72 90 218 470 885 1138 1952 1825 1994 1791 1952 1899 1933 1984 1889 1777 1860 1810 1606 1567 1514 1566 1684 1836 1875 1649 1432 1513 1202 1273 1840
30 0 37 53 51 242 285 39 402 86 64 35 10 50 86 48 112 113 104 153 282 654 932 1077 1284 1309 1653 1838 1717 1596 1693 1995 1975 1859 1802 1919 1806 1520 1493 1472 1618 1499 1625 1638 1351 1364 1326 1459 1519
90 0 20 0 147 207 361 232 235 150 132 58 51 55 53 94 125 109 182 204 283 707 944 891 1007 1114 1307 1330 1610 1590 1611 1826 1930 1890 1830 1843 1921 1690 1458 1470 1369 1658 1377 1337 1461 1298 1205 1260 1344
30 49 9 0 116 94 320 312 296 256 93 104 80 77 64 114 98 198 244 307 423 691 809 789 647 636 1140 1162 1263 1642 1632 1682 1853 1741 1710 2040 1115 1001 1086 1653 1500 2001 1739 1334 1256 1432 1492 1580 1372
134 7 7 0 0 47 342 369 362 346 112 190 151 84 127 106 188 238 289 238 458 581 770 817 627 646 1137 1509 1189 1234 1166 1296 1297 1446 1217 1517 1158 727 1051 1463 1194 730 1828 1645 1597 1479 1590 1201 818
311 402 5 4 0 24 356 380 425 386 156 221 120 140 149 189 220 268 292 269 376 538 740 860 763 805 1133 1357 1135 1062 1092 1200 1178 1164 1101 1167 872 603 992 507 279 2 433 646 882 684 789 1077 285
50 3 180 54 0 246 373 362 448 429 250 179 150 153 205 247 258 283 319 327 349 520 668 874 872 908 1082 989 1030 911 947 818 900 933 938 750 533 375 189 0 0 102 251 419 217 706 672 623 521
11 0 0 0 0 13 342 385 422 489 409 271 179 202 215 266 281 293 341 347 307 460 616 858 900 935 998 702 852 761 774 750 542 519 549 345 371 363 0 0 228 200 356 474 652 665 995 597 246
0 0 0 0 0 9 355 376 464 515 303 244 265 237 258 290 310 297 364 380 360 362 454 698 856 868 832 679 623 707 583 447 223 155 299 346 259 233 211 41 138 279 257 480 783 712 408 20 26
0 0 0 0 0 8 277 469 504 405 324 285 274 231 233 376 361 307 386 411 455 389 349 517 689 718 638 611 303 471 522 383 180 81 156 465 363 260 138 41 82 417 537 641 650 257 55 9 3
0 0 0 0 0 30 303 301 560 424 436 353 277 238 291 332 418 348 381 412 469 454 443 476 602 572 507 440 289 246 249 308 204 77 339 654 667 390 140 172 322 456 368 721 414 331 225 17 0
0 0 0 0 0 0 275 10 334 474 490 463 379 323 398 338 322 373 385 383 452 503 545 515 464 437 427 366 258 267 189 255 269 192 211 444 737 654 255 405 606 481 273 386 276 108 26 0 0
0 0 0 0 0 0 68 0 117 495 491 547 462 430 449 369 337 336 397 363 378 509 529 465 502 515 371 382 429 380 305 213 234 129 270 440 654 680 379 395 509 195 332 153 33 6 0 0 0
0 0 0 0 0 0 0 0 343 449 529 556 530 527 494 452 388 368 322 381 328 403 482 413 519 609 471 458 536 569 683 354 271 159 392 506 642 821 654 555 488 127 395 234 69 2 0 0 0
0 0 0 0 0 0 0 0 252 444 530 535 558 561 562 575 484 459 340 251 264 304 276 386 478 595 640 565 572 663 598 315 294 455 451 592 728 859 797 532 519 273 402 113 62 0 0 0 0
0 0 0 0 0 0 0 0 0 368 477 539 505 527 518 570 526 419 378 190 140 221 233 303 402 532 676 650 517 187 175 239 321 276 486 345 617 775 791 451 434 469 404 338 79 0 0 0 0
0 0 0 0 0 0 0 0 0 47 421 455 510 581 549 586 603 425 322 233 86 75 195 293 356 412 514 592 540 610 697 708 683 446 366 479 455 516 631 581 407 452 404 268 98 0 0 0 0
0 0 0 0 0 0 0 0 0 2 293 314 361 430 589 585 593 513 384 325 217 71 83 380 437 433 472 510 562 504 586 478 166 247 409 481 518 569 580 603 543 485 311 236 37 0 0 0 0
0 0 0 0 0 0 0 0 0 0 88 343 318 382 378 357 427 425 414 415 267 180 71 298 513 529 531 458 466 417 455 258 152 193 409 428 571 667 711 668 585 435 142 130 34 0 0 0 0
0 0 0 0 0 0 0 0 0 0 0 3 150 197 265 314 300 271 179 233 351 122 90 263 495 582 594 448 410 373 385 297 263 208 416 390 428 678 783 725 545 302 109 63 15 0 0 0 0
0 0 0 0 0 0 0 0 0 0 0 0 0 1 19 77 169 231 182 113 174 150 95 267 507 589 616 521 451 415 408 376 380 302 339 395 541 765 895 786 730 488 104 62 0 0 0 0 0
0 0 0 0 0 0 0 0 0 0 0 0 0 0 0 0 0 30 121 101 94 99 121 265 448 534 615 630 572 506 496 517 472 444 297 404 513 690 827 874 763 579 109 58 0 0 0 0 0
0 0 0 0 0 0 0 0 0 0 0 0 0 0 0 0 0 0 0 3 23 87 112 271 419 445 515 712 738 723 682 667 621 552 331 401 452 810 841 949 898 601 177 43 0 0 0 0 0
0 0 0 0 0 0 0 0 0 0 0 0 0 0 0 0 0 0 0 1 5 23 89 198 402 451 414 794 889 892 862 829 776 649 506 480 551 621 867 938 900 624 245 75 4 0 0 0 0
0 0 0 0 0 0 0 0 0 0 0 0 0 0 0 0 0 0 0 0 0 0 19 99 348 465 427 543 983 1007 988 962 904 761 725 599 562 614 823 842 943 730 354 141 71 3 0 0 0

GFSSGP_con_sbcape_021.txt.gz
CAPE
248 277 311 229 401 159 84 122 132 0 21 84 18 27 37 46 23 25 50 28 70 71 224 493 1149 1740 2014 2248 2083 2349 2045 2011 2136 2138 1949 1818 1913 1937 1894 1953 1966 1916 1741 1660 1697 1604 1518 1305 1284
583 400 192 8 87 62 66 121 74 101 103 75 87 92 83 14 14 46 58 31 27 69 200 314 1440 2392 2392 2472 2635 2438 1821 1914 1969 1964 2003 1876 1964 2017 1840 1768 1706 1744 1785 1613 1658 1522 1394 1340 1246
513 189 72 128 39 67 151 88 223 105 70 75 92 57 65 39 14 39 37 33 29 93 139 384 1404 2485 2195 2229 2393 2390 2213 1932 1976 1947 1993 1908 1905 1805 1738 1784 1842 1978 1798 1883 1736 1479 1253 1159 1011
399 161 85 251 100 121 35 157 191 176 108 114 71 86 3 15 25 34 29 44 73 156 185 951 1870 1859 2115 2345 2391 1946 1883 1943 1889 1983 1818 1814 1745 1736 1793 1583 1883 1987 1850 1671 1605 1559 1242 985 852
216 81 316 253 86 157 201 251 237 195 194 108 52 6 16 42 57 26 50 60 112 181 419 1014 1998 2385 2354 2487 2400 1968 1839 1827 1838 1816 1762 1725 1713 1763 1810 1827 1744 1940 1801 1529 1504 1384 1321 1522 1348
173 248 130 111 62 242 103 318 267 234 193 57 24 30 129 158 57 61 64 112 145 351 602 1105 1832 2306 2385 2299 2011 1839 1795 1773 1762 1802 1769 1663 1652 1622 1637 1717 1805 1840 1660 1413 1443 1211 1149 1581 1545
113 121 111 102 69 215 230 353 502 316 196 64 61 97 131 127 90 94 107 167 225 542 754 1094 921 1659 1778 2304 1939 1877 1853 1841 1780 1740 1885 1846 1640 1549 1481 1593 1495 1514 1561 1352 1287 1265 1168 1277 1573
258 49 136 89 156 267 294 212 473 373 205 26 44 92 93 162 130 152 172 234 332 601 725 1199 794 978 1264 1596 1631 1585 1753 1885 1843 1803 1772 1815 1843 1535 1460 1386 1462 1593 1355 1217 1195 1115 1142 1095 1238
209 484 244 29 181 221 524 540 443 278 129 62 76 74 94 154 162 188 222 258 354 578 787 988 886 1094 1540 1360 1424 1509 1515 1691 1816 1686 1753 1675 1885 1934 1776 1788 1634 1683 1461 1183 1228 1260 1274 1307 1517
456 411 190 46 106 0 516 584 563 418 212 185 226 135 133 169 186 210 205 244 277 403 600 768 997 967 1281 1036 1481 1596 1370 1202 1414 1386 1640 1620 1623 1774 1620 1605 1270 789 1641 1505 1321 1380 1343 1109 356
759 591 318 59 0 0 186 575 599 535 398 262 320 271 194 204 230 195 193 241 287 360 528 673 993 1246 1166 1057 1275 1489 1350 1436 1601 2019 1835 1562 1797 1536 1876 1806 1652 832 688 1121 1322 1251 1125 1625 633
585 439 312 17 0 0 232 602 648 630 461 325 316 251 219 257 219 202 220 264 337 410 496 582 841 1151 1244 1183 1165 1088 1313 1422 1459 1526 2046 1734 1560 1596 1697 1407 757 873 814 1418 1323 1316 1470 1182 1179
543 62 2 0 0 0 25 567 649 694 488 401 487 317 238 217 200 218 229 302 398 506 551 629 854 1134 1257 1440 1015 1035 1468 1336 1284 1596 1601 1469 1360 1712 1524 1141 1053 1194 1300 1372 1475 1571 1910 1066 385
0 0 0 0 0 0 3 151 573 646 629 639 600 477 283 212 194 330 445 617 683 637 706 698 856 1057 1207 1324 1336 1176 1316 1349 1369 1110 1081 1518 1188 1332 1398 1597 937 1400 1473 1417 1470 1622 1019 313 547
0 0 0 0 0 0 0 279 488 643 685 730 674 547 397 305 250 429 574 754 890 850 853 915 988 1025 1192 1225 1389 1134 945 1125 963 937 1183 1228 1383 1673 1854 1759 1085 1162 1733 1908 1868 1090 1054 55 20
0 0 0 0 0 0 0 0 306 690 755 798 661 498 473 463 456 603 713 810 901 937 922 958 898 1024 1236 1260 1312 965 934 973 861 846 857 1044 1390 1772 1891 1737 1281 1318 1801 2076 1970 1876 1543 403 27
0 0 0 0 0 21 95 0 24 686 766 815 708 546 521 578 635 745 738 820 876 997 925 900 978 1004 1141 1286 1154 954 948 885 884 873 811 1023 1377 1570 1809 1825 1621 1778 1565 1901 1961 1258 1017 201 25
0 0 0 0 0 0 26 18 55 707 767 819 720 581 583 610 711 739 719 783 889 1033 1112 1051 957 1058 1220 1118 1151 849 807 672 649 835 1022 1471 1558 1695 2021 1803 1807 1769 1605 1482 1290 1240 384 43 104
0 0 0 0 0 0 0 20 119 666 819 851 780 664 615 626 633 707 767 738 844 1006 1143 1203 1095 1356 1157 1026 791 750 697 662 1022 1148 1425 1828 1932 2090 2134 1805 1814 1717 1554 1572 1482 868 408 41 141
0 0 0 0 0 0 0 0 0 356 797 905 895 763 724 756 720 722 737 772 792 1002 1154 1394 1467 1741 1481 1096 1203 942 1063 914 1481 1418 1612 1735 1866 2092 2117 2086 1944 1750 1470 1635 1421 922 209 27 82
0 0 0 0 0 0 0 0 0 138 509 786 924 868 766 834 823 801 750 748 825 963 1358 1772 2030 2060 1740 1628 1228 1211 1414 1631 1629 1565 1781 1776 1966 2176 2230 2183 2022 2008 1760 1588 1552 1005 575 111 105
0 0 0 0 0 0 0 0 0 0 375 554 774 880 860 876 920 863 844 840 812 1268 1183 1790 1881 2135 1780 2124 1678 1882 1280 1281 1364 1608 1716 1778 2000 2131 2210 2248 2123 2146 1807 1794 1655 1073 676 152 43
0 0 0 0 0 0 0 0 0 0 164 537 697 823 844 925 984 962 947 976 930 923 984 1185 1806 2021 2139 2223 2191 1816 1883 1328 1361 1410 2132 2379 2146 2096 2027 2222 2213 2198 1939 1903 1758 1073 628 201 46
0 0 0 0 0 0 0 0 0 0 0 164 557 790 880 864 908 1011 1032 990 964 807 745 1081 1711 1884 2040 2089 2161 2348 2318 2046 1513 1548 1487 1560 1602 1680 2027 2075 2307 2307 2054 2044 1793 1255 859 339 118
0 0 0 0 0 0 0 0 0 0 0 0 258 664 791 950 957 994 1116 1103 1219 1307 1228 1156 1652 1834 1936 1956 2059 2221 2284 2470 2368 2041 1494 1669 1451 1467 2198 2214 2253 2128 2140 2039 1727 1262 880 489 201
0 0 0 0 0 0 0 0 0 0 0 0 9 245 604 795 928 1056 1427 1546 1587 1455 1449 1259 1408 1780 1920 1911 1998 2091 2244 1790 1941 2123 1479 1408 1411 1566 1971 2287 2290 2248 2133 1981 1553 1192 898 531 425
0 0 0 0 0 0 0 0 0 0 0 0 0 0 101 443 736 876 1258 1482 1543 1627 1549 1478 1445 1673 1881 1877 1959 2019 2094 2030 1928 2187 2214 1532 2075 1541 1860 2146 2300 2317 2194 2002 1625 1237 936 455 416
0 0 0 0 0 0 0 0 0 0 0 0 0 0 0 0 217 594 995 1229 1321 1294 1632 1470 1464 1677 1819 1897 1929 1867 1929 2010 2058 2182 2211 2130 2058 1880 1725 1982 2208 2316 2219 2020 1735 1435 1055 571 319
0 0 0 0 0 0 0 0 0 0 0 0 0 0 0 0 7 132 566 996 1244 1087 1222 1419 1425 1701 1930 1995 2027 1971 1934 1945 2030 2096 2240 2287 2214 2196 2149 2158 2137 2208 2216 2027 1825 1683 1244 685 588
0 0 0 0 0 0 0 0 0 0 0 0 0 0 0 22 86 77 144 356 687 1218 1099 1288 1348 1494 1759 1929 2093 2076 2119 2103 2089 2135 2211 2342 2374 2153 2644 2559 2228 2236 2277 2083 1837 1756 1347 980 790

GFSSGP_con_sbcape_024.txt.gz
CAPE
157 357 475 338 826 501 292 327 222 69 150 123 28 244 244 41 99 513 245 43 422 292 214 933 1807 1726 1357 1562 1886 2087 2057 1977 2037 1815 1790 1918 2014 1956 2010 1858 1865 1855 1809 1796 1737 1635 1438 1354 1451
239 479 474 258 350 281 444 362 229 218 243 180 191 200 187 26 61 216 311 291 431 419 455 744 1360 1976 1794 1970 2109 2154 1904 1976 1948 1939 1903 2027 1912 1868 1789 1626 1666 1888 1764 1762 1689 1432 1421 1288 1181
683 491 399 278 349 147 294 417 411 222 184 215 322 443 476 291 126 268 302 247 340 387 505 1046 1782 2406 2144 2096 2317 2359 1985 1949 1983 1976 1922 2047 1861 1767 1718 1827 1741 1793 1967 1781 1558 1416 1140 1025 991
518 400 185 688 262 210 245 489 330 322 330 259 319 433 191 83 106 130 173 234 271 480 559 1310 2038 2015 2312 2284 2127 1943 1926 1969 1986 1939 1904 1940 1755 1820 1539 1849 1222 1613 1699 1666 1562 1290 1342 972 928
480 129 497 734 244 213 423 570 510 475 432 343 281 267 110 90 146 98 182 225 280 458 671 1208 2480 2465 2463 2256 2091 2011 1944 1922 1974 1857 1823 1772 1782 1770 1638 1798 1802 1825 1567 1471 1344 1349 1536 1277 1408
655 526 449 110 131 334 398 519 552 547 430 328 229 198 311 223 189 217 223 208 338 514 616 968 2237 2413 2615 2396 1956 1877 1831 1871 1884 1818 1756 1729 1692 1653 1743 1830 1853 1700 1399 1359 1292 1218 1419 1425 1453
691 495 266 170 172 374 398 539 559 507 548 308 236 453 338 226 225 219 292 250 322 464 427 704 1112 1565 1786 2597 1788 1791 1830 1811 1867 1873 1786 1620 1575 1551 1465 1598 1527 1533 1348 1256 1242 1209 1249 1388 1442
515 515 288 195 249 468 506 623 646 635 565 226 251 343 433 389 337 316 346 283 409 508 423 513 806 884 1556 1646 1844 1899 1876 1857 1821 1765 1767 1674 1504 1378 1448 1258 1691 1332 1266 1232 1220 1127 1098 1026 1301
531 736 294 175 255 287 578 794 692 669 367 216 252 292 404 451 372 415 465 426 440 593 512 391 485 819 1140 1176 1459 1653 1793 1839 1763 1715 1692 1553 1608 1784 1797 1649 1633 1284 1190 1124 1221 1015 1141 1269 1562
647 684 187 73 25 5 181 663 862 597 416 261 375 335 433 450 491 500 589 666 853 630 571 387 342 609 840 636 1125 1089 795 765 933 814 1275 1599 1569 1875 1680 1661 1323 992 1375 1311 1367 1249 1308 1486 166
423 562 148 49 11 5 74 666 930 546 459 384 595 545 519 465 543 543 553 530 550 649 504 503 481 670 718 614 898 899 875 884 1312 1517 1299 1445 1774 1764 1534 1559 1661 944 1157 1536 1149 1133 863 1541 634
340 252 330 72 1 0 0 340 864 675 398 445 672 546 583 553 574 525 464 431 444 598 596 625 722 792 697 680 726 690 620 703 858 1002 1464 1603 1775 1649 1655 1217 1194 1193 1028 1368 1091 1236 887 1033 1375
284 72 17 17 0 0 0 53 343 737 550 531 719 595 650 592 555 519 415 384 378 492 554 580 787 1042 927 956 564 375 585 623 679 1059 1156 1239 1598 1933 1734 1559 1344 1535 1154 1190 1665 1011 806 1347 1089
21 58 6 0 0 0 0 0 251 507 741 661 750 648 696 641 600 581 485 486 485 502 588 656 852 1075 1103 1131 1073 864 943 844 973 756 575 1387 1663 1748 1588 1664 1367 1441 1438 1658 1003 969 1607 506 634
0 0 0 0 0 0 0 0 173 420 958 973 884 793 718 675 641 626 541 578 606 635 672 741 990 1139 1355 1432 1547 1370 927 931 808 512 730 1180 1630 2122 2381 1797 1494 1202 2237 1261 1138 1085 1221 431 117
0 0 0 0 0 0 0 37 159 551 978 1157 1076 978 824 718 600 594 571 624 681 860 1095 1104 954 1068 1356 1391 1542 1234 864 814 531 289 439 1154 1689 2306 2456 1912 1388 1508 1577 1168 1018 921 898 620 221
0 0 0 0 0 0 0 30 50 559 904 1118 1261 1138 988 843 659 628 678 715 876 1305 1428 1550 1495 1313 1513 1695 1592 1477 1034 891 475 363 402 1278 1684 2047 2364 2159 1568 1992 1869 1284 1005 1132 1062 343 90
0 0 0 0 0 0 0 18 19 234 581 875 1298 1222 1055 903 821 725 780 802 974 1312 1557 1649 1619 1695 1791 1674 1793 1328 835 771 611 576 600 1069 1675 1977 2490 2081 1477 1448 1716 1404 1563 1211 837 216 0
0 0 0 0 0 0 0 0 0 97 574 634 1179 1289 1180 1083 910 832 933 989 1054 1213 1563 1645 1651 1893 1901 1626 1448 1055 674 705 625 587 1027 1679 2125 2431 2785 2254 1588 1475 1594 1428 1348 1336 988 168 15
0 0 0 0 0 0 0 0 0 26 491 634 1044 1239 1267 1196 1012 960 996 991 894 1225 1549 1873 1807 2099 2229 1739 1697 981 753 556 688 804 1310 1920 2290 2743 2799 2937 2189 1693 1672 1677 1630 1479 561 198 17
0 0 0 0 0 0 0 0 0 0 15 282 680 1071 1156 1207 1149 1054 1011 993 900 1174 1573 1828 2150 2084 2112 2058 1380 1117 936 900 919 1145 1585 1957 2406 2553 2851 2439 2399 2127 1935 2845 2076 1675 1140 301 38
0 0 0 0 0 0 0 1 29 7 11 38 319 774 1049 1196 1244 1175 1015 962 931 1152 1471 1853 2147 2352 2247 2403 1982 2443 1285 1253 1193 1655 1290 1631 2372 2335 2411 2666 2484 2721 1967 1961 2345 1725 1442 1396 99
0 0 0 0 0 0 0 0 0 0 0 0 75 360 887 1056 1264 1319 1203 945 839 1101 1349 1722 2381 3056 3062 2482 2717 1946 2139 1498 1429 1333 2434 3056 2710 2546 2214 2556 2526 2654 2775 2274 2390 2106 2042 1247 431
0 0 0 0 0 0 0 0 0 0 0 0 95 404 830 1012 1183 1359 1395 1061 907 1076 1425 1672 2841 3852 3312 2894 2448 3445 3447 2610 1764 2079 1585 1696 1855 2047 2412 2379 2251 2356 2571 2582 2597 2454 2036 1698 812
0 0 0 0 0 0 0 0 0 0 0 0 0 30 759 1025 1169 1272 1512 1443 1088 1184 1409 1694 2632 3385 3019 2802 2768 2900 2986 3096 3304 2674 2051 2443 1518 1459 2543 2573 2746 2603 2876 2583 2692 2725 2048 2015 1243
0 0 0 0 0 0 0 0 0 0 0 0 0 0 246 961 1170 1193 1482 1644 1561 1326 1833 1845 2613 3052 2903 2823 3576 3768 3690 2379 2392 2902 2187 2017 1591 1683 1736 2241 2513 2598 2564 2786 2802 2628 2227 1898 1593
0 0 0 0 0 0 0 0 0 0 0 0 0 0 0 670 1120 1273 1270 1556 1746 1793 2305 2678 3055 3436 3036 2552 3487 3820 3675 3483 2524 3390 3203 2314 3012 1802 1926 2085 2561 2540 2654 2761 2866 2599 2447 1946 1791
0 0 0 0 0 0 0 0 0 0 0 0 0 0 0 167 869 1087 1279 1376 1662 1848 1925 2252 2759 3295 3408 2986 3095 2907 3199 3653 3620 3761 3583 3526 2925 2876 2216 2401 2431 2462 2628 2810 2958 2553 2511 2315 1694
0 0 0 0 0 0 0 0 0 0 0 0 0 0 0 33 265 722 973 1199 1342 1658 1986 2085 2261 2813 2683 3190 3390 3328 3078 3017 3152 3246 3779 3880 3181 3529 2955 2885 2508 2371 2601 2847 3091 3146 2385 2498 2140
0 0 0 0 0 0 0 0 0 0 0 0 0 0 0 0 39 96 239 673 1151 1460 1745 2016 2152 2155 2492 2875 3552 3554 3562 3387 3061 3535 3561 3894 3768 3678 3624 3142 2900 2598 2424 3039 2996 3021 2272 2479 2308

GFSSGP_con_sbcape_027.txt.gz
CAPE
48 358 420 645 232 323 284 299 163 240 227 196 254 255 245 237 731 622 3 31 0 1 88 892 1345 1134 1218 1466 2055 2159 1959 1894 2087 1847 1887 2030 1990 1624 1713 1752 1867 1856 1806 1734 1595 1512 1362 1464 1392
132 364 522 678 507 138 387 142 71 232 351 258 339 285 194 73 424 149 318 1 0 0 270 499 1783 1739 1543 1905 2087 2015 1809 1897 1887 1912 2077 1867 1942 1767 1617 1681 1873 1771 1736 1665 1408 1361 1318 1246 1160
302 451 704 407 512 227 203 184 158 345 326 280 618 529 439 330 298 272 474 373 229 350 463 863 1566 1805 1861 2042 2019 1920 1722 1930 1990 1879 1768 1766 1805 1701 1803 1387 1724 1929 1748 1585 1390 1215 1089 1006 965
500 797 616 832 400 137 263 253 314 410 438 487 572 574 444 311 434 518 414 399 255 360 370 1176 1711 1929 2096 2030 1853 1770 1791 1933 1970 1959 1852 1828 1799 1650 1802 1423 1590 1634 1606 1518 1277 1363 1188 1073 991
271 369 754 623 197 175 199 396 374 413 475 445 557 673 438 136 233 422 411 371 361 398 559 1192 2394 2494 2157 1854 1807 1821 1874 1960 1759 1818 1755 1862 1777 1666 1722 1946 1833 1522 1461 1389 1425 1579 1497 1583 1510
865 657 188 143 69 112 248 334 330 346 564 340 607 453 411 195 437 419 331 361 447 403 277 1136 1919 2444 2371 1828 1780 1885 1821 1840 1709 1730 1752 1790 1751 1812 1837 1857 1775 1448 1425 1397 1347 1442 1398 1350 1634
952 392 187 126 80 83 128 288 376 458 481 410 420 829 396 164 279 349 251 273 420 407 312 616 940 1635 2139 2148 1844 1773 1692 1712 1650 1657 1631 1620 1601 1518 1559 1574 1578 1455 1343 1316 1283 1275 1344 1377 1419
742 681 323 52 32 67 73 82 200 477 636 374 832 703 522 376 322 310 245 248 385 495 250 325 640 866 1570 1359 1624 1638 1626 1651 1681 1699 1565 1496 1495 1548 1320 1632 1478 1347 1274 1295 1140 1107 1148 1312 1388
431 590 476 80 19 199 165 33 183 499 357 411 511 693 585 473 276 230 278 308 533 416 212 282 420 822 1444 855 1489 1664 1614 1626 1640 1562 1492 1508 1523 1864 1587 1651 1376 1149 1292 1163 1001 1021 1073 1331 1398
368 312 246 45 44 73 162 118 103 431 354 391 445 711 577 585 437 412 415 433 460 527 229 279 346 525 764 424 1126 1074 844 708 1024 1116 969 1409 1918 2161 1605 1692 1462 1411 1169 1271 1072 1113 784 1614 600
208 256 136 87 32 39 86 364 245 64 306 424 620 815 689 647 740 848 735 797 779 639 315 277 413 704 482 1289 607 595 516 688 917 1033 1413 2262 1737 1560 581 1342 817 900 1425 1187 1102 844 1106 437 613
34 195 159 53 23 24 72 366 457 185 108 246 633 786 734 689 701 710 830 878 711 608 406 245 411 828 527 612 495 373 394 487 649 837 1355 1763 1597 1490 1627 1957 1588 1375 1609 1398 1281 1463 1217 839 697
3 92 142 211 54 29 17 78 414 409 143 225 655 783 778 794 773 689 658 676 739 557 431 357 520 1416 1631 1064 530 428 408 304 425 939 1084 1315 1961 1726 1906 1529 2080 1889 1554 1104 899 1582 1149 1046 828
19 27 109 45 37 24 7 25 171 585 325 397 647 808 796 823 824 797 685 652 657 650 564 509 792 1175 1121 1484 1621 671 459 539 488 557 756 1392 1837 1851 2450 1919 1904 1926 1893 1537 1216 1023 1632 646 730
19 14 47 100 0 5 0 19 146 587 672 629 801 765 800 801 797 809 687 631 604 632 702 706 826 1064 1197 1282 1261 946 634 575 614 528 686 1233 1769 2085 2440 2370 1869 1990 1927 1760 1537 1348 485 585 38
0 0 30 1 0 0 0 22 36 461 926 774 843 730 831 798 767 798 747 715 673 703 912 890 692 909 1110 1499 1575 1150 754 655 602 391 483 973 1672 2037 2467 1939 1436 1700 1417 1172 1534 1754 284 478 85
0 0 0 25 6 14 1 46 64 309 852 1003 935 921 666 843 795 852 772 740 744 880 1171 1092 1091 1104 1445 2356 1638 1486 1858 864 551 292 183 1475 1736 2105 2369 1664 2535 2030 1730 968 962 910 702 121 26
0 0 1 10 78 22 40 31 28 415 557 778 1052 1051 945 700 747 828 832 732 804 957 1264 1683 1368 2582 2969 2088 2621 1409 1047 878 542 352 222 2340 1863 2074 2405 2249 1798 1803 1235 1644 1215 1581 406 124 0
0 0 0 24 69 40 37 81 85 119 288 397 958 1166 1151 952 697 684 775 786 837 1170 1649 2330 2533 3426 2527 1956 1637 1429 998 961 500 559 898 1225 1547 2115 2602 1973 2048 1727 2340 1589 1255 1176 758 45 22
0 0 0 0 9 40 29 29 61 74 154 299 662 1060 1190 1126 882 677 756 771 847 1096 1997 3020 3169 3718 3232 2273 2411 1664 1663 582 550 541 1689 1412 1883 2383 2743 2586 1897 1851 1828 1677 1660 1409 1501 39 0
0 0 0 0 3 7 13 29 33 50 94 310 565 990 1041 1163 1153 906 811 808 823 1199 2134 2952 3508 3665 3356 3240 2642 2471 1805 1540 803 908 827 1549 1978 2260 2851 2184 2086 2027 2308 2581 2067 1522 1237 793 0
0 0 0 0 3 12 0 19 34 31 52 158 338 809 1045 1091 1221 1207 904 858 849 1306 1482 2961 3540 3698 3485 3698 2328 2516 1208 826 654 953 934 1509 2475 2165 2350 2449 1932 2914 1956 2955 2365 1578 1849 1404 240
0 0 0 0 0 1 3 19 67 29 29 41 55 301 925 904 1160 1259 1170 881 817 983 1174 2111 3702 3812 3571 3536 3381 2177 1998 782 825 890 2418 2331 3488 2655 2062 3083 2924 2905 2255 3027 2147 2113 2113 1428 1070
0 0 0 0 0 0 0 0 10 57 64 71 59 69 322 626 965 1264 1326 974 790 759 984 1939 3641 4070 4014 3917 3502 3968 2677 2034 1250 1554 1524 1418 1400 2350 3229 2600 3602 3204 3225 2669 2549 2789 2317 2190 1315
0 0 0 0 0 0 0 0 0 9 16 37 31 46 102 289 825 1208 1419 1184 988 1217 1524 2085 3584 4165 4197 4113 3597 3489 3770 3245 4213 3803 1492 1797 1296 1173 2988 3584 3800 2664 3696 2845 3607 3615 2920 2282 1863
0 0 0 0 0 0 0 0 0 0 3 15 37 48 167 315 796 1151 1404 1455 1453 1493 2021 2284 3354 4154 4257 4066 4068 3850 4159 2668 2298 2899 1785 1554 1263 1324 3007 3842 3557 3435 3392 3159 3760 2811 2499 2958 2008
0 0 0 0 0 0 0 0 0 0 0 0 0 4 44 249 613 1135 1348 1564 1805 1567 2275 2657 3347 3991 4148 3889 4147 4220 4072 3798 2812 3075 3540 2602 2878 1622 3193 3551 3592 3485 3566 3817 3944 2464 3348 3149 2719
0 0 0 0 0 0 0 0 0 0 0 0 0 0 0 51 512 1029 1262 1548 2000 1569 1980 2636 3175 3902 4030 3846 4014 4042 4203 4227 3912 4062 4191 3164 3371 3768 3496 3207 3314 3455 3732 3924 4201 3067 3456 3724 2565
0 0 0 0 0 0 0 0 0 0 0 0 0 0 0 0 331 935 1261 1418 1742 1770 1674 2103 2863 3658 3994 3889 3921 3903 3963 3977 4178 4005 4245 4148 4237 4479 3894 4220 3691 3721 3817 4065 4275 3806 3485 3751 3568
0 0 0 0 0 0 0 0 0 0 0 0 0 0 0 0 150 776 1036 1166 1293 1694 1900 2032 2266 2423 3703 3735 4051 3968 4009 3926 4012 4114 4002 4316 4344 4300 4581 4332 4289 4130 3814 4017 4215 3946 2684 3727 3415

GFSSGP_con_sbcape_030.txt.gz
CAPE
137 173 179 295 508 125 190 86 116 198 346 272 421 374 309 552 539 193 0 3 0 3 68 676 1392 1458 1642 2334 2642 2417 2443 2510 2303 1983 2250 1948 1885 1758 2114 2219 2223 2162 1831 1654 1629 1467 1511 1395 1188
110 337 492 534 333 8 222 269 151 189 171 332 231 205 425 384 0 0 1 0 0 0 2 347 1627 1838 1901 1996 2538 2362 1958 1838 2113 1729 2073 2137 2221 2255 2099 1933 1746 1702 1655 1510 1369 1350 1267 1206 1191
75 450 576 721 455 165 335 56 250 245 405 473 601 601 356 127 0 0 0 0 0 0 27 870 1895 2127 2080 2343 2406 2345 2257 2170 1887 1775 1933 1666 1746 2066 1705 1766 1893 1669 1553 1381 1316 1140 1063 987 951
489 788 776 329 333 207 408 391 275 387 458 448 305 423 103 1 47 3 0 0 0 60 298 1434 1617 1760 2012 2368 2241 2170 2115 1896 1986 1851 2001 1808 1704 1705 1453 1553 1528 1539 1435 1318 1451 1334 1191 1087 1077
644 421 473 654 260 178 391 408 272 380 380 506 612 271 293 398 379 0 0 0 14 267 641 620 2291 2275 2393 2238 2235 2156 1861 1853 1957 2272 1882 1779 1673 1773 1947 1719 1462 1496 1474 1503 1596 1537 1513 1470 1324
765 0 54 269 29 207 308 394 481 434 598 690 377 258 190 305 343 163 214 79 276 465 361 917 2044 2313 2327 2059 2178 2085 1873 1624 1793 1820 1817 1892 1913 1927 1953 1740 1455 1452 1435 1404 1416 1313 1210 1462 910
121 3 33 202 10 175 392 501 525 503 226 689 475 409 238 256 308 332 236 125 122 251 440 1134 1478 1788 1981 2217 2192 1831 1745 1614 1648 1588 1608 1601 1580 1596 1637 1888 1732 1401 1353 1266 1227 1231 1175 1069 1277
545 13 125 176 22 17 254 325 411 413 390 707 462 282 325 305 369 304 339 349 450 46 386 943 1126 860 1296 1393 1765 1635 1602 1507 1482 1512 1442 1464 1398 1275 1248 2091 2007 1393 1298 1127 1063 1026 1023 1180 1357
506 348 347 184 95 112 9 515 523 234 528 756 690 345 352 283 249 262 180 479 431 212 213 361 429 1380 1742 1463 1430 1559 1469 1454 1491 1415 1249 1086 2171 1184 1584 1827 1714 1326 1223 987 863 873 994 1349 1703
298 84 20 132 29 32 90 3 162 194 306 633 616 375 353 444 340 346 269 390 527 157 116 237 476 920 1050 370 1595 1797 1183 1096 1339 1015 0 0 1280 1605 1795 1416 2129 1381 1045 1129 1018 1209 1558 803 704
128 126 19 22 112 74 26 14 204 71 215 810 594 430 420 410 419 377 436 405 456 152 132 300 680 1178 763 964 1224 1269 1056 1122 1139 671 0 59 1113 1339 1232 1579 1277 1652 569 938 852 1091 1457 1160 1044
58 83 6 46 151 62 149 21 92 84 69 704 694 449 560 430 405 461 458 492 384 328 302 245 741 1328 948 1014 537 868 786 755 1331 1553 1735 1549 860 811 2026 1502 2019 1014 1267 1156 1403 1423 1654 1550 1595
17 219 160 4 99 24 149 70 86 39 101 512 726 546 563 618 616 681 763 591 794 693 348 501 836 1496 2342 1889 679 633 1169 850 1228 1808 2041 715 464 2279 2688 2803 891 680 533 376 894 1766 1824 1659 197
17 38 57 37 225 53 0 115 86 115 76 424 648 642 553 569 721 878 944 903 931 921 372 810 1119 1572 2565 2321 3128 2034 2061 1023 1189 1123 1535 2415 1964 2379 2943 2788 1187 1829 850 400 762 384 274 447 537
4 17 31 69 125 32 18 24 63 177 117 157 532 648 646 605 600 789 1127 870 988 556 791 926 1138 1248 2140 2372 2407 2169 1909 609 980 1315 2296 1931 2650 3154 1966 2393 1945 2149 2561 2628 2277 1106 335 86 273
2 4 28 52 82 12 1 8 232 127 223 202 398 540 648 636 557 778 793 665 881 662 966 1083 676 1052 1429 1796 2351 1947 1237 1252 1506 1588 1657 2062 2268 2755 3439 1787 1294 626 2179 1972 1829 1892 805 660 371
0 1 4 42 30 5 1 0 11 236 193 481 277 437 549 812 790 928 605 788 764 1000 1495 1564 1295 1320 1330 2242 1999 1616 1751 2080 1766 1834 1494 2186 2726 2805 3152 2729 2271 2337 815 2021 1828 1919 1996 467 208
0 0 0 2 57 16 9 19 0 62 205 563 765 427 586 566 702 902 759 759 866 1231 1608 1768 1380 1795 1729 1894 2271 1648 1610 1665 1702 1829 1682 2151 2639 2962 3497 2675 2610 2088 971 2398 2462 2436 1355 871 141
0 1 0 1 10 61 12 62 30 60 18 334 675 802 512 618 654 941 799 788 1021 1376 1642 1648 2064 2921 2106 2065 1848 1851 1245 1628 1525 1929 2589 2832 2760 3213 3793 2812 971 2360 1894 2456 2025 1918 1587 501 264
0 0 0 0 6 14 41 10 38 106 40 51 449 413 786 491 620 893 894 775 851 1298 1843 1904 2155 2920 2597 2211 2144 1803 1933 1637 1385 1536 2606 2480 2444 3022 3200 2882 2237 2397 2357 2597 2673 2448 1720 526 105
0 0 0 0 0 15 13 22 41 75 99 43 401 374 706 796 696 807 925 848 795 1435 2027 2399 2510 3208 2596 2648 2774 2801 2937 2882 1444 1487 2124 2098 2676 2789 3025 2840 3208 2281 2651 2306 2780 2633 2340 1493 321
0 0 0 0 7 8 8 24 68 38 34 37 59 318 386 951 936 816 965 936 957 1374 2054 2719 2919 3166 2831 3112 2531 2601 1677 1251 1433 1429 1520 1661 2189 2954 3162 3166 3207 3432 2800 2378 2413 3068 2575 2175 883
0 0 0 0 0 2 9 19 19 65 42 46 149 408 502 939 1004 946 898 1000 1050 1261 2051 2739 3034 3185 3190 2584 3257 2409 1942 1633 1236 1542 2446 2204 2525 2705 2778 2967 3338 3627 3036 2630 2485 2959 2931 2972 1602
0 0 0 0 0 0 0 6 14 28 81 57 87 111 709 578 1138 1297 1067 1109 1061 1349 1835 2528 3090 3048 3173 3077 2580 3223 2204 1958 1344 1391 1592 2249 2579 2634 3095 3441 3086 3489 2751 3152 2923 3079 3487 2932 2802
0 0 0 0 0 0 0 0 0 9 82 33 50 62 309 881 1131 1551 1443 1253 1152 1355 1766 2094 3133 3036 2915 3148 2468 2668 2997 1998 3057 2772 1765 1971 1515 2345 2538 3282 3382 2884 3123 3308 2846 3381 3566 3167 2775
0 0 0 0 0 0 0 0 0 0 4 24 62 52 158 473 869 1402 1654 1490 1279 1286 1558 1959 3001 3088 3063 2957 3079 2506 3456 2323 1688 3251 1727 1872 1806 1644 2990 2584 3098 3156 3102 3103 3711 2984 2964 3077 2682
0 0 0 0 0 0 0 0 0 0 0 0 25 128 118 218 467 1184 1704 1709 1497 1292 1529 1895 2714 3133 3287 2884 3274 3055 2534 3221 1824 2213 2871 2485 2409 2316 3280 2763 2789 2773 3130 3166 3308 2884 3245 3330 2872
0 0 0 0 0 0 0 0 0 0 0 0 6 17 86 225 457 1110 1579 1878 1631 1329 1516 1746 2485 3122 3408 3403 3170 3258 2722 2968 2943 2048 2846 2331 2873 2544 3824 3120 3062 3097 3164 3514 3367 3225 3197 3003 3149
0 0 0 0 0 0 0 0 0 0 0 0 0 0 53 391 588 943 1632 1891 1910 1504 1571 1709 1972 3022 3460 3499 3417 3341 3443 2777 2737 2882 2612 3500 2564 4129 2858 4036 3351 3236 3180 3267 3530 3032 2804 3364 2875
0 0 0 0 0 0 0 13 0 13 0 0 0 0 24 188 796 886 1334 1817 2105 1843 1646 1802 2064 2646 3305 3699 3697 3477 3495 3648 3254 2546 2862 3135 3921 2935 4060 3603 3444 3431 3123 3209 3183 3222 2415 3046 3125

GFSSGP_con_sbcape_036.txt.gz
CAPE
62 13 4 107 162 21 43 76 119 111 138 207 168 118 59 8 34 0 1 0 3 102 676 1266 1981 2083 1973 2130 2091 1969 2003 1956 2107 2131 2057 2090 2101 2138 2133 2063 1959 1727 1773 1814 1738 1537 1381 1490 1167
20 15 138 276 83 0 5 88 126 227 108 222 265 160 58 0 1 11 0 0 24 187 453 1128 1965 2333 2225 2186 2172 2117 1619 1783 2226 2121 2079 2080 1950 1914 1871 2012 1768 1798 1789 1684 1649 1563 1544 1445 1319
48 229 186 205 42 0 61 73 170 297 403 360 117 15 0 4 10 2 0 0 24 148 550 1082 2120 2409 2311 2133 1984 2108 1751 1866 1878 2046 1987 1897 1954 2004 1952 1775 1687 1694 1566 1446 1401 1309 1281 1276 1203
102 480 359 112 117 29 42 45 261 72 154 57 1 0 0 0 0 0 0 0 0 179 508 1760 1958 1862 2076 1811 2078 1913 1866 1989 1856 1969 1874 1759 1800 1937 1728 1788 1687 1636 1708 1554 1414 1309 1168 1202 1223
186 152 183 154 75 146 154 228 410 373 208 76 0 0 6 0 0 0 0 0 0 248 991 1392 2291 2455 2122 1769 1891 1863 1941 2015 2010 2112 2060 2142 1916 1804 1827 1828 1803 1888 1846 1739 1659 1575 1424 1369 1239
202 1 4 2 0 2 14 147 445 338 158 6 0 93 0 0 0 0 0 0 185 610 1008 1584 2139 2333 2253 1730 1913 1855 2123 1896 2174 2053 1859 2068 2270 1854 1812 1794 1744 1640 1609 1498 1315 1459 1414 980 1280
89 0 0 0 17 65 37 194 209 267 147 33 10 59 0 0 0 0 0 0 408 715 1090 1356 1421 1505 1695 2067 1868 1655 1803 1909 1972 2003 1973 1964 1913 1916 1781 1861 1773 1557 1494 1442 1382 1326 1312 1288 1077
17 0 0 3 0 77 334 171 366 359 320 176 72 2 0 0 0 0 0 256 256 653 1197 1286 1211 1072 1431 1545 1667 1676 1787 1775 1744 1692 1627 1558 1624 1652 1690 1907 2205 1403 1269 1202 1213 1219 1552 1557 1418
20 0 0 0 8 1 3 58 370 270 192 206 248 184 0 0 0 0 0 100 407 938 1166 1253 922 990 1096 1155 1237 1412 1659 1650 1572 1487 1531 1366 734 842 1239 1448 1793 1355 1135 1070 1162 1276 1561 1491 1461
438 0 0 0 40 35 161 28 18 261 330 292 210 0 0 0 0 0 52 332 539 717 1023 948 724 720 856 1291 959 773 948 954 984 799 162 62 89 197 807 1460 1595 1368 1184 1356 1894 1639 1264 1355 267
179 35 24 74 48 31 38 102 360 419 372 277 192 14 3 0 29 82 136 346 497 600 806 557 500 549 718 825 610 557 643 691 617 34 0 0 163 438 879 801 1137 604 271 257 219 398 651 739 380
35 253 215 47 56 22 23 131 536 396 384 291 185 91 117 129 162 132 181 100 302 437 501 295 423 531 138 485 456 466 460 408 419 0 0 20 190 477 621 388 434 494 205 432 536 606 694 609 74
25 40 107 112 62 17 2 18 3 281 447 272 129 219 230 163 193 277 222 74 105 161 187 188 427 346 54 138 109 342 271 286 429 0 0 107 97 349 504 675 459 459 307 54 1 510 286 160 40
1 0 7 33 20 4 4 0 39 494 406 322 174 221 252 250 317 296 194 146 58 61 85 99 335 218 134 23 0 29 14 74 303 34 0 177 0 327 676 653 370 391 273 16 0 239 11 19 43
0 0 0 11 0 1 10 3 557 425 393 357 276 265 227 275 298 297 208 210 48 12 36 52 165 175 143 22 0 0 0 34 306 319 280 171 386 572 546 490 188 151 124 41 154 140 16 44 55
0 0 0 15 25 19 25 7 561 352 285 254 210 191 159 179 211 244 256 161 156 9 16 0 184 317 76 52 105 240 1 0 246 478 456 369 350 815 645 294 362 439 280 455 412 247 246 141 141
0 0 0 0 33 46 48 28 585 353 306 273 213 188 178 189 120 108 223 152 144 34 0 0 59 472 12 324 297 349 173 122 152 264 379 694 936 1016 782 646 333 131 333 346 362 283 602 105 108
0 0 0 0 0 28 56 4 487 350 352 365 289 230 215 202 141 107 120 137 80 28 0 15 0 320 118 326 211 147 116 114 440 613 251 468 690 1198 931 471 679 482 85 542 575 91 0 0 1
0 0 0 0 0 0 1 133 484 438 309 439 384 372 261 226 130 156 125 104 78 48 39 14 0 168 274 401 274 72 53 19 195 285 288 299 674 1074 1059 946 670 237 215 644 117 34 6 0 0
0 0 0 0 0 0 0 101 353 473 349 430 408 407 401 369 256 201 189 156 112 80 65 31 9 10 392 242 340 88 3 18 147 33 313 319 788 1079 1093 973 619 721 384 502 292 410 16 0 0
0 0 0 0 0 0 0 107 127 210 338 377 328 343 314 320 221 267 168 227 160 107 93 59 45 0 142 275 174 400 403 237 278 61 660 480 932 1275 1353 796 774 793 709 712 609 576 66 0 0
0 0 0 0 0 0 0 38 106 173 131 64 54 102 163 188 234 204 105 237 111 155 49 179 167 88 57 344 176 419 447 628 419 195 189 783 1018 1281 1181 1054 1002 870 672 835 710 758 329 0 0
0 0 0 0 0 0 0 0 83 126 44 0 0 0 73 169 264 130 67 37 56 138 140 187 435 243 173 559 278 260 343 463 338 108 53 682 837 1258 1097 947 908 800 770 352 551 995 622 124 1
0 0 0 0 0 0 0 0 0 53 30 2 13 0 19 173 300 236 136 76 96 204 210 261 655 399 325 647 510 392 324 325 296 198 71 313 764 784 1185 1172 942 785 1093 749 257 420 937 539 221
0 0 0 0 0 0 0 0 0 19 30 27 3 0 57 222 279 242 228 148 126 351 284 347 438 993 697 661 778 667 574 459 472 222 81 378 471 553 986 1423 1198 1022 1043 981 646 470 1054 562 875
0 0 0 0 0 0 0 0 0 0 8 25 24 36 180 267 119 257 276 213 159 460 475 351 507 814 1011 906 810 841 807 732 574 224 130 173 722 564 640 1331 1324 1263 1178 1030 762 724 914 1149 640
0 0 0 0 0 0 0 0 0 0 0 0 22 109 321 279 124 196 287 280 209 467 670 565 512 607 1125 1005 1060 1153 1057 915 807 409 335 110 628 959 804 1022 1503 1249 1347 995 1124 849 951 1517 1072
0 0 0 0 0 0 0 0 0 0 0 0 0 96 405 447 226 130 269 352 278 504 733 857 809 715 1170 1195 980 916 1008 1509 996 497 435 881 386 721 1172 1045 1526 1441 1289 1162 1247 1258 1052 1215 1331
0 0 0 0 0 0 0 0 0 0 0 0 1 25 315 415 319 40 266 407 358 423 721 1252 1189 1058 1320 1490 1424 1131 799 798 1631 818 175 247 779 482 659 1189 1193 1652 1462 1270 1128 1335 1636 1198 1293
0 0 0 0 0 0 0 0 0 0 0 0 0 125 130 207 302 157 451 436 421 442 702 1174 1592 1386 1378 1661 1663 1560 1323 856 839 1626 829 335 424 929 505 1218 1288 1429 1677 1616 1420 1285 1502 1851 1426

GFSSGP_con_sbcape_039.txt.gz
CAPE
103 23 5 76 101 26 15 102 169 33 175 355 79 30 27 1 7 0 1 0 42 278 634 1323 2093 2107 1825 1774 2152 1994 1826 2135 2168 2078 1992 1962 2055 2036 1911 1798 1838 1829 1705 1682 1631 1565 1408 1316 1419
47 21 105 202 144 0 20 78 157 171 143 177 213 73 0 1 0 16 1 2 251 507 828 1208 2167 2191 1962 1716 2163 2091 1951 1927 1795 2036 2162 2077 2118 2069 2004 1976 2055 1841 1811 1584 1588 1653 1415 1364 1367
9 81 82 286 6 0 23 25 130 277 252 356 62 7 0 4 5 4 0 83 365 472 913 1401 2274 2353 2050 1741 1832 1787 2061 1652 1973 2002 1979 2008 2027 1907 1890 1880 1777 1682 1625 1522 1486 1452 1326 1162 1251
33 223 288 247 136 30 20 82 89 357 183 32 0 0 0 2 0 0 0 189 277 607 810 1876 1877 2017 1620 1885 1894 1914 1877 1900 2207 2246 2025 2112 2172 1804 1813 1797 1764 1774 1584 1483 1444 1364 1260 1241 1024
62 169 152 232 62 34 54 301 363 128 213 70 0 2 9 3 0 0 0 92 295 473 1052 1437 2309 2120 1788 2040 1973 1947 1993 1898 2064 2306 1877 1836 1902 1929 1889 1851 1946 1888 1797 1708 1605 1505 1424 1132 1197
165 0 0 3 0 7 41 71 331 474 126 1 0 1 1 1 0 0 0 8 346 806 1069 1470 2022 1811 2032 1624 2077 1906 2161 1987 2062 2097 2175 2093 1989 2019 1936 1903 1862 1750 1463 1387 1518 1328 1280 1320 1144
197 0 0 0 7 14 151 176 346 263 31 13 20 1 3 1 0 0 0 47 402 855 1187 1354 1556 1263 1754 1865 1873 2223 1951 2288 2198 2142 2219 2062 2020 1942 1929 1901 1860 1649 1436 1245 1194 1240 1249 1088 1207
0 0 0 0 0 59 239 59 131 189 185 30 0 0 5 0 0 0 12 259 505 892 1114 1092 1112 979 1404 1570 1642 1933 1992 2057 2069 1889 1849 1791 1929 1885 1787 2012 2060 1559 1385 1286 1240 1251 1362 1398 1273
12 0 0 0 0 1 10 86 328 275 153 207 142 0 0 0 0 0 195 315 522 955 1033 1005 852 1069 1070 1157 1245 1710 1882 1821 1717 1526 1617 1447 737 942 1234 1424 1511 1400 1222 1124 1189 1443 1166 1214 1399
267 0 0 0 0 23 31 199 494 204 283 177 0 0 0 0 0 1 170 301 372 772 1152 832 796 914 955 1309 940 935 1190 1088 1083 1016 688 229 414 233 933 1452 1559 1309 1286 1416 1554 1409 1322 1188 113
377 0 8 0 34 26 61 181 180 327 348 223 0 0 0 0 0 8 177 310 362 697 1088 775 693 649 875 1084 624 579 657 714 674 221 0 0 78 233 756 794 981 209 318 259 188 399 550 442 278
239 252 221 141 53 71 123 152 329 408 429 253 0 0 0 0 0 27 233 333 391 667 895 599 485 510 562 465 495 450 530 521 448 16 0 0 146 353 490 483 348 378 155 267 271 217 475 297 28
38 164 112 235 233 145 36 238 462 421 393 135 0 0 0 0 6 64 200 341 360 475 587 386 327 391 269 258 296 269 310 391 410 0 0 12 132 298 423 463 147 219 220 93 0 159 40 49 39
0 7 24 1 10 65 40 251 403 423 304 68 2 0 0 0 60 85 87 220 269 317 290 187 273 314 39 83 37 129 116 180 249 124 0 41 0 114 223 399 312 297 236 66 1 98 0 12 47
0 0 0 0 0 0 13 0 22 375 189 96 25 0 0 28 98 131 71 132 125 136 111 58 185 209 0 37 0 0 0 60 96 261 39 76 0 182 610 393 272 142 88 2 90 205 51 5 47
0 0 0 0 0 0 10 0 547 281 130 123 109 22 5 30 133 169 92 30 47 40 27 11 182 200 0 20 0 0 0 0 0 215 213 143 173 229 270 296 218 175 100 176 209 157 164 67 56
0 0 0 0 0 2 23 77 473 324 172 139 150 117 100 91 166 168 95 61 14 0 0 0 16 120 3 0 0 0 0 0 0 208 280 253 345 668 398 285 308 283 238 383 288 196 368 75 83
0 0 0 0 0 0 12 49 418 332 251 221 194 161 135 105 180 165 124 50 50 0 0 0 0 61 23 0 0 0 0 12 11 155 252 313 613 820 516 408 204 190 112 113 133 6 0 0 7
0 0 0 0 0 0 0 8 423 271 221 222 202 165 117 92 102 107 155 81 37 5 0 0 0 0 55 0 33 0 0 6 174 223 258 240 490 946 554 288 457 186 0 349 22 13 0 0 0
0 0 0 0 0 0 0 2 439 301 221 232 199 171 149 103 86 71 73 148 18 14 0 0 0 0 114 0 145 0 0 0 0 52 186 171 448 774 768 712 604 376 116 378 171 44 0 0 0
0 0 0 0 0 0 0 43 14 334 281 280 260 182 141 116 108 86 63 78 51 0 0 0 0 0 109 61 0 18 0 0 5 9 219 107 395 744 1008 787 538 419 293 280 182 215 0 0 0
0 0 0 0 0 0 0 33 346 307 246 258 341 249 212 160 104 102 89 70 54 0 0 0 0 0 5 19 35 85 23 12 0 0 111 269 443 785 1153 729 559 519 638 478 339 296 0 0 0
0 0 0 0 0 0 0 0 36 273 262 256 314 346 352 279 196 112 111 114 118 23 0 0 0 0 0 13 30 17 0 0 22 1 41 319 467 766 1136 921 673 618 598 446 522 531 167 0 0
0 0 0 0 0 0 0 0 0 0 221 274 329 326 350 314 264 209 144 137 166 81 12 0 0 0 0 8 0 0 5 17 200 63 27 142 464 614 965 918 665 518 612 376 187 394 386 221 4
0 0 0 0 0 0 0 0 0 0 4 154 224 212 179 101 233 215 148 167 184 159 47 21 15 10 0 4 26 0 0 2 99 123 10 5 322 450 765 929 738 578 545 671 250 109 447 319 531
0 0 0 0 0 0 0 0 0 0 3 43 98 99 90 37 110 219 160 117 150 146 107 48 124 57 20 37 118 41 0 1 28 29 20 2 117 390 565 905 959 796 691 733 540 316 262 603 229
0 0 0 0 0 0 0 0 0 0 0 0 38 39 18 18 47 169 235 164 94 104 123 107 147 206 120 115 216 223 148 171 161 55 5 9 71 277 309 714 1067 1020 949 784 668 468 459 877 658
0 0 0 0 0 0 0 0 0 0 0 0 32 27 22 28 48 116 231 196 127 116 153 160 155 294 335 270 310 392 397 377 352 161 69 0 46 466 469 503 831 1038 1035 863 763 663 539 662 887
0 0 0 0 0 0 0 0 0 0 0 0 0 0 25 12 55 130 185 217 171 94 273 192 191 219 462 524 487 531 623 613 551 489 202 346 19 306 710 619 719 985 1021 950 853 923 816 704 804
0 0 0 0 0 0 0 0 0 0 0 0 0 0 13 122 192 204 170 162 215 163 320 391 270 279 371 677 619 665 808 954 998 741 318 157 411 187 335 767 797 971 1113 1041 965 983 1332 1048 916

GFSSGP_con_sbcape_042.txt.gz
CAPE
91 18 3 85 24 18 0 17 90 134 2 48 0 0 4 0 0 0 0 0 6 76 700 1156 1966 1912 1529 1932 2098 1983 1983 2083 2070 2219 2258 2053 1936 1777 1781 1882 1851 1832 1810 1679 1660 1424 1412 1144 1418
45 29 110 146 87 1 0 107 84 89 221 143 1 14 0 0 0 10 2 17 78 314 635 1116 1954 1912 1741 1885 1923 1959 2170 2027 2117 2051 2105 2060 1944 1948 1847 1928 1967 1949 1552 1296 1653 1322 1437 1415 1379
37 35 148 209 4 0 8 3 91 188 292 166 5 0 0 0 7 2 0 123 304 610 808 1275 1952 2065 1729 1862 1988 2234 1643 1892 2160 2027 1920 1855 1931 1880 1953 1973 1878 1796 1673 1501 1609 1322 1283 1203 1264
18 156 232 443 61 2 20 57 113 88 142 25 0 0 0 0 6 0 88 292 355 768 986 1819 1885 1628 1868 1810 1951 1790 1802 2141 2068 2070 1933 1785 1950 1857 1912 1856 1805 1645 1602 1649 1500 1273 1220 1058 1124
159 308 149 168 65 16 37 399 393 420 208 10 1 5 10 12 1 54 200 337 526 621 1007 1264 2137 1958 1923 1826 1894 1856 1989 2060 2062 2013 1752 1937 1897 1932 1912 1889 1829 1738 1664 1603 1599 1363 1156 1254 1127
249 1 17 2 0 18 118 188 107 393 103 0 0 3 9 16 9 78 188 319 526 780 1001 1275 1789 1598 2009 1864 1934 1814 1919 2086 2078 2137 2069 2064 2101 2041 1976 1884 1756 1600 1537 1482 1480 1441 1322 1270 1373
275 10 0 0 0 50 226 60 307 247 71 4 0 3 19 28 3 46 44 288 681 862 1045 1253 1056 1529 1742 1816 1810 2051 1862 2096 2048 2072 2212 2081 2038 2013 1921 1811 1619 1330 1243 1217 1279 1237 1214 1398 1403
25 0 0 0 0 115 75 84 154 126 86 1 0 0 8 7 0 0 73 231 617 944 1031 1119 852 907 1166 1494 1992 1875 2166 2245 2190 2146 2010 2010 1928 1794 1845 2056 1700 1390 1281 1225 1129 1115 1165 1334 1515
2 3 0 0 0 35 36 208 286 239 3 10 0 0 0 3 0 26 173 375 685 991 946 874 740 889 1000 931 1522 1807 1977 1863 1801 1658 1774 1362 800 831 1267 1596 1522 1287 1196 1305 1527 1450 1202 1229 1294
240 0 0 0 0 13 49 370 538 261 94 2 0 0 0 1 0 58 98 96 483 713 1057 735 715 846 878 1195 1004 1145 1367 1026 1026 913 527 372 476 419 1003 1497 1373 1284 1364 1647 1576 1430 1531 783 326
341 44 0 9 0 19 51 166 283 347 186 17 0 1 0 0 0 57 72 37 220 444 794 706 676 688 823 961 602 621 713 727 724 260 99 97 135 237 739 646 839 196 378 336 450 683 765 502 446
281 254 167 181 39 45 75 111 115 221 256 77 0 0 0 0 0 74 84 97 214 382 533 694 560 554 610 551 500 400 520 530 431 128 0 6 93 297 462 545 447 372 234 275 214 527 237 157 40
189 228 171 289 208 107 49 45 111 325 61 0 0 0 0 0 0 85 98 159 216 383 554 648 417 380 420 341 332 270 327 452 355 31 0 24 153 279 443 443 144 298 284 33 0 384 24 66 60
0 5 26 5 0 1 52 90 213 299 2 0 0 0 0 0 0 83 178 170 201 255 542 468 348 257 209 145 146 131 132 212 237 53 0 72 101 137 244 395 407 273 203 118 11 171 14 36 68
0 0 0 0 0 0 0 150 169 195 0 0 0 0 0 0 0 64 211 213 188 151 277 235 197 139 54 18 0 30 68 103 142 247 65 14 88 83 273 249 360 237 260 55 294 260 78 60 70
0 0 0 0 0 0 5 3 225 146 0 0 0 0 0 0 3 52 117 183 178 130 61 68 233 130 0 0 0 0 0 30 41 130 171 137 241 202 305 269 262 228 244 358 440 227 224 87 62
0 0 0 0 0 8 20 19 400 197 26 0 0 0 0 0 20 71 54 120 132 53 7 0 8 63 1 0 0 0 0 0 0 27 155 197 287 394 322 214 144 378 443 586 619 219 390 168 113
0 0 0 0 0 0 15 5 386 193 109 18 0 0 0 0 26 44 74 33 55 16 0 0 0 3 0 0 0 0 0 0 0 27 141 207 385 693 407 124 196 274 257 387 352 38 0 3 31
0 0 0 0 0 0 0 19 444 277 107 108 41 1 0 0 19 67 72 29 9 0 0 0 0 0 0 0 0 0 0 0 60 0 196 265 501 968 533 351 232 171 127 446 152 25 0 0 0
0 0 0 0 0 0 0 0 383 326 189 116 102 60 28 20 29 61 78 41 0 0 0 0 0 0 0 0 0 0 0 0 10 64 135 205 542 896 693 309 456 66 210 484 198 27 8 0 0
0 0 0 0 0 0 0 0 143 284 226 176 94 42 44 46 38 55 51 66 15 0 0 0 0 0 0 0 0 0 0 0 0 0 37 79 440 658 929 703 562 533 174 420 233 129 0 0 0
0 0 0 0 0 0 0 0 19 239 222 185 116 65 49 69 58 47 35 1 23 23 0 0 0 0 0 0 0 0 0 15 0 0 9 94 270 574 917 877 580 495 518 505 438 244 22 0 0
0 0 0 0 0 0 0 0 0 119 143 195 186 131 53 76 71 69 44 15 50 0 0 0 0 0 0 0 0 0 1 0 0 0 0 95 180 408 933 913 655 580 713 447 630 535 272 0 0
0 0 0 0 0 0 0 0 0 30 214 275 243 230 161 86 84 84 60 1 0 0 0 0 0 0 0 0 0 0 0 0 0 0 0 21 210 385 729 1009 740 672 644 637 627 602 410 274 5
0 0 0 0 0 0 0 0 0 0 214 252 246 250 250 162 122 109 77 52 26 0 0 0 0 0 0 0 0 0 0 0 0 0 0 0 102 309 550 798 727 591 572 723 395 382 691 474 523
0 0 0 0 0 0 0 0 0 0 0 274 282 252 212 205 180 155 121 84 49 40 0 0 0 0 0 0 0 0 0 0 0 0 0 0 62 314 519 699 822 715 668 722 655 333 339 663 518
0 0 0 0 0 0 0 0 0 0 0 0 125 187 169 187 174 170 189 143 77 54 16 0 0 0 0 0 0 0 0 0 0 0 2 0 7 223 441 628 927 906 827 844 820 727 719 758 765
0 0 0 0 0 0 0 0 0 0 0 0 0 42 120 127 38 78 129 111 118 87 89 0 0 6 9 0 0 5 0 0 1 1 0 0 2 255 384 507 795 989 1034 995 920 864 672 735 980
0 0 0 0 0 0 0 0 0 0 0 0 0 20 72 84 14 8 57 146 109 109 113 49 18 28 28 45 53 88 97 72 117 90 24 0 0 155 332 398 576 899 1069 1142 1067 1121 1018 846 962
0 0 0 0 0 0 0 0 0 0 0 0 0 2 60 82 49 0 18 107 121 74 94 74 58 65 139 134 148 178 244 266 267 264 128 86 8 145 417 513 565 713 947 1047 1151 1218 1353 1181 1142

GFSSGP_con_sbcape_045.txt.gz
CAPE
21 8 13 114 43 61 9 87 137 184 0 27 0 0 3 5 2 6 7 4 14 111 705 1173 1807 1897 1866 2025 1990 2194 2300 2105 2193 2180 2108 2284 1985 2000 1944 1831 1892 1857 1760 1722 1577 1511 1222 1403 1778
15 11 84 113 25 46 66 130 139 154 57 172 0 5 23 11 0 9 13 19 14 134 844 888 1724 2105 1910 2031 2270 2105 2166 1905 1982 2131 2176 1934 1912 1879 2000 1880 1712 1604 1552 1689 1424 1513 1602 1627 1752
20 16 148 142 57 4 52 42 93 296 353 28 0 20 2 1 3 2 1 27 87 383 938 1228 1661 1968 1781 1732 2126 2127 2094 2119 2101 2126 1958 1907 1783 1723 1744 1805 1713 1624 1399 1759 1418 1418 1177 1238 1095
13 95 196 276 113 13 28 66 47 304 154 87 28 29 1 5 6 2 30 42 212 644 666 1460 1538 1812 1944 2056 2019 1740 2067 2140 2081 2032 1994 1832 1930 1932 1862 1819 1712 1710 1691 1547 1328 1368 1247 1282 1259
112 382 184 311 92 86 70 339 364 498 310 42 0 3 11 9 5 13 68 109 254 397 836 1000 2054 2172 1790 1949 1723 2108 2067 1803 1834 1779 1959 1993 1997 1955 1930 1806 1759 1696 1619 1505 1404 1260 1269 1162 1222
346 23 40 9 16 32 326 263 374 609 33 0 0 3 10 21 18 47 75 165 337 360 773 1244 1700 1795 2016 1885 1873 1942 1953 1908 1990 2079 2097 2031 2056 2019 1901 1758 1611 1516 1572 1566 1460 1406 1361 1185 1436
401 68 5 0 6 120 374 197 473 605 93 21 0 2 22 33 37 54 114 269 428 470 768 1372 906 1624 1812 1781 1833 1864 1892 2063 2104 2226 2145 2110 2007 1952 1835 1614 1400 1315 1315 1293 1182 1266 1403 1376 1354
184 0 0 20 41 236 148 236 369 380 130 0 0 0 21 11 35 108 183 280 529 549 1022 1286 1025 1573 1593 1727 1852 1798 1911 2003 2234 2129 2041 2008 2030 1957 1862 2045 1820 1271 1086 915 997 1219 1185 1435 1712
13 38 119 1 19 145 65 353 374 204 15 13 0 0 0 11 40 118 201 392 683 712 1059 934 1354 1322 1814 1840 1784 1858 1860 2012 1920 1929 2185 1944 1851 1775 1326 1561 1374 1281 1220 1454 1453 1025 1196 1403 1628
385 139 55 0 0 57 84 682 626 285 63 6 0 1 7 18 17 84 136 221 431 680 1004 909 903 1051 1366 1469 1729 1809 1498 1311 1474 1761 1876 1925 1649 1455 1124 1160 1416 1387 1446 1361 1653 1768 1337 783 1208
265 128 19 0 0 25 131 658 582 320 157 64 0 4 6 16 39 35 58 134 235 546 984 1204 950 1404 1157 1369 1509 1564 1477 1471 1651 1699 1223 1495 1340 1350 1326 1125 1334 928 840 1035 1315 1404 1170 1410 849
355 340 224 186 21 22 50 199 319 445 402 201 0 0 3 7 37 65 51 146 229 385 723 1220 947 1328 1177 1407 1347 1444 1331 1341 1236 990 1055 1259 1056 1302 1351 1058 1176 1133 1096 1280 1246 1359 1010 802 994
192 333 289 244 179 157 175 180 136 313 320 64 0 0 0 1 6 17 25 93 308 466 693 1026 1062 1175 1292 1425 1195 1227 1272 1128 981 780 461 731 988 1492 1353 1212 927 1140 1267 878 1068 1084 710 869 555
0 79 192 51 114 80 113 87 105 380 55 0 0 0 0 0 0 6 75 90 181 288 422 896 1076 998 1169 1001 1299 1118 1097 955 842 713 299 702 1142 1462 1625 1912 1221 1446 1473 1240 1241 752 539 752 1040
0 0 0 0 0 3 2 49 224 197 76 18 0 0 0 0 0 6 83 141 136 202 381 778 966 911 1016 983 1006 770 655 670 927 1159 469 559 1103 1080 1442 1573 2036 1451 1356 1034 1491 1268 839 546 803
0 0 0 0 0 0 0 104 234 145 141 35 0 0 0 0 0 24 46 111 201 273 361 751 616 673 708 706 732 466 347 502 899 1115 1243 1124 1063 1078 1762 1618 1462 1424 1318 1239 1344 1187 630 475 397
0 0 0 0 0 38 47 113 369 180 206 62 1 0 0 0 0 22 70 117 228 428 453 538 690 625 539 571 511 363 338 481 725 883 1024 1286 1293 1295 1678 1525 1576 1675 1638 1639 1400 1478 1259 805 303
0 0 0 0 11 21 93 114 628 435 195 64 8 0 0 0 0 31 80 171 379 469 453 420 568 673 633 496 601 299 63 246 598 749 863 1128 1301 1383 1803 1562 1619 1552 1896 1447 1412 416 84 660 646
0 0 0 0 0 26 116 126 522 623 389 116 6 0 0 0 0 27 95 188 404 482 421 425 449 683 518 385 364 248 79 193 512 828 1154 1343 1361 1638 2002 1651 1546 1596 1593 1547 1423 490 261 93 107
0 0 0 0 0 2 45 99 137 630 598 423 78 1 0 1 1 35 121 151 281 471 440 458 429 681 684 428 674 234 468 639 911 1250 1399 1468 1423 1901 2127 1891 1652 1625 1472 1785 1431 1109 75 64 55
0 0 0 0 0 0 0 2 0 531 582 531 415 83 2 5 16 29 122 235 200 355 420 454 556 671 754 762 581 608 742 747 835 1147 1464 1489 1479 1864 2255 1946 1683 1674 2060 2382 1712 1157 331 46 137
0 0 0 0 0 0 0 8 14 38 605 582 528 447 230 30 12 16 113 223 213 267 303 600 632 633 681 930 794 1192 578 607 777 1004 1215 1565 1561 1638 2017 2288 1956 2148 1678 2021 1725 1475 734 291 163
0 0 0 0 0 0 0 0 6 83 177 493 611 552 462 310 142 92 95 206 196 240 219 196 684 975 1086 1172 1192 936 1017 657 858 806 1243 1728 1690 1629 1699 2035 1986 2236 2148 2030 1993 1923 1648 331 79
0 0 0 0 0 0 0 0 0 0 131 421 555 602 591 451 366 281 184 206 219 213 225 208 648 933 1059 1009 1012 1513 1674 1231 810 944 814 958 1310 1431 1625 1819 2113 2138 2024 2143 2087 2170 1972 1592 691
0 0 0 0 0 0 0 0 0 0 15 148 441 620 624 569 465 396 296 256 306 528 378 489 591 720 811 957 1125 1245 1592 1797 1449 1265 835 957 748 1191 1594 1928 2111 2054 2300 2231 2093 2234 1952 1961 1566
0 0 0 0 0 0 0 0 0 0 0 25 224 455 594 673 549 489 380 533 567 654 802 423 694 771 791 856 1183 1374 1575 779 757 1244 722 691 534 768 1422 1933 1927 2112 2230 2225 2196 1979 1986 1975 1947
0 0 0 0 0 0 0 0 0 0 0 0 32 279 587 733 662 581 491 527 713 683 735 786 840 811 771 543 1077 1279 1408 1365 990 1538 1246 747 1192 600 1326 1760 1886 1980 2083 2212 2292 2054 2301 2105 2270
0 0 0 0 0 0 0 0 0 0 0 0 0 88 406 624 768 691 640 606 748 633 686 748 773 864 867 760 882 936 1221 1322 1374 1376 1444 1406 903 991 990 1783 1893 2061 2097 2225 2394 2086 2313 2550 2347
0 0 2 0 0 0 0 0 0 0 0 0 0 0 107 471 703 765 902 910 777 553 685 772 667 908 835 847 882 1011 981 1012 1143 994 1094 1594 1159 1319 1550 1862 1947 2063 2133 2249 2476 2396 2245 2552 2633
0 0 0 44 0 0 0 0 0 0 0 0 0 0 1 189 495 755 816 799 818 999 892 766 840 634 821 869 968 975 964 1021 875 1264 997 1387 1669 1389 1620 1702 1908 2031 2060 2141 2333 2266 1998 2454 2522

GFSSGP_con_sbcape_048.txt.gz
CAPE
13 7 17 92 320 268 139 254 582 541 212 137 2 10 63 97 240 490 174 214 2 159 477 1000 2031 1959 2256 2241 2071 2200 1939 1994 1993 2058 2333 2061 1999 2007 1748 1847 1872 1868 1895 1753 1572 1355 1542 1702 1184
7 12 53 214 68 181 240 393 407 382 290 45 54 13 93 150 31 72 170 89 121 94 183 702 1909 2146 1943 2103 2295 2294 2236 2220 2220 2099 1977 2109 1920 1669 1904 1991 1811 1799 1720 1593 1633 1747 1801 1849 1671
6 3 65 39 137 98 229 422 622 381 346 45 164 220 238 179 50 144 153 57 12 90 137 1304 1852 1983 2088 2117 2139 2148 1809 1972 1960 1874 1951 1994 1914 1898 1934 1856 1584 1526 1741 1564 1510 1283 1324 1228 1271
0 157 94 163 150 17 185 296 103 627 138 162 221 315 129 51 81 170 111 3 65 168 244 1360 1760 1883 1732 1955 2067 2003 2005 2040 2029 1950 1977 1888 1855 1728 1926 1840 1928 1791 1674 1448 1500 1293 1320 1394 1461
64 562 110 525 257 360 93 127 532 660 510 187 127 205 24 11 25 134 34 4 101 163 398 1140 1894 2290 1786 1920 1919 1981 1984 1998 2082 1952 1949 1697 1829 1978 1862 1838 1760 1787 1536 1467 1415 1274 1232 1394 1669
409 185 424 43 79 162 688 640 391 656 232 166 234 64 13 25 29 159 21 40 61 168 305 947 1559 1800 1725 1677 1916 2046 1966 1904 2009 2039 2045 2105 2094 2013 1888 1750 1685 1719 1667 1516 1396 1348 1212 1502 1837
688 649 490 177 46 126 613 541 634 574 261 303 100 160 37 85 74 156 73 35 70 180 415 714 1289 1622 1581 1993 1884 1909 1843 1927 2093 1925 2157 2194 2085 1863 1721 1555 1522 1462 1345 1188 1105 1236 1329 1397 1894
789 278 219 82 185 555 555 785 522 416 457 46 60 308 91 139 91 79 72 94 95 200 565 507 898 1092 1428 1505 1792 1861 2020 1871 2071 2153 2138 2104 2036 1839 1616 1934 1793 1173 990 1095 1234 1129 1281 1645 1780
512 411 413 92 196 649 410 388 303 227 72 143 80 46 123 103 117 67 119 99 138 196 625 284 756 1130 1407 1424 1722 1846 1859 2053 2053 2101 2188 1859 983 871 1343 1770 1411 1411 1292 992 979 1110 1338 1563 1749
345 241 109 120 92 265 423 416 583 615 358 117 43 36 89 63 103 118 121 147 89 203 488 365 1099 1065 1405 1158 1589 1699 1597 1385 1332 1496 1585 1183 1061 1059 765 1365 1437 1240 1236 1597 1605 1322 1205 1410 1261
245 181 197 106 67 362 898 973 1032 721 625 336 119 127 32 114 201 200 100 59 54 149 197 243 694 887 1329 1813 1524 1419 1031 1226 1474 1641 1426 1286 1008 531 796 1161 1228 1091 1240 1201 1386 1515 1098 1095 942
29 188 244 185 133 328 445 597 661 365 753 576 127 138 132 95 100 123 57 13 28 115 245 235 568 898 1061 1320 883 822 823 859 965 1105 1467 1456 1171 956 826 970 990 1100 1064 1115 1174 776 966 886 1309
0 155 441 173 194 184 168 380 209 520 679 455 131 95 79 42 64 74 43 12 65 135 312 285 552 1028 1132 1379 873 813 901 908 844 1043 1179 866 964 1219 1108 1201 1043 1030 971 813 843 758 854 1206 988
0 1 317 244 455 296 225 315 142 478 693 466 214 127 76 51 65 80 43 8 116 153 285 367 497 886 1110 1244 1273 1363 1133 1049 821 705 672 1235 1290 1794 1061 954 1182 1506 1145 974 794 684 375 164 492
0 0 0 24 108 268 207 176 209 764 604 517 390 186 110 47 81 87 65 56 117 145 319 426 503 637 1000 1156 1322 1038 905 747 992 954 1181 1573 1799 1905 1114 1118 1079 1401 1313 1365 1057 663 355 116 148
0 0 0 0 6 108 182 293 459 701 704 636 452 217 109 55 62 76 73 58 102 55 207 490 257 274 711 786 934 584 669 906 1080 1266 1352 1433 1686 1718 1696 1067 1155 1385 1035 790 341 120 446 400 82
0 0 0 0 35 255 260 338 793 606 703 704 526 297 126 65 56 62 77 58 17 72 230 495 426 259 378 652 518 552 785 970 1097 1152 1236 1859 1741 1829 1727 1300 1942 1474 1064 1088 454 234 304 149 74
0 0 0 0 57 346 384 337 815 629 725 758 609 417 206 91 63 53 51 51 60 99 217 470 497 479 528 479 523 361 651 990 1131 1199 1207 1747 1698 1854 2113 1553 1382 1242 753 967 959 529 314 202 87
0 0 0 0 0 195 373 364 518 878 714 688 658 518 291 167 62 47 48 42 94 176 425 440 562 744 706 397 183 371 604 683 901 973 1370 1914 1794 1971 2410 1870 1118 1258 795 862 1220 585 952 176 133
0 0 0 0 0 32 315 359 310 994 851 697 603 470 288 121 75 41 56 112 158 321 502 637 665 893 975 273 439 338 553 511 770 1234 1837 2006 1957 2198 2085 1594 1157 1449 1425 819 867 1161 220 111 101
0 0 0 0 0 0 73 290 293 410 917 843 637 464 302 131 138 109 108 164 219 468 620 776 906 943 1039 707 222 556 640 916 1199 1529 1541 1857 2027 2167 2243 1626 1430 1050 1192 976 1255 1352 681 113 222
0 0 0 0 0 0 3 140 202 229 712 831 946 649 382 231 137 189 234 311 268 450 664 826 1088 1101 989 879 796 1619 754 687 496 1046 1049 1642 2084 2062 2227 2307 1777 1503 1895 1309 1268 1243 404 728 137
0 0 0 0 0 0 0 14 121 216 254 797 858 904 584 358 251 238 326 428 354 338 602 857 1161 1594 1695 1298 1435 756 1000 101 304 719 1313 1832 2356 2136 1928 2287 1667 1683 1369 1729 1796 1868 1550 270 224
0 0 0 0 0 0 0 9 36 125 225 290 669 685 806 697 434 338 355 481 524 426 509 751 1638 1795 1564 1265 986 1739 1444 859 521 1118 898 978 1180 1839 2159 2227 2398 1705 1464 2030 1811 1748 2065 1383 666
0 0 0 0 0 0 0 0 1 23 82 189 332 595 733 831 851 577 441 476 629 639 522 555 1409 2193 1792 1137 1295 1128 1517 1801 1513 1331 1053 1410 572 819 1605 2403 2667 2297 2259 2170 2048 2069 2180 2104 1509
0 0 0 0 0 0 0 0 0 0 0 7 176 294 621 800 892 940 796 543 653 717 653 631 1173 1817 1837 1575 2257 2422 2191 967 978 1494 1062 834 541 546 877 2160 2208 2414 2371 2425 2527 2549 2147 2071 2077
0 0 0 0 0 0 0 0 0 0 0 0 0 98 212 672 896 1044 1062 867 690 813 1241 1360 1688 1749 1532 1136 2209 2423 2344 2152 1370 2390 1474 1063 1541 642 866 1173 1930 1920 2205 2440 2495 2037 2485 2298 2400
0 0 12 3 4 0 0 0 0 0 0 0 0 3 111 581 905 1044 1107 1086 870 824 882 900 968 1559 1342 1144 1292 1429 1461 2092 1981 1753 2192 1843 1234 1471 948 1358 1414 1604 2092 2312 2612 2125 2365 2612 2476
0 0 4 25 4 0 0 0 0 0 0 0 0 0 26 395 869 1063 1116 1135 1074 870 862 970 1047 1205 1362 1469 1710 1711 1429 1377 1615 1517 1629 1792 1766 1660 1930 1414 1365 1792 2232 2401 2644 2476 2122 2714 2755
0 0 7 42 20 2 4 15 0 0 0 0 0 0 24 124 577 887 952 1032 1111 1095 941 953 1026 1083 1236 1862 2306 1683 1770 1762 1350 1712 1629 1883 1967 1939 2036 1862 1740 1707 1867 2348 2690 2608 2041 2510 2636

GFSSGP_con_sbcape_051.txt.gz
CAPE
0 0 35 31 168 359 485 324 590 310 396 241 111 84 264 246 352 406 125 98 32 504 753 1166 1745 1897 1772 1845 1799 1921 2072 2127 2091 2205 2215 2154 1970 1812 1857 1920 1921 1924 1810 1631 1475 1702 1610 1203 1860
11 16 24 329 507 111 385 440 695 463 379 110 106 99 250 363 234 145 165 256 96 516 559 890 2168 2303 2230 2084 2389 2047 1968 2212 2182 2312 2053 1954 1796 1976 1946 1915 1913 1785 1669 1703 1901 1819 1788 1617 1444
22 3 32 137 266 295 489 595 513 462 148 248 242 264 719 245 235 305 287 43 218 162 306 1620 2119 2246 2143 2177 2244 2293 2270 2121 2072 2060 2008 1890 1715 1979 1842 1660 1671 1759 1623 1542 1447 1483 1332 1362 1614
0 39 270 332 495 133 290 594 624 517 80 247 569 393 268 276 151 146 62 164 59 104 595 1606 2047 2088 2143 2225 2105 2067 2069 2035 1918 2009 1904 1913 1848 1931 1973 1838 1712 1683 1510 1614 1378 1459 1492 1467 1446
11 573 544 438 668 357 190 734 921 520 544 602 291 539 324 100 152 211 213 76 82 304 568 1114 2284 1896 2001 2113 2088 2084 1932 1993 1994 1977 1958 1846 1897 1902 1797 1821 1856 1467 1519 1528 1246 1349 1483 1546 1510
428 596 792 510 346 355 122 317 581 542 536 391 590 136 111 146 64 110 126 83 95 207 292 1103 1814 1900 1908 1961 2073 1941 1987 2050 1903 1847 1744 1777 1861 1949 1846 1818 1705 1651 1530 1435 1222 1314 1560 1743 1831
449 912 590 342 325 330 685 687 555 453 336 516 221 305 181 165 87 36 67 88 90 94 377 865 1195 1513 1724 1999 2092 1852 1669 1753 1823 1865 2128 1931 1909 1767 1666 1671 1560 1336 1117 1035 1249 1312 1494 1818 1737
464 457 306 372 42 534 730 982 758 483 198 140 144 413 250 182 71 16 45 77 115 151 93 456 675 1125 1144 1582 1949 1932 1858 1609 1866 2082 2141 1949 1729 1626 1547 1857 1551 1140 1256 1225 1159 1219 1565 1728 1743
437 330 646 257 313 1012 960 984 390 518 107 168 321 470 331 123 41 28 36 60 125 146 94 298 402 706 1930 1587 1767 1933 1835 1848 2108 1902 2047 2159 876 1378 1558 1956 1426 1137 899 1024 1091 1223 1463 1571 1762
368 180 126 125 302 554 809 631 504 159 351 431 414 491 186 76 89 19 41 50 142 174 82 101 339 819 1127 711 1468 1577 1346 1100 1276 1055 1904 1803 1572 1225 895 1213 1250 1207 1275 1462 1231 1121 1150 1395 855
142 71 103 225 231 611 923 583 540 437 483 393 318 380 141 127 115 63 101 89 74 145 76 200 899 1040 1160 1228 1257 1211 1268 1277 1897 1271 1654 1085 576 566 1117 974 1032 1064 1092 1503 1559 1636 1229 556 865
61 84 22 150 330 623 743 890 847 640 415 359 299 280 170 358 219 93 113 75 81 142 74 272 330 981 1150 864 1019 1275 978 607 620 968 1098 1322 2295 1529 1781 1597 766 1195 1145 646 228 349 583 919 1428
17 23 348 440 439 350 565 418 347 283 614 373 301 235 254 299 225 182 127 111 114 86 56 206 214 1129 1439 2217 1268 480 474 410 745 1051 1149 1538 1680 1531 1631 1024 1145 1176 1314 800 935 420 1112 175 294
0 0 248 495 260 263 135 253 293 380 604 502 414 344 281 318 283 204 184 115 118 55 55 104 367 833 1439 1701 879 1221 1095 1451 534 630 925 1193 1586 2448 1266 1111 1691 1993 210 808 1079 1295 457 555 162
0 0 1 370 452 281 194 155 429 517 755 599 560 449 308 227 212 200 142 107 101 44 59 181 432 769 1075 1858 1033 1807 1208 465 968 1007 1407 1521 1661 1609 1694 1885 888 1684 1362 929 562 225 767 132 683
0 0 14 125 280 215 362 182 286 817 834 798 696 491 376 249 159 175 132 108 129 29 138 303 210 553 933 1054 1137 773 667 922 1264 1578 1458 1596 1562 1520 1782 1270 715 1324 1576 1445 303 238 402 248 379
0 0 0 1 148 186 288 137 4 759 865 876 853 598 441 327 206 200 142 99 111 13 188 367 278 484 795 1147 1032 855 911 1509 1726 1572 2073 1867 1920 1678 1595 1548 1406 1414 1572 1144 936 143 51 614 180
0 0 0 0 88 138 223 408 312 709 860 949 926 637 512 362 258 227 150 128 102 26 125 436 334 1183 1600 1077 1029 778 783 977 1215 1242 1663 1885 1617 1685 1843 1596 1301 1624 363 941 1211 820 405 402 97
0 0 0 0 10 135 168 272 194 706 823 942 933 812 552 474 312 277 176 114 71 55 79 501 959 2144 1078 674 698 720 735 861 1141 2040 1633 1841 1555 1618 1918 1305 1453 1496 1218 2190 730 462 443 73 89
0 0 0 0 7 184 296 239 398 672 700 951 933 921 599 499 357 322 238 154 66 64 169 1040 1528 2454 1494 716 1255 1061 1316 673 691 747 1819 1846 1786 1878 1237 1869 2296 1122 1500 1339 969 1119 742 47 488
0 0 0 0 0 0 92 206 359 680 699 893 882 844 756 507 446 348 262 188 115 167 328 1145 1975 2405 1942 1425 982 1092 1300 1060 666 1751 1522 1894 1924 1961 1827 1511 2144 1447 2175 1099 1308 1189 1964 457 27
0 0 0 0 1 9 0 91 262 392 744 852 852 769 779 517 494 387 292 251 164 230 340 1428 1669 2426 2003 2190 690 1703 906 535 359 965 991 1679 1860 1969 1932 1784 1814 1549 1343 2428 1591 1448 1806 1390 318
0 0 0 0 0 0 0 50 99 393 388 757 948 810 663 660 396 408 336 334 285 281 473 623 2127 2486 2333 2246 1710 1056 1409 423 387 281 2998 2150 3072 1981 1904 1798 1925 2122 1598 1723 1773 1837 1833 395 2106
0 0 0 0 0 0 0 24 68 140 265 528 698 924 776 619 524 404 423 378 381 358 498 1001 2252 2799 2724 2508 2016 2354 1605 1508 212 635 1230 1077 1420 1692 2217 2057 2160 2057 1819 2262 1973 1852 1758 2307 1160
0 0 0 0 0 0 0 0 6 74 192 182 551 769 895 650 613 536 476 488 740 945 922 1361 2287 2857 2726 2458 1834 2039 2418 2256 2535 2160 646 1042 518 701 2912 3106 2825 2276 2236 2107 2213 2420 2068 1858 1602
0 0 0 0 0 0 0 0 0 0 74 9 71 542 720 765 617 601 625 600 1107 1236 1386 1456 2285 2868 2901 2315 2256 2073 2413 662 194 1373 777 519 336 506 3533 2537 2185 2421 2516 2176 2778 2188 1983 2350 1860
0 5 0 0 2 0 0 0 0 0 0 9 1 276 314 713 829 776 683 708 1098 1287 1619 1617 2264 2767 2768 1498 2390 2653 2397 1627 540 1169 2406 1517 1865 634 1654 2309 2203 2234 2041 2811 3266 1823 2405 2750 2486
0 0 8 2 4 3 22 3 0 0 0 0 0 17 270 430 769 872 948 845 817 927 1244 1463 1796 2570 2651 2123 2406 2427 2591 2774 2210 2527 3129 2310 2347 2502 1366 1749 1787 2049 2503 2703 3776 2631 3186 3130 2309
0 0 0 16 22 5 21 12 5 0 0 0 0 0 57 185 603 842 1017 1122 977 915 1028 1150 1487 2011 2153 2347 2348 2005 1994 2142 2524 2859 3057 3072 2771 3157 2950 2433 2315 2322 2293 2936 3858 3620 2704 2769 3373
0 0 0 9 12 16 0 21 10 15 0 0 0 0 0 61 434 842 941 1199 1270 1145 1031 1192 1127 1158 1735 2041 2692 2326 2195 2141 2092 2457 2875 3291 3450 2907 3098 3081 2904 2621 2453 3352 3583 2795 2274 2751 2935

GFSSGP_con_sbcape_054.txt.gz
CAPE
1 0 1 40 77 215 464 376 458 289 308 106 105 262 237 303 213 487 4 148 234 301 404 1096 1804 2292 1992 2031 2281 2320 2336 2159 1963 2258 2249 2006 1867 1965 1960 1998 1774 1846 1643 1648 1822 1319 1404 2012 1894
0 0 35 357 513 176 349 327 566 338 139 125 197 265 228 181 116 19 124 102 340 312 618 884 1979 2107 2128 1846 2069 2005 1977 2014 2353 2153 2110 1936 1986 1963 1908 1930 1762 1859 1977 1850 1945 1869 1614 1488 1915
205 23 56 200 188 297 503 495 482 296 129 94 602 415 224 47 0 21 70 166 355 564 860 1321 2166 2521 2264 2341 2235 2593 2335 2228 2145 2167 1974 1724 1988 1916 1708 1740 1792 1713 1618 1567 1601 1448 1517 1610 1823
36 17 476 555 414 350 249 442 310 188 407 542 445 345 233 3 49 45 74 266 442 631 1044 2098 2513 2274 2282 2253 2313 2167 2134 2036 2097 2193 2130 1959 1841 1984 1962 1735 1702 1625 1693 1536 1620 1629 1568 1393 1555
8 573 559 329 477 306 475 356 610 566 672 462 638 315 95 74 153 0 46 176 84 576 720 1541 2592 2427 2389 2166 2156 2119 2121 2055 2067 2021 1896 1799 1906 1784 1800 1908 1337 1631 1609 1428 1511 1555 1544 1515 1601
188 334 556 287 198 410 184 575 747 467 299 476 400 231 176 93 6 24 112 125 373 335 461 1161 2037 2307 2408 1970 2025 2253 2010 2002 1987 1973 1919 2153 2188 2351 2234 1652 1634 1590 1455 1256 1429 1609 1712 1678 1619
83 596 631 189 162 525 123 317 371 206 192 235 137 191 198 23 33 95 65 69 52 73 562 909 1259 1764 2052 1926 1919 2000 1851 1910 2132 2348 2020 2596 2298 2089 1907 1869 1526 1137 1073 1299 1395 1555 1787 1553 1129
0 430 159 151 114 517 359 382 189 18 41 143 178 179 181 72 68 55 67 23 12 204 314 749 1105 975 1461 1533 1820 1730 1779 2298 1986 2050 2132 2450 1983 1552 1428 2066 1784 1292 1184 1231 1340 1570 1724 1709 1298
6 155 427 57 254 449 764 789 132 139 273 215 175 367 159 45 22 40 72 15 60 32 66 266 504 1008 1951 1817 1825 1787 1798 1853 2051 2019 2321 1817 1382 1598 1418 1889 1337 1000 1195 1310 1340 1493 1473 1561 1498
3 237 122 11 17 606 523 628 572 361 257 240 406 350 103 30 41 52 58 15 43 7 38 14 447 976 1420 764 1910 2044 1715 1567 1486 1409 1579 2198 1201 1898 902 1346 1581 940 997 1549 1985 1690 550 223 717
0 86 25 2 108 362 563 535 231 106 222 432 442 243 102 10 11 37 45 69 61 45 46 58 1053 994 1009 1335 1625 1505 1538 1555 1636 716 499 2052 1756 883 1036 1205 1213 434 1098 1172 1305 897 60 13 223
4 30 66 78 194 702 596 465 487 50 270 157 368 173 76 31 11 23 47 88 70 57 239 551 672 1239 1049 1128 1595 56 1551 1284 1280 956 1237 2189 2021 1158 1119 627 810 390 963 1664 664 857 113 928 839
4 15 17 251 274 575 912 417 251 100 257 150 267 118 33 55 33 24 63 87 79 45 63 659 1318 641 543 2096 1973 121 597 775 1338 1293 502 515 1848 1789 2278 411 323 1516 463 846 496 1649 1110 1133 900
3 15 16 152 365 401 619 152 245 149 204 359 195 113 91 72 44 89 132 115 101 52 94 412 1140 1599 1230 1330 1703 786 1308 677 1046 1013 1193 527 1655 2261 2606 2590 758 894 406 970 47 1547 1450 319 807
0 0 0 0 415 324 327 133 270 492 229 399 201 199 152 76 79 156 170 146 99 53 129 207 1205 919 1503 1241 2402 2148 299 877 1529 1599 2044 2386 2430 2707 2414 2519 417 229 1351 2376 2089 1593 75 1198 583
0 0 0 0 318 364 327 54 56 301 89 448 325 276 266 113 94 93 142 103 89 52 458 219 36 958 1606 1389 2198 1086 1262 1355 1888 1910 2151 2612 2347 2214 2052 1966 1999 1702 1695 324 20 66 997 326 917
0 0 0 0 45 285 360 345 421 180 173 612 527 280 208 203 166 140 77 123 98 327 642 364 867 961 1234 1370 1651 441 669 769 630 2391 1990 3121 2259 1722 1174 836 2335 309 134 832 1326 1142 724 1553 420
0 0 0 0 0 151 126 175 456 307 12 639 683 421 274 101 146 147 53 91 110 354 822 589 958 1741 1671 1926 2520 2234 1021 1614 1547 1444 2393 3107 2783 1674 1261 1337 2033 2356 243 194 1200 662 121 1078 333
0 0 0 0 0 132 169 87 3 14 1 470 727 537 395 163 143 195 91 66 138 92 563 1203 1479 2134 1481 1339 1386 1154 1256 411 573 1500 1726 2931 2810 2198 554 1251 1968 1804 1654 568 2552 1443 1357 1080 120
0 0 0 0 0 54 390 131 68 0 143 367 678 469 357 269 244 265 134 70 94 163 504 1287 1504 1931 1408 1468 1683 1931 844 1485 1209 235 2733 2719 2168 2876 2533 2086 2175 606 1785 2571 2372 1735 2171 696 1507
0 0 0 0 0 12 35 46 0 0 5 33 438 382 388 455 409 417 170 108 136 258 487 1055 1667 1789 1435 1830 1453 2680 2850 2110 1394 2433 2406 2707 2240 2781 2357 2431 2643 3004 2294 2353 2444 2391 1760 1535 551
0 0 0 0 0 3 3 26 75 203 127 6 39 482 402 481 481 512 310 234 101 352 450 1000 1600 2087 1427 2081 1197 1908 1518 1563 973 1593 1613 2521 3103 2521 3131 2825 2692 1881 1764 1682 2874 2456 1874 569 1707
0 0 0 0 0 0 1 5 0 608 144 2 20 839 543 545 459 518 364 384 149 389 435 705 1378 2157 1507 1517 1683 1354 1703 1416 2347 1572 2453 2698 3473 3457 2917 3136 3310 2922 2539 2901 2676 2675 2496 2738 1871
0 0 0 0 0 0 0 0 0 133 190 12 111 313 465 512 533 518 530 460 317 414 387 826 1151 1675 1967 1535 1737 1803 1375 2176 1621 1623 2021 2240 2554 2818 3224 2738 3514 3619 2674 2622 2680 2886 3043 2766 2517
0 0 0 0 0 0 0 0 0 0 520 236 6 0 39 812 583 614 609 559 511 354 521 836 1213 1249 1712 1816 1248 2210 1438 1505 2613 2759 1980 1751 1955 1749 2832 3118 3350 2883 3209 3041 2999 2989 3316 3095 2840
0 0 0 0 0 0 0 0 0 0 28 302 111 58 96 723 620 604 585 616 567 473 632 762 1417 1445 1507 2029 1329 1464 2130 983 1259 2149 1395 2169 1929 1830 2625 3166 2742 3324 3277 3199 3339 2713 2754 2954 3067
0 1 0 0 0 0 0 0 0 0 0 150 55 159 46 52 443 598 714 681 715 722 714 1073 1431 1685 1808 1462 1878 1168 1967 1786 757 1615 2109 2256 2074 1772 2696 2876 3369 3243 3213 2918 3410 2710 2901 3155 3278
0 0 2 0 0 0 0 0 0 0 0 0 63 9 8 91 35 295 776 822 1007 872 1026 1056 1552 1737 1959 1688 1740 1488 991 1543 1617 601 1661 1628 2803 2596 2857 3060 2878 3165 3395 3274 3465 2930 2992 3475 3007
0 0 0 0 2 0 0 0 2 69 0 0 146 95 2 94 153 154 150 1012 1063 1091 1297 1119 1400 1866 2135 2123 1659 1501 1263 1185 998 1587 538 2529 1910 3855 3283 3613 3248 2900 2952 3459 3681 3107 2973 3143 3321
0 0 0 0 0 1 0 0 0 29 1 0 0 6 280 467 328 86 3 0 1083 1184 1218 1315 1268 1882 2069 2188 1804 1581 1615 1224 1139 644 2176 1973 3313 2782 4287 3302 3819 3032 3009 3089 3202 3196 2062 2772 3186

GFSSGP_con_sbcape_057.txt.gz
CAPE
4 1 0 5 3 21 108 133 4 149 80 60 111 97 155 185 204 38 0 100 172 62 471 1261 2046 1975 2149 2335 2345 2371 2089 1962 2184 2266 2399 1978 2141 1985 2079 1899 1808 1540 1953 1897 1223 1781 2053 1847 1924
1 0 3 49 13 193 78 237 82 157 89 130 193 31 47 11 0 0 46 139 156 247 704 1117 2005 1971 2018 2181 2385 2457 2119 2252 2219 2161 2219 2034 1941 1989 1875 1853 1995 1971 1935 1920 1831 1561 1669 1926 2127
7 46 13 63 64 94 93 228 267 141 372 397 287 141 5 0 0 21 33 186 69 466 658 1084 2255 2317 1991 1890 1953 2563 2378 2155 2106 2070 1882 2065 1896 1749 1785 1838 1679 1565 1650 1672 1529 1590 1612 1814 1771
141 75 60 7 64 305 247 389 270 232 550 206 88 0 0 0 0 0 62 129 160 533 1044 2092 2212 2072 2221 2184 2391 2206 2100 2133 2020 2132 1990 1830 1952 1877 1836 1512 1703 1688 1643 1712 1701 1596 1424 1416 1421
151 81 98 63 323 0 304 121 131 229 309 149 0 3 0 0 0 1 102 133 631 909 1445 1765 2623 2408 2076 2115 2108 2085 2045 2055 2072 2126 1807 1851 1789 1822 1920 1368 1664 1547 1540 1663 1575 1537 1479 1552 1276
2 59 272 19 4 155 433 264 484 358 234 60 17 29 2 0 0 9 129 345 424 770 1285 1575 2325 2200 2447 2080 2074 2039 2062 1990 2191 1759 2131 2077 1955 1952 1520 1644 1584 1492 1387 1561 1659 1660 1516 1495 1347
0 309 160 231 137 196 385 479 326 164 346 211 105 27 0 2 3 6 45 114 169 659 883 1158 1481 1745 1941 2123 2141 2004 1985 1975 1881 2003 2059 2296 1931 1596 1529 1495 1326 1256 1425 1487 1528 1681 1451 1143 936
6 28 156 174 109 227 283 451 140 79 121 88 96 40 0 0 10 1 32 1 274 497 569 821 1038 1322 1260 1540 1843 1757 1903 1954 2000 1942 1873 1796 1674 1530 1501 1757 1842 1253 1349 1514 1478 1569 1588 1569 1374
102 0 97 152 30 314 286 398 86 74 179 322 119 19 0 0 4 15 6 41 177 248 368 587 608 787 931 1170 1376 1678 2027 1900 1948 1825 1820 1795 859 825 1121 1438 1774 1326 1267 1396 1515 1559 1552 1442 1412
9 4 20 46 56 254 49 231 5 240 206 265 201 34 0 0 11 3 3 3 40 40 155 296 295 823 876 1200 1205 1215 1393 1280 1272 1277 1201 900 787 708 821 1304 1803 1212 1176 1400 1680 443 102 137 100
0 0 8 17 108 288 60 136 399 296 270 241 199 24 0 3 17 6 17 6 4 11 30 21 337 621 384 839 1168 1210 1047 1038 737 703 701 830 750 458 354 638 721 538 1135 458 1169 7 0 0 125
0 0 0 26 462 523 438 274 172 169 158 340 136 9 0 0 10 1 7 19 0 0 5 115 259 428 378 696 858 905 852 747 250 4 136 752 396 311 241 567 16 4 325 41 541 0 0 44 192
0 0 3 117 231 656 296 505 347 152 6 142 143 27 0 0 8 0 11 20 12 82 121 340 166 283 383 722 492 52 222 606 460 406 64 126 688 735 761 527 338 388 437 530 374 27 2 264 571
0 0 0 14 394 615 333 299 313 179 0 1 102 7 0 0 0 0 17 32 60 108 180 74 16 25 0 638 154 16 8 323 515 233 25 55 549 967 461 196 634 374 71 155 35 387 67 347 613
0 0 0 0 107 307 130 44 87 296 150 221 25 18 0 0 0 0 34 28 15 217 189 48 0 0 35 595 116 275 397 623 351 259 270 524 321 1141 1133 318 178 51 515 804 944 316 234 294 261
0 0 0 0 6 212 237 165 316 400 308 253 72 67 64 23 1 1 30 10 51 199 142 316 394 107 392 740 268 310 261 373 578 702 1012 1189 1174 841 804 687 778 117 665 94 55 44 210 96 61
0 0 0 0 0 222 269 334 433 560 458 190 98 127 114 62 11 21 41 15 12 14 98 110 66 300 516 795 0 22 208 337 806 836 1429 1196 970 478 275 370 847 185 374 306 215 151 115 231 71
0 0 0 0 0 202 365 338 231 88 228 418 223 192 90 65 64 77 4 13 44 1 0 0 233 344 100 675 323 150 884 160 644 1287 1304 1174 720 130 0 67 829 151 91 49 315 535 65 286 37
0 0 0 0 0 54 330 641 526 84 268 588 486 276 136 112 136 58 9 10 55 0 0 5 375 230 874 752 716 698 189 350 429 952 1630 1344 1278 905 503 391 828 184 14 0 612 107 95 191 53
0 0 0 0 0 1 168 424 132 276 109 341 154 289 177 220 192 42 14 12 57 15 0 222 606 308 582 404 538 532 436 28 193 970 1310 1296 918 781 168 285 1008 564 665 955 860 977 482 257 35
0 0 0 0 0 26 198 156 81 93 178 94 15 25 101 149 90 66 9 0 12 90 84 316 743 378 508 166 310 938 334 549 257 271 1002 1372 1451 1227 1412 1132 1116 605 850 812 818 919 914 142 44
0 0 0 0 0 0 163 177 98 84 224 352 47 8 0 113 51 43 2 0 0 29 137 369 726 465 443 201 106 555 468 595 272 428 997 1453 1194 1325 1404 846 964 1163 1184 1126 1027 1234 915 52 443
0 0 0 0 0 0 0 0 96 144 173 84 173 0 0 0 63 51 7 0 12 53 54 488 714 485 262 640 87 252 289 681 352 758 1083 1295 1587 1494 1302 1296 1387 1068 614 627 978 1369 1178 1087 938
0 0 0 0 0 0 0 0 0 167 173 15 0 0 0 16 176 131 44 10 48 76 95 388 915 408 292 294 712 89 196 388 578 580 580 1511 1681 1844 1905 1474 1399 1197 1101 1235 1070 1589 1133 1116 1360
0 0 0 0 0 0 0 0 0 191 290 22 0 1 53 609 180 248 120 75 31 98 122 277 608 792 292 255 345 834 106 188 384 848 1412 1315 1498 1575 1689 1449 1846 1866 1396 1133 1239 1545 1612 1546 1334
0 0 0 0 0 0 0 0 0 0 502 74 15 66 349 207 0 276 214 171 95 161 119 245 325 675 712 250 166 444 699 75 352 867 913 1217 1296 1106 1678 1463 1623 1302 1659 1578 1536 1214 1369 1635 1263
0 0 0 0 0 0 0 0 0 0 122 202 104 267 46 84 316 89 341 237 208 202 170 217 309 312 822 647 90 261 1079 116 176 370 495 349 736 977 1244 1719 1494 1751 1759 1748 1760 1125 1596 1654 1730
0 0 0 0 0 0 0 0 0 0 0 240 201 118 462 518 521 423 397 325 212 233 223 241 410 327 689 745 521 99 352 931 106 149 394 571 274 625 1352 2050 1564 2008 1706 1412 2002 1204 1633 1403 1744
0 0 0 0 0 0 0 0 0 0 0 292 261 203 518 260 419 291 315 379 83 202 202 322 682 517 556 515 809 321 106 697 610 168 6 522 392 1753 1927 1931 2022 2111 2007 1829 1669 1396 1798 1437 1711
0 0 0 0 0 0 0 0 0 0 0 49 335 270 411 393 408 283 194 205 51 133 342 320 548 816 800 728 621 803 248 226 565 397 69 0 613 660 1857 1964 1846 1746 1709 1986 1911 1865 1770 1660 1868

GFSSGP_con_sbcape_060.txt.gz
CAPE
27 6 0 0 1 1 30 62 237 33 164 55 5 52 97 84 155 11 0 1 65 34 740 1691 2366 2200 2215 2428 2247 2132 1891 2176 2372 2086 2137 2381 2109 2022 1997 1853 1779 2081 1425 1612 2070 1804 1845 1970 2281
0 0 0 27 2 49 82 230 50 206 151 73 108 102 88 28 0 0 5 59 36 185 836 1328 2353 2554 2255 2209 2338 2103 2079 2459 2240 2082 2079 1989 2024 1912 1966 1910 2049 1964 1780 1701 1547 1944 1818 1997 2217
0 0 2 64 19 43 150 55 162 254 189 241 195 33 6 5 0 1 33 42 47 507 812 1188 2102 2391 2195 2300 2252 2107 2141 2230 2164 2161 2136 1838 1909 1844 1816 1836 1718 1745 1677 1572 1592 1674 1760 1853 1862
11 97 48 0 2 70 252 62 156 401 446 65 1 1 0 10 5 3 46 71 213 502 720 1914 1942 1696 1658 1751 2024 2313 2092 2145 2001 1969 1983 1922 1884 1884 1546 1817 1696 1723 1725 1695 1542 1399 1489 1731 2003
66 59 92 100 132 57 113 72 138 124 13 20 36 28 0 0 0 16 22 190 381 649 1217 1591 2509 2548 2208 2313 2181 2100 2136 2127 2116 1995 1824 2097 1746 1831 1545 1653 1644 1675 1703 1577 1540 1326 1456 1621 1733
0 18 162 53 0 306 119 330 336 493 113 50 34 35 0 0 0 17 66 329 676 1124 1429 1746 2266 2221 2305 2124 2111 2136 2082 2087 1894 1925 2020 1935 1901 1402 1697 1645 1572 1559 1631 1585 1405 1291 1450 1601 1261
0 290 51 139 221 296 77 14 277 107 72 69 90 0 0 0 2 34 338 440 659 1157 1276 1507 1531 1857 2093 2112 2120 2141 2062 1994 1943 1934 1999 1925 1666 1692 1637 1568 1379 1479 1528 1527 1513 1357 1224 985 1168
0 6 99 208 85 398 426 53 318 240 259 99 42 0 0 0 0 90 198 296 669 914 1007 1047 1185 1287 1538 1895 2012 2048 2020 1944 1918 1848 1688 1589 1480 1418 1323 1826 1736 1387 1448 1410 1531 1617 1680 1280 1760
104 48 15 17 106 323 514 408 59 174 111 155 112 12 0 0 0 27 70 224 452 524 814 900 979 905 1017 1289 1540 1918 1967 1947 1808 1542 1556 1575 779 883 875 1356 1506 1299 1385 1461 1424 1538 1857 1429 1575
156 60 22 0 154 502 544 232 39 207 143 263 185 2 0 0 0 3 61 163 195 323 571 472 632 685 851 1259 1123 1206 1493 1293 1215 1129 1029 571 475 551 702 1082 1497 1307 1343 1619 1353 371 993 531 365
2 49 29 38 171 1 3 49 179 122 121 265 50 1 0 0 0 3 29 114 155 237 357 247 411 567 722 1044 822 907 844 847 838 705 505 434 456 658 597 772 746 658 971 910 534 7 0 47 183
0 0 0 14 159 39 118 362 402 187 524 422 26 0 0 0 0 0 0 44 45 113 181 122 448 415 209 735 822 824 806 564 363 291 185 379 214 33 272 189 0 154 31 0 336 0 1 134 472
0 0 0 18 469 116 26 83 107 133 405 363 63 13 0 0 0 0 0 9 3 43 59 84 295 245 277 633 634 514 525 631 91 0 164 215 357 123 214 258 11 23 155 17 230 3 1 176 380
0 0 0 639 318 161 134 397 148 110 142 284 89 5 0 0 0 5 3 3 1 5 47 92 216 219 276 509 177 51 183 403 141 46 2 73 543 350 206 256 253 188 72 312 62 263 49 60 454
0 0 0 148 735 581 311 378 397 5 82 298 164 9 2 0 0 0 0 0 0 65 90 117 7 5 231 403 134 0 0 183 246 25 0 168 450 544 34 64 175 119 143 27 5 242 141 105 203
0 0 0 6 637 566 143 259 327 152 373 353 182 23 1 0 3 0 7 83 52 101 79 9 2 4 267 179 160 186 130 243 204 61 128 231 578 538 388 5 93 0 176 0 0 99 232 116 49
0 0 0 0 3 466 208 493 466 560 504 277 132 52 1 5 8 1 9 114 131 103 37 14 0 129 391 162 54 69 171 238 218 267 606 653 475 374 220 341 491 121 106 146 14 54 40 59 37
0 0 0 0 0 346 361 527 633 568 481 225 102 53 0 11 0 0 14 146 168 78 68 50 17 175 422 322 0 18 90 194 492 568 873 632 250 41 33 235 188 82 28 6 105 123 23 140 33
0 0 0 0 0 0 396 594 784 614 505 301 117 64 13 60 20 9 11 129 104 107 70 21 52 156 246 272 85 337 203 166 187 768 896 694 325 0 0 274 338 0 14 9 268 44 35 100 31
0 0 0 0 0 0 374 464 597 338 454 471 271 127 69 86 6 12 3 2 8 2 3 80 130 81 214 220 222 244 117 39 159 649 961 870 629 316 35 202 489 102 132 64 420 285 217 46 8
0 0 0 0 0 199 396 315 307 132 171 595 588 350 139 62 62 52 0 45 1 0 39 133 153 214 257 143 255 414 122 51 124 570 776 915 738 449 260 462 598 146 273 373 361 350 150 8 12
0 0 0 0 0 2 115 96 59 189 184 314 0 41 81 97 100 45 0 21 0 0 81 271 170 320 269 94 190 516 272 285 58 296 648 961 853 740 896 815 699 91 431 332 321 745 102 30 37
0 0 0 0 0 0 0 0 1 142 209 436 2 20 5 106 105 81 0 56 0 0 21 398 197 255 305 72 18 221 235 153 60 148 608 778 877 811 1027 539 604 658 642 420 388 866 777 402 276
0 0 0 0 0 0 0 0 23 63 225 479 395 253 189 89 44 80 4 5 28 16 0 517 280 209 272 117 0 38 192 161 344 207 532 777 1080 1022 872 679 798 561 365 288 469 628 194 473 772
0 0 0 0 0 0 0 0 0 94 93 356 375 346 290 81 33 30 72 4 0 44 88 442 295 181 210 224 289 0 55 36 271 298 525 891 1166 1161 1166 989 882 671 683 864 478 812 1136 719 886
0 0 0 0 0 0 0 0 0 2 255 239 336 318 14 25 0 118 128 25 0 23 61 361 336 205 138 220 292 384 13 0 152 222 593 919 1145 1224 1396 955 1042 1185 831 712 672 797 724 1049 722
0 0 0 0 0 0 0 0 0 0 0 277 168 67 20 46 184 294 148 51 7 11 31 122 383 212 108 81 38 208 626 61 9 486 691 756 882 799 1296 964 1089 977 1079 897 841 645 738 939 1102
0 0 0 0 0 0 0 0 0 0 0 69 98 97 81 388 332 400 191 97 78 96 33 30 163 346 302 112 5 11 189 678 0 10 215 598 603 743 961 1186 1012 1024 1031 1070 1030 653 811 946 901
0 0 0 0 0 0 0 0 0 0 0 0 119 79 148 392 334 382 327 153 169 159 143 109 40 98 502 469 185 2 15 241 461 0 0 96 145 273 656 1344 1083 1131 1214 899 1302 833 732 1037 880
0 0 0 0 0 0 0 0 0 0 0 0 0 83 191 162 378 351 360 295 180 187 162 184 168 120 96 532 451 187 0 38 520 378 1 0 117 618 1051 1464 1244 1201 1351 1048 879 1163 1128 1153 1011

GFSSGP_con_sbcape_063.txt.gz
CAPE
78 0 0 0 0 1 2 96 249 79 264 78 0 5 42 104 180 28 0 0 6 104 800 1865 2394 2261 2394 2513 2047 1756 2069 2247 1981 2205 2225 2159 2101 2164 1653 1947 1861 1372 2101 1797 1669 1969 2228 2393 2608
0 0 0 12 0 11 53 139 220 150 171 8 135 148 146 41 9 0 11 10 0 320 1162 1787 2465 2639 2389 2358 2025 1877 2183 2120 1975 2199 1982 2039 1969 1882 2062 1945 2033 1764 1445 1900 1636 1730 1931 2298 2262
0 0 2 44 14 31 95 125 96 246 273 144 118 25 77 4 1 0 17 0 73 819 1061 1708 2444 2490 2265 2256 2036 2069 2402 2124 2075 2126 1943 1908 1881 1958 1985 1944 1821 1686 1550 1557 1875 1646 2010 1903 1924
0 62 32 0 0 81 150 6 106 375 183 73 14 6 27 0 0 19 10 0 545 795 884 1963 2175 2295 2323 2321 2038 2028 2238 2067 2100 1995 1912 1846 1829 1717 1724 1646 1606 1736 1602 1408 1445 1694 1935 2037 1868
37 23 65 84 116 166 50 23 184 106 163 126 76 3 5 1 7 15 19 160 524 668 1194 1538 2365 1893 1745 1850 2263 2013 2185 1992 2012 1823 1895 1828 1816 1517 1713 1727 1748 1710 1689 1411 1366 1519 1789 1727 1602
4 8 173 97 75 338 150 217 148 171 149 113 24 7 1 2 14 21 65 325 482 1034 1283 1660 2232 1920 2123 2226 2092 2210 2141 2108 1919 1767 1819 1782 1687 1638 1629 1681 1679 1610 1412 1311 1351 1408 1541 1527 1766
4 226 76 180 185 151 220 10 432 173 137 94 56 0 10 20 17 44 177 508 844 1254 1420 1567 1746 2010 2103 2052 2187 2115 2081 1840 1963 1976 1821 1650 1470 1742 1643 1582 1543 1582 1437 1299 1485 1401 1187 1351 1743
9 22 59 130 77 260 58 43 130 75 164 4 0 0 0 36 17 227 438 603 996 1212 1259 1209 1333 1479 1594 1701 2157 2040 1972 1911 1836 1890 1878 1586 1575 1494 1387 1790 1841 1569 1428 1400 1202 1103 1230 1743 1975
210 87 1 1 37 330 239 419 210 186 138 9 185 0 0 25 163 240 437 652 862 958 913 925 1046 1121 1359 1405 1732 1930 1906 1846 1667 1473 1615 1566 786 916 945 1346 1492 1594 1544 1423 1096 1247 1526 1665 1495
233 112 29 0 201 278 411 368 97 205 176 165 0 0 14 76 120 228 320 286 501 742 802 776 756 880 1117 1414 1393 1327 1490 1238 1121 1116 859 533 435 556 874 1270 1367 1430 1593 1652 1138 1342 1368 884 628
63 132 4 23 139 370 408 308 100 117 164 245 0 4 29 48 68 210 229 253 311 553 870 536 575 702 896 1014 930 934 911 957 904 818 587 441 510 491 622 762 705 551 1046 818 35 107 1 174 322
0 17 15 0 83 2 27 325 237 260 280 281 0 0 30 2 55 132 145 102 149 396 517 287 432 552 543 740 735 811 686 651 494 343 279 306 282 297 254 303 145 212 0 33 65 0 35 326 342
0 3 0 0 13 75 32 14 211 312 578 178 0 0 25 20 32 92 127 97 127 192 197 139 345 302 272 649 583 656 595 594 353 162 124 285 120 65 116 42 4 24 94 1 62 0 20 166 426
0 1 0 3 158 112 84 253 154 333 396 71 0 0 0 21 4 47 70 42 125 82 120 43 241 163 240 441 442 468 416 587 181 49 90 170 178 90 267 83 44 180 94 152 60 122 22 14 342
0 0 0 315 175 222 266 407 236 253 345 124 17 0 0 0 0 5 2 4 55 34 28 114 171 139 230 360 311 159 140 315 189 59 2 19 501 226 55 106 166 116 44 84 112 149 100 95 156
0 0 0 262 278 522 297 60 170 308 393 102 55 0 2 0 0 0 2 10 56 42 51 138 269 121 197 284 218 61 44 131 186 90 0 12 538 415 33 54 51 0 250 89 34 30 196 78 27
0 0 0 71 531 575 353 248 297 394 461 246 83 8 12 1 0 1 0 0 16 44 91 36 89 23 189 155 161 135 58 110 144 80 59 78 671 565 222 31 78 17 47 16 10 24 36 13 7
0 0 0 0 285 415 293 171 369 272 472 300 134 22 7 27 0 0 5 0 28 45 40 27 0 43 180 43 9 30 109 145 140 160 408 542 329 240 135 180 44 12 3 39 29 38 6 25 11
0 0 0 0 0 0 190 197 512 489 556 419 144 52 14 16 0 0 9 11 29 41 21 0 0 70 196 0 6 158 185 162 268 326 745 468 175 5 0 216 298 33 10 15 54 14 34 76 5
0 0 0 0 0 0 0 140 486 500 500 355 181 64 13 0 0 0 0 95 59 7 1 0 3 92 204 47 43 203 111 117 163 463 664 564 212 3 22 211 297 4 0 40 329 83 185 32 0
0 0 0 0 0 226 299 349 547 334 270 401 277 119 19 1 4 0 8 92 50 7 3 0 0 109 110 65 106 86 107 57 84 490 684 770 576 374 98 140 261 84 29 323 258 167 49 9 0
0 0 0 0 0 0 83 10 266 232 119 209 435 296 76 13 29 15 0 51 77 7 8 0 0 69 90 22 150 248 185 131 37 280 485 896 835 560 234 392 617 82 219 209 230 393 51 5 14
0 0 0 0 0 0 0 0 0 138 158 210 517 461 281 109 90 17 0 0 0 0 0 0 3 57 86 0 104 166 126 109 0 76 447 693 779 576 774 630 734 170 361 239 206 737 349 54 75
0 0 0 0 0 0 0 0 0 189 265 228 283 413 298 230 115 69 10 0 0 0 0 10 3 56 44 12 0 91 171 143 95 53 218 403 796 687 768 499 511 507 338 302 133 478 286 332 311
0 0 0 0 0 0 0 0 0 15 201 156 184 312 5 10 54 71 0 0 0 0 25 79 0 32 37 8 0 0 70 96 161 101 73 476 757 899 908 627 591 420 435 170 234 551 307 300 604
0 0 0 0 0 0 0 0 0 0 3 56 128 138 127 19 46 92 0 0 0 0 1 217 45 3 36 18 4 0 0 3 52 88 81 333 626 976 965 747 802 673 486 676 370 701 603 831 358
0 0 0 0 0 0 0 0 0 0 0 0 104 232 196 182 163 146 42 3 0 0 2 167 115 0 29 44 9 4 0 0 0 68 144 222 576 862 950 843 840 886 834 592 488 597 613 681 770
0 0 0 0 0 0 0 0 0 0 0 0 34 159 276 281 215 38 87 1 0 30 32 114 168 81 27 49 34 44 80 4 0 0 216 396 501 569 832 1007 723 863 908 828 611 537 447 501 717
0 0 0 0 0 0 0 0 0 0 0 0 0 0 149 13 44 59 22 45 8 36 48 94 150 144 89 85 63 7 4 195 76 0 0 51 323 462 514 1005 941 785 883 885 903 732 507 830 770
0 0 0 0 0 0 0 0 0 0 0 0 40 0 0 54 70 274 185 51 46 17 8 31 114 193 149 95 71 0 0 0 251 19 0 0 0 2 209 562 1031 886 907 851 949 1097 1076 687 825

GFSSGP_con_sbcape_066.txt.gz
CAPE
25 0 0 0 0 0 0 130 306 121 261 0 0 0 0 1 2 26 0 0 0 150 795 1610 2486 2347 1909 1870 1593 1816 2062 1834 2187 2138 2210 2222 2109 1758 1943 1529 1498 2104 1656 1709 2038 2077 2333 2297 2293
0 0 0 3 0 2 39 90 165 191 52 0 13 70 132 25 0 0 1 0 10 375 1201 1617 2229 2456 2261 1881 1759 2093 1985 1978 2380 2219 2193 2142 2024 2156 1999 2100 1553 1628 1614 1634 1759 2023 2142 2161 2405
0 0 0 22 19 2 104 93 137 7 44 19 33 32 84 3 0 0 0 0 165 875 1250 1592 2316 2260 2109 2041 1928 2088 2110 1922 2194 2081 1995 2042 2123 2093 2074 1915 1786 1549 1644 1648 1650 1879 1876 2047 2104
0 27 17 3 5 24 71 56 51 106 173 84 62 32 10 3 0 3 0 69 595 878 1195 2081 2149 2262 2251 2010 1989 2159 2128 2143 2118 1984 2103 1801 1780 1686 1658 1695 1691 1608 1474 1652 1800 1909 1922 1943 1860
32 33 35 139 82 165 82 27 146 211 195 124 95 2 8 9 0 0 13 314 581 640 1082 1710 2400 2183 2281 1963 1930 1888 2001 1945 1808 1865 1961 1929 1486 1691 1615 1622 1397 1520 1379 1465 1648 1563 1562 1584 1829
20 1 112 78 118 358 126 102 185 194 203 122 2 2 18 2 0 0 87 348 483 832 1094 1531 2024 1731 1664 1983 1952 1906 1973 1883 1789 1852 1729 1846 1572 1492 1566 1671 1662 1393 1377 1540 1404 1440 1722 1918 1993
18 142 166 98 111 138 141 177 316 142 153 63 0 1 34 4 0 9 160 285 720 1024 1144 1388 1166 1582 2085 1938 1950 1673 1829 1830 1771 1705 1892 1522 1615 1474 1482 1650 1593 1291 1283 1612 1486 1477 1761 1975 2130
27 10 25 62 2 196 94 83 146 172 147 3 0 0 59 12 20 83 260 511 878 1102 1109 1187 1337 1353 1399 1652 1936 1854 1730 1963 1994 1838 1472 1643 1680 1459 1569 1721 1817 1291 1410 1530 1506 1422 1814 1923 1922
136 50 8 0 0 278 82 336 142 359 34 11 10 0 1 18 78 171 353 584 812 1048 786 867 1014 1127 1174 1325 1611 1802 1756 1577 1549 1467 1487 1202 694 897 1056 1532 1656 1500 1197 987 1141 1538 1717 1778 2166
147 103 13 1 123 298 238 366 278 239 82 0 4 0 4 120 112 121 142 147 172 343 763 664 747 969 1065 1442 1232 1086 1384 905 982 860 598 422 424 523 1003 1459 1592 1583 1333 996 1250 1375 1591 997 1163
74 84 10 23 367 344 346 250 194 155 132 2 2 10 77 112 116 138 117 101 120 193 593 517 587 721 877 899 855 865 827 806 808 654 375 362 466 482 507 593 688 958 1290 449 82 36 286 541 812
0 0 1 0 19 68 222 204 181 125 173 1 0 1 77 99 144 101 98 102 187 167 504 416 384 513 569 682 743 684 670 589 492 392 330 287 273 305 299 315 263 342 36 438 30 2 304 512 595
0 0 0 0 0 12 91 172 305 300 377 0 3 6 40 70 133 135 129 105 145 337 365 313 239 316 350 588 515 514 470 435 217 159 108 214 236 207 195 161 11 127 88 207 32 10 275 371 678
0 0 0 0 0 26 22 34 132 546 89 0 9 1 11 31 109 128 113 26 27 167 104 110 204 142 212 426 411 460 335 414 217 108 102 179 194 107 144 170 97 242 178 172 195 165 219 242 491
0 0 0 0 148 107 373 258 126 578 7 14 3 5 0 6 81 61 45 42 18 43 44 3 134 22 161 324 300 257 227 416 337 121 69 73 235 60 109 247 220 264 88 330 384 350 320 337 342
0 0 0 105 223 320 86 24 248 521 55 0 10 30 19 0 55 59 27 27 0 0 0 0 282 53 74 170 182 105 78 161 232 121 35 0 137 226 43 140 293 91 416 213 74 191 477 256 164
0 0 0 0 278 382 154 99 176 582 272 21 0 0 8 0 26 46 1 0 12 0 1 28 121 43 71 108 150 93 38 53 110 105 79 23 291 502 73 82 239 46 107 42 30 79 312 204 106
0 0 0 0 331 365 283 179 343 471 410 189 24 1 0 0 0 19 0 0 20 14 33 53 78 0 53 39 45 15 19 63 90 115 151 259 469 268 159 314 214 87 66 82 75 116 52 136 113
0 0 0 0 0 0 0 0 266 212 577 419 111 17 5 0 0 0 0 0 12 31 36 29 29 10 0 0 0 23 80 97 129 130 387 498 423 159 112 153 140 152 34 35 80 33 107 205 2
0 0 0 0 0 0 0 40 157 169 616 500 235 48 19 0 0 0 0 0 0 17 23 13 21 1 62 0 0 60 48 78 126 222 509 560 380 2 69 230 149 26 10 207 242 100 406 70 1
0 0 0 0 0 14 145 153 420 607 405 397 327 107 9 0 0 0 0 0 0 3 1 0 4 32 69 0 3 0 16 48 153 312 475 685 444 168 114 191 211 40 14 401 395 224 77 19 2
0 0 0 0 0 0 0 0 87 307 409 281 292 107 18 1 0 0 0 14 6 18 0 0 0 29 41 0 50 66 117 107 132 215 410 772 804 463 270 203 339 292 259 339 394 555 126 16 32
0 0 0 0 0 0 0 0 0 119 347 297 325 283 104 4 0 0 0 0 18 0 0 0 0 8 17 0 11 26 37 37 20 96 418 574 681 623 406 525 668 222 446 398 413 794 269 89 162
0 0 0 0 0 0 0 0 0 142 146 104 287 442 278 148 45 25 0 4 3 0 0 0 0 0 13 0 0 0 26 27 36 44 195 327 633 692 634 818 321 217 511 618 443 653 646 660 502
0 0 0 0 0 0 0 0 0 0 0 0 40 214 446 263 146 82 0 0 4 18 0 0 0 0 4 0 0 0 0 22 46 36 44 212 500 776 800 766 364 264 495 480 314 714 451 497 887
0 0 0 0 0 0 0 0 0 0 0 0 2 89 320 358 231 139 8 0 0 0 0 0 0 0 0 0 0 0 0 14 38 49 49 105 403 739 885 820 659 497 543 447 248 621 937 733 607
0 0 0 0 0 0 0 0 0 0 0 0 0 8 196 149 191 103 51 0 0 0 0 22 0 0 0 35 0 0 0 0 7 30 66 89 307 627 906 707 774 695 553 640 632 613 639 756 1008
0 0 0 0 0 0 0 0 0 0 0 0 0 0 23 59 5 50 44 0 0 0 0 34 50 0 15 79 22 0 0 0 0 0 55 182 249 528 853 1012 844 857 1037 637 663 589 573 684 765
0 0 0 0 0 0 0 0 0 0 0 0 6 146 0 140 166 106 58 0 0 0 0 6 96 72 43 78 59 19 0 0 0 0 0 208 325 439 637 981 949 888 863 1069 852 796 721 759 760
0 0 0 0 0 0 0 0 0 0 0 0 0 173 76 16 97 177 86 24 0 0 0 0 39 66 37 41 57 15 18 36 0 0 0 0 150 278 651 699 1005 929 897 749 1093 1036 1143 812 908

GFSSGP_con_sbcape_069.txt.gz
CAPE
2 0 0 0 1 3 64 133 210 356 11 0 0 0 0 0 13 313 0 0 103 428 1211 1536 2600 1860 1754 1616 1936 1934 1847 2254 2211 2395 2405 1970 1853 1799 1472 1618 1925 1610 1813 2229 2165 2205 2273 2363 2353
0 0 0 104 39 37 166 115 254 81 45 0 14 0 34 14 14 0 0 28 128 445 1154 1435 2620 2293 1788 1624 1891 1865 1792 2396 2298 2308 2227 2026 1892 1924 1824 1674 1892 1740 1773 2000 1954 2129 2221 2348 2365
0 2 33 271 54 34 109 89 154 69 6 84 105 158 167 19 0 0 0 49 250 783 1126 1529 2211 2460 1823 1783 2083 1990 1819 2169 2103 2067 2015 1863 1997 1847 1645 1700 1629 1859 1601 1864 1995 2073 2245 2238 2081
4 53 78 15 67 23 63 25 86 119 28 197 78 133 2 0 0 4 0 91 390 845 1064 1923 2131 2103 2106 1887 2257 2010 2059 2180 2019 1945 1801 1866 1801 1770 1704 1634 1644 1587 1689 1990 2064 2064 2131 1827 1882
101 178 171 268 242 224 120 27 70 65 212 172 98 8 4 12 21 0 17 217 421 831 1143 1480 2446 2222 1991 2010 1948 2051 2111 1961 1914 2007 1879 1644 1807 1682 1515 1398 1422 1403 1721 1914 1770 1675 1711 1876 2053
67 7 305 283 216 437 126 46 72 58 204 28 0 0 25 25 0 3 63 254 386 730 1073 1523 1955 2009 1900 1936 1840 1853 1834 1824 1973 1772 1920 1720 1455 1378 1162 1287 1414 1439 1733 1562 1693 1833 1843 2018 2209
58 329 319 192 121 187 198 169 50 218 257 137 6 26 55 9 0 17 120 313 419 713 1111 1653 1456 1430 1713 1887 1847 1659 1839 1676 1674 1935 1651 1651 1484 1533 1593 1613 1328 1449 1712 1684 1739 1946 2070 2331 2318
121 88 86 58 35 201 128 138 402 184 154 26 8 22 7 8 0 51 146 357 558 738 1049 869 841 1699 1643 1693 1635 1702 1666 1909 1641 1490 1571 1629 1527 1714 1616 1890 1829 1619 1659 1702 1560 1903 1979 2172 2274
292 202 69 3 10 336 135 299 208 352 26 12 4 9 0 3 3 16 140 490 661 741 1038 1135 1501 1514 1725 1507 1739 1632 1805 1599 1704 1414 1824 1503 1326 1360 1442 1926 1595 1365 1275 1368 1644 1620 1785 2026 2350
353 362 107 34 140 285 337 294 175 251 7 12 6 17 1 7 3 27 104 281 376 545 930 1097 1408 1356 1468 1432 1716 1573 1299 1346 1546 1672 1680 1375 1407 1645 1716 1763 1569 1224 1072 1370 1484 1863 1421 1404 2126
220 261 59 14 198 345 363 380 383 217 32 8 7 12 4 7 3 28 53 130 178 266 599 1046 1397 1514 1318 1744 1366 1266 1209 1337 1519 1558 1524 1519 1269 1502 1673 1790 1472 1708 1055 767 1107 893 1094 1470 1744
140 15 2 0 92 210 280 392 357 196 259 12 12 0 0 3 1 7 80 132 152 198 568 1055 1137 1469 1364 1493 1127 1359 1106 1310 1046 1286 1504 1456 827 1152 1415 1140 1405 1243 784 852 606 876 1471 1555 1512
26 6 0 0 0 0 113 202 232 299 145 26 4 4 3 13 9 23 77 127 277 123 429 928 1068 1519 1480 1681 1502 1202 1089 1060 1091 1164 1256 1285 1126 1081 1117 1068 900 1070 875 795 764 1293 1271 1497 1463
0 0 0 0 0 2 48 142 237 333 17 7 17 15 4 18 20 72 146 185 193 232 401 680 901 1178 1221 1372 1488 1260 1026 981 918 858 1013 1343 1415 1353 1016 907 997 1124 1197 1043 1041 1088 1302 1409 1375
0 0 0 17 45 110 256 194 216 53 15 30 32 26 6 35 67 204 181 182 193 214 341 594 636 865 1078 1310 1293 830 727 773 938 1184 1191 1125 1418 1407 989 1321 1101 1177 1184 1521 1539 1400 1315 1292 1173
0 0 0 130 255 249 267 206 394 158 41 25 5 40 53 73 100 210 253 305 193 101 347 622 296 585 901 978 1133 660 787 1003 1171 1203 912 1029 1063 1437 1471 1263 1632 1256 1362 1204 1202 1189 1217 1200 1141
0 0 0 0 505 485 302 233 584 216 71 18 24 27 56 105 160 248 231 323 221 110 268 457 452 488 700 942 841 806 900 1055 1214 1218 1104 1077 941 1547 1340 1204 1350 1337 1162 795 858 1266 1254 1067 1020
0 0 0 0 212 493 293 191 560 862 325 159 43 25 58 86 139 249 207 279 207 73 126 206 448 639 737 738 883 701 833 956 978 1183 1201 1071 1100 1539 1384 1169 1393 1322 1017 908 1008 1403 1105 1051 947
0 0 0 0 0 0 0 0 3 736 785 277 145 78 81 92 128 227 111 237 167 28 124 252 539 804 735 616 550 880 965 884 945 1040 1305 1268 1463 1502 1561 1738 1281 1181 940 1124 1192 1032 1292 995 871
0 0 0 0 0 0 0 0 577 401 828 659 218 77 79 105 123 106 160 184 171 113 189 382 589 865 892 608 741 894 1034 1012 1236 1302 1418 1391 1547 1434 1391 1577 1293 1306 737 1445 1356 1200 1175 993 561
0 0 0 0 0 1 188 190 539 614 705 822 636 176 85 61 89 87 131 129 167 190 263 376 630 888 1042 729 785 867 969 1009 1212 1391 1384 1436 1551 776 1093 1488 1383 1246 959 1359 1622 1310 1465 707 552
0 0 0 0 0 0 0 0 155 629 604 770 845 547 242 148 66 83 98 72 106 205 290 421 573 780 1067 956 846 965 948 967 1049 1334 1239 1543 1730 1374 1024 1389 1485 1346 839 1584 1643 1652 1266 685 674
0 0 0 0 0 0 0 0 0 263 591 450 869 739 349 249 146 59 58 94 34 148 253 347 495 675 1048 1109 1054 979 1153 1008 1243 1328 1807 1754 2206 1834 1455 1320 1568 1607 1652 1794 1850 1982 797 892 653
0 0 0 0 0 0 0 0 0 0 0 0 452 798 604 365 196 141 82 144 137 188 253 269 421 766 890 1056 1016 1094 1178 1221 1119 1212 1502 1491 1757 2564 1897 1640 1857 1863 1786 1925 1811 2071 2161 1908 1714
0 0 0 0 0 0 0 0 0 0 0 0 0 55 804 582 364 196 155 128 259 288 325 329 395 587 755 910 992 1011 1114 1448 1521 1563 1280 1545 1556 1856 2102 2148 2289 2067 1853 1989 1939 2044 2156 2060 1779
0 0 0 0 0 0 0 0 0 0 0 0 30 10 448 753 558 380 254 249 355 365 440 438 429 538 614 776 1214 1353 1136 1014 1057 1390 1089 1234 1312 1544 2111 2235 2207 1981 1900 1742 1819 1838 1754 1788 1753
0 0 0 0 0 0 0 0 0 0 0 0 174 239 269 684 759 572 373 317 370 437 495 508 563 589 566 623 1069 1072 1107 1101 1215 1262 1352 1132 1481 1356 1933 2203 2228 2053 1981 2009 1944 1596 2049 2257 2191
0 0 0 0 0 0 0 0 0 0 0 0 104 225 98 354 799 753 535 294 334 447 491 496 603 675 687 603 743 755 789 989 1106 1288 1489 1385 1495 1673 1643 2012 2194 2241 2218 2110 2101 2001 2009 2131 1896
0 0 0 0 0 0 0 0 0 0 0 0 0 0 295 561 390 703 669 458 364 324 372 418 537 626 627 591 900 789 629 617 814 862 1244 1572 1684 1791 1922 2067 2085 2279 2256 2356 2320 2108 1938 2127 2076
0 0 0 0 0 0 0 0 0 0 0 0 0 0 0 4 82 445 558 334 346 319 291 302 435 489 519 802 1069 816 900 676 578 690 816 1328 1645 1730 2003 2066 2222 2354 2287 2343 2425 2296 1868 2012 2062

GFSSGP_con_sbcape_072.txt.gz
CAPE
0 0 0 10 414 210 451 494 381 224 90 49 1 0 0 16 284 610 106 116 404 610 1055 1513 2375 1844 1716 2370 1983 2110 2438 2408 2588 2440 1874 2018 1811 1528 1723 1847 1622 2007 2167 2383 2297 2298 2547 2534 2287
3 0 49 485 561 251 219 150 210 38 99 21 0 0 50 386 208 54 99 193 409 563 855 1206 2338 2189 1643 2201 1880 2008 2403 2360 2430 2168 2057 1971 1982 1852 1849 1991 1781 1943 1973 2044 2281 2366 2412 2295 2397
5 3 465 553 223 184 224 118 70 6 29 47 211 188 463 213 27 11 93 221 415 760 928 1914 2327 2224 1753 2256 1885 1935 2293 2195 1938 1991 2011 2079 1813 1750 1697 1793 1906 1641 2052 2063 2215 2220 2113 2093 2399
55 497 600 280 278 50 47 85 20 13 139 316 283 394 73 22 0 31 87 164 486 703 883 1990 2349 1847 1840 1955 2045 1851 2084 2046 1823 1797 1848 1762 1792 1689 1679 1716 1831 1753 1990 2118 2041 2236 1809 1868 2298
324 560 637 561 508 509 243 50 73 2 57 402 331 190 8 9 14 29 126 210 476 674 977 1652 2374 1944 1832 2141 2129 2189 1983 1820 1734 1847 1725 1705 1682 1643 1526 1544 1551 1845 1819 1909 1867 1859 1923 1922 2226
230 255 574 333 486 523 58 70 74 39 142 138 122 0 53 33 0 59 183 336 451 536 851 1406 1988 2045 1948 1765 2015 1975 1852 1847 1882 1710 1679 1567 1461 1358 1655 1594 1528 1793 1736 1880 2005 1946 1952 2249 2396
452 619 430 163 430 534 214 69 33 70 452 305 33 242 75 11 2 88 261 390 448 526 945 1102 1677 1833 1838 1877 1725 1948 1830 1802 1762 1665 1676 1569 1547 1540 1580 1382 1670 1698 1815 1801 1711 1858 2272 2076 2408
241 559 306 102 400 522 199 187 137 333 208 149 142 231 44 31 11 152 315 310 374 548 1151 909 577 784 1371 1637 1696 1849 1749 1738 1578 1643 1551 1644 1654 1513 1421 2103 2024 1755 1753 1814 1940 1934 2229 2257 2175
515 672 267 148 505 392 119 258 606 427 322 165 158 82 0 21 65 214 275 322 473 760 869 179 876 1511 1660 1504 1806 1669 1544 1634 1476 1425 1332 1342 928 1076 1081 1794 1592 1547 1660 1823 1762 1853 2256 2371 2197
513 567 174 134 178 512 380 334 519 145 92 102 107 76 14 11 116 147 191 332 441 645 595 301 1054 998 1403 1439 1564 956 803 731 849 1067 1157 993 1235 1784 1072 1489 1294 1348 1586 1681 1910 1368 1510 1926 1876
662 336 239 115 185 192 579 186 145 289 66 216 152 56 25 22 65 101 159 232 364 605 247 674 892 1123 1244 1542 678 508 648 961 1307 1275 1056 1151 1012 879 746 1259 1358 1178 1263 1380 1460 1531 1673 1781 1433
444 363 220 53 2 171 212 451 531 144 200 39 195 26 28 20 56 101 130 200 372 476 184 518 966 1144 1237 1002 370 621 811 871 868 1188 1166 1201 849 919 899 967 1206 1018 1008 1117 1214 1660 1924 2001 1687
223 256 85 1 0 0 20 230 469 568 219 150 80 8 11 25 46 112 107 170 330 237 288 481 852 1152 1286 831 528 633 755 699 838 952 1253 1032 1001 1287 1112 1232 1078 1000 1040 1145 1545 1658 1790 1835 1563
21 45 10 0 0 0 117 355 506 638 400 132 37 5 12 15 44 95 128 232 368 110 388 525 740 1212 1316 886 942 905 704 832 798 885 1389 1598 1186 1394 1303 1266 1168 1186 1080 1274 1450 1749 1567 1292 1342
0 0 0 0 0 33 228 604 416 665 386 157 62 12 7 23 40 103 213 137 95 91 248 493 655 952 1087 968 1062 723 727 680 885 1114 1582 1636 1552 1786 1511 1414 1282 1157 1574 1718 1760 1653 1526 1058 1221
0 0 40 59 33 140 646 501 794 590 200 126 94 32 27 57 73 145 182 147 107 71 256 479 355 685 848 738 1043 846 951 865 1047 1113 1081 1420 1537 1164 1289 1055 1054 1394 1441 1261 1214 1298 1094 984 1062
0 25 51 109 179 335 704 527 1082 673 141 103 40 71 86 94 89 205 125 306 257 123 261 501 460 699 815 987 637 890 1095 1072 1091 1100 991 1510 1347 989 901 1013 1219 1750 1223 1056 967 1149 1046 980 886
0 4 71 11 347 371 435 505 1010 848 515 234 33 160 200 141 146 137 294 543 511 200 196 396 496 727 943 1077 1121 930 956 1135 1192 1211 1330 1430 1376 1571 1338 1030 1373 1385 908 984 1083 1171 1067 947 824
0 1 21 0 174 126 9 0 177 726 936 636 61 325 386 186 159 158 480 462 562 249 103 302 473 881 914 954 877 961 1107 1117 1165 1305 1568 1607 1551 1616 1855 1413 1407 1257 841 1388 1615 1241 1176 601 851
0 0 10 0 0 0 0 0 155 218 769 1050 378 255 510 328 221 220 551 581 396 205 0 266 466 1077 990 555 744 911 1068 1094 1235 1356 1683 1297 1625 1578 1399 1370 1419 1110 793 1474 1457 1346 480 505 768
0 0 17 8 0 0 0 2 397 442 507 837 725 725 617 463 288 405 679 578 287 212 145 346 731 1096 934 595 963 1599 1568 1805 2164 1713 1578 1585 1896 1731 1701 1916 999 1770 1177 729 1459 1289 1362 270 617
0 0 0 0 0 0 0 132 170 779 678 968 740 658 540 621 541 429 545 554 322 258 290 452 921 1203 1164 1251 1107 1413 1026 810 938 1333 1311 1773 1854 1574 1542 1903 1885 1982 1100 1319 1520 1389 1222 1475 174
19 0 0 0 0 0 0 5 131 251 723 648 905 896 691 317 237 583 479 578 399 359 397 547 1092 1352 1334 1548 1226 1426 1500 939 1205 1116 2282 1891 2297 1643 1587 1867 2035 2026 1620 1699 1523 2046 1718 852 162
10 0 0 0 0 0 0 0 10 43 0 1 824 1197 1023 819 393 455 554 556 499 462 567 628 1098 1594 1625 1838 1997 1629 1401 1400 834 1239 3047 1227 2055 1708 1830 1710 2124 2044 1737 1866 1672 2015 2034 1481 960
4 0 0 0 0 0 1 0 2 0 0 2 30 5 1260 1062 900 706 661 612 566 451 604 737 1100 1542 1628 1689 1807 1836 1799 1807 1675 2115 795 1433 1551 1230 1893 2014 2012 1720 2077 1617 1451 2348 1733 2290 1320
0 3 0 0 0 0 0 0 0 0 10 350 432 146 151 1247 1071 878 798 718 693 600 694 820 1104 1515 1535 1541 1781 1967 1862 1563 1456 1380 806 1183 1153 1360 1720 1967 1628 1797 1767 1668 1679 1622 1329 1441 1735
0 6 3 0 0 5 0 0 0 0 39 72 300 430 458 1164 1202 990 907 849 806 860 832 1020 1156 1618 1617 1470 1639 1919 1963 1788 1189 1266 1411 1138 1225 1204 2083 1545 1496 1513 1952 2082 2284 1786 1811 1672 2015
0 0 0 0 0 0 0 0 0 0 3 26 26 138 640 785 1117 1233 1000 970 871 935 959 1084 1199 1539 1707 1599 1573 1646 1775 1885 1707 1583 1720 1411 1107 1611 1635 2226 2015 1682 1987 2395 2501 1508 1936 1919 1548
0 0 0 0 0 1 13 4 0 0 0 0 2 0 1 78 377 361 869 890 926 1010 1057 1087 1182 1304 1585 1610 1567 1563 1548 1579 1767 1685 1730 1784 1522 1653 2127 2219 2316 2188 1921 2210 2768 2080 1686 2362 2063
0 0 0 1 5 0 16 0 0 0 0 0 0 0 0 0 0 0 0 0 50 877 983 1060 1177 1185 1331 1439 1634 1627 1673 1531 1350 1610 1563 1624 1719 1709 2158 2562 2368 2460 2174 2516 2576 2086 1656 1880 1929

GFSSGP_con_sbcape_075.txt.gz
CAPE
0 0 12 116 408 472 591 451 341 210 140 101 61 43 156 712 772 720 393 863 993 838 899 1359 2239 1740 2382 1808 1914 2114 2309 2119 2023 1834 2108 1817 1602 1996 1737 1704 2245 2348 2489 2403 2534 2617 2480 2444 2301
5 0 66 388 488 556 409 324 150 153 107 40 1 24 452 526 404 181 515 728 601 353 445 640 2188 1866 2059 1791 2061 2129 1832 1860 1892 2049 1923 2083 1964 2099 2126 1867 2097 2148 2261 2414 2404 2457 2333 2443 2301
362 9 334 580 572 590 325 39 67 42 73 91 65 485 622 147 143 210 462 569 429 248 506 1285 2196 1825 2109 1797 2050 1916 2076 1916 2022 2090 2071 1893 1790 1730 1934 1970 1764 2141 2225 2318 2291 2284 2302 2291 2402
44 255 616 866 488 490 332 16 71 204 384 238 361 332 266 134 177 275 339 463 316 734 903 1623 2033 1694 1977 2111 1838 2151 1953 1872 1877 2032 1871 1825 1789 1844 1863 1953 1849 2127 2227 2185 2093 1967 2109 2404 2282
70 784 984 799 674 565 217 21 25 245 459 309 280 279 120 110 167 223 305 547 547 829 1166 1700 2376 1900 2008 1948 1910 1878 1958 1866 1941 1839 1794 1750 1765 1697 1653 1839 1966 2108 2071 2034 2065 1781 1903 2360 2119
503 587 632 316 612 319 68 40 14 37 410 427 338 161 194 128 143 201 278 402 491 432 954 1398 1844 1903 1953 1698 1801 1814 1811 1845 1733 1630 1689 1521 1542 1788 1667 1746 1911 1934 2071 2100 1969 2073 2144 2276 2208
622 1195 485 405 717 375 91 33 21 101 428 306 264 318 162 109 128 181 262 437 363 787 682 1169 1554 1790 1778 1765 1694 1745 1858 1821 1777 1651 1642 1565 1711 1442 1489 1907 1873 1663 1741 1670 1649 1770 2379 2377 2345
719 631 329 596 440 606 59 47 32 217 534 347 543 225 115 127 149 244 285 363 396 682 547 1010 926 719 1323 1547 1580 1709 1786 1644 1739 1637 1656 1764 1661 1464 1902 2214 1710 1825 1755 1945 2111 2263 2215 2199 2101
837 749 349 390 635 513 377 289 424 398 349 274 301 307 50 61 144 255 288 305 370 615 462 149 429 1170 1785 1510 1607 1388 1582 1548 1608 1322 1315 1490 1512 1339 1272 1969 1800 1925 1873 1946 2237 2399 2302 2201 1889
878 608 238 342 558 192 446 580 760 503 242 289 262 146 37 75 145 210 179 231 277 394 86 324 863 950 1318 724 1692 1127 981 1291 1196 1211 1826 1291 1376 1154 1248 1689 1786 1865 1940 1834 1875 2314 2472 2258 1269
687 346 164 330 641 654 441 348 527 292 435 256 261 97 49 113 144 152 145 114 209 157 115 813 946 1643 1055 850 519 499 599 380 555 1428 1400 1368 800 926 786 1479 1489 1829 1876 1606 1511 2030 2024 2060 1041
709 412 264 220 390 614 780 520 279 433 551 316 165 104 52 134 116 136 138 100 135 153 155 516 622 1619 1396 569 411 1061 756 671 997 1411 1509 944 623 908 1601 1479 1185 1884 1801 1377 1175 1495 2244 1265 1051
758 426 287 46 2 19 300 747 780 264 84 158 315 108 52 139 150 147 135 112 135 73 146 523 770 2175 1842 512 673 1260 462 750 469 1096 1737 1685 1311 1623 1939 1770 1250 1625 1328 1228 1590 2151 2099 1552 1529
612 533 223 69 4 0 248 538 585 792 290 327 259 111 87 112 155 173 167 99 93 22 177 506 861 1549 1143 960 1217 1756 1162 419 1111 1129 1381 1671 1152 2317 1154 1206 1384 1582 2081 2407 2220 1979 2124 1595 1196
171 449 171 18 0 4 507 599 804 734 600 200 175 120 105 125 176 159 151 132 56 30 235 407 774 1017 1132 865 820 1409 1190 808 1033 1465 1417 1259 1793 1591 1320 948 1600 1488 1862 1706 1620 1414 1692 1453 1302
45 212 338 118 9 135 532 629 918 945 575 217 152 131 127 133 164 170 191 91 30 12 255 338 335 744 682 761 809 1448 1046 1120 1312 1650 1629 1486 1325 1544 2039 1182 1485 1079 1653 1590 2219 1805 1711 2043 1433
0 132 158 143 35 155 488 709 882 927 744 306 122 111 106 117 104 183 181 45 34 31 293 351 426 662 582 868 827 1683 1607 1410 1342 1885 1522 1595 1498 1503 1488 1335 1418 2342 2782 2160 1227 1595 1579 1382 1365
0 21 118 177 112 211 583 544 1072 816 421 402 175 138 116 104 125 179 115 147 205 217 224 408 427 854 833 843 997 1039 716 1416 2237 2078 1963 1585 1804 1355 1483 1374 1350 2517 1844 1273 1712 2195 1029 1514 1445
1 2 49 109 145 187 253 647 742 1062 624 688 171 134 265 139 173 269 130 382 308 248 179 417 544 1267 931 901 715 811 1316 1998 1943 2205 1670 1527 1829 1444 1635 1185 1373 2339 1852 2044 1301 1179 1358 747 709
0 4 85 51 157 177 51 31 418 589 1032 1029 331 118 396 207 166 214 143 471 396 341 222 335 583 1299 1036 987 1677 728 1290 1503 1618 2032 1573 1490 1555 1633 1583 2253 1628 1915 1275 1581 1227 2122 2475 853 790
0 17 132 55 0 58 30 61 162 117 467 1239 700 475 531 338 171 214 322 455 514 343 141 314 675 1308 1340 1219 1035 1103 1230 1921 1747 1839 1300 1531 1616 1528 1671 1993 2661 1267 2303 1076 1541 1261 1906 1904 221
3 0 63 44 10 10 5 71 193 204 225 1342 746 716 551 520 286 220 309 518 416 223 1 258 586 1193 1153 1332 1700 2375 1308 1470 766 1678 2034 1592 1752 1614 1682 1646 1733 1720 1616 2322 1126 763 2415 1519 584
9 0 6 73 4 51 57 78 46 424 588 1136 826 933 910 688 374 318 497 586 313 184 181 447 1106 1809 2043 1862 2259 1649 2097 1063 1107 1812 2107 2327 2022 1712 1574 1893 1900 2025 1952 1732 2123 1956 1887 540 709
25 31 4 9 16 8 40 1 448 323 399 963 877 808 869 713 642 368 526 517 394 213 217 593 1497 2089 1817 1550 1737 1945 1899 2156 2133 1227 1564 1389 1236 1545 1695 1781 1984 2079 2515 2060 1516 1767 1756 2153 1970
73 58 16 18 9 14 8 8 117 6 0 27 498 443 1086 804 806 665 424 626 418 485 192 484 1430 2005 1903 1827 1882 1833 1871 1682 2233 1747 1305 1083 2209 942 2466 1940 2309 1876 1981 1552 2051 2445 1932 1269 1717
69 53 23 5 4 9 60 69 22 27 391 446 421 264 1103 1025 850 697 805 644 581 652 273 441 1296 2192 2056 1999 2279 2687 2424 1598 1226 1593 1605 1325 1704 1041 3035 1932 1633 1725 2089 1784 1836 1829 1345 2523 1506
58 44 16 87 57 53 111 7 0 110 205 283 665 612 183 1179 809 900 641 1000 564 665 643 661 1826 1898 2132 1953 2238 2597 2612 2393 1577 2537 1702 1506 2317 1122 2014 1866 1781 1761 1773 1987 2437 1585 2173 2662 2046
1 25 76 77 65 79 87 9 33 81 95 130 65 227 363 190 37 6 207 672 749 693 765 481 910 1773 2083 1979 2016 2099 2246 2383 2085 1587 1909 1709 2042 1443 1366 1940 2027 1778 1698 1846 2244 2598 2505 2008 1605
0 0 27 95 41 118 103 28 0 36 37 12 0 0 0 2 3 0 1 0 75 136 900 946 1006 1396 1955 1988 1999 2109 2099 2163 2277 1847 1771 1909 1588 1752 1735 2864 2198 2143 1980 1936 2756 3138 2086 1944 2309
0 7 1 43 32 13 88 0 19 8 0 0 0 0 0 0 0 3 4 6 0 0 1 157 1071 1208 1479 1734 2399 1951 2030 2103 1980 2193 2029 2325 2458 1825 2050 2121 2199 2248 2192 2502 2685 2136 1509 1978 1999

GFSSGP_con_sbcape_081.txt.gz
CAPE
0 0 0 0 18 136 47 31 200 114 66 45 107 248 235 214 281 316 318 461 561 775 1277 1701 2492 1899 1669 2033 2375 2077 1900 1828 1959 1999 1870 1944 1510 1962 2314 2281 2301 2387 2515 2549 2476 2332 2298 2094 1920
0 0 0 22 21 99 57 183 99 119 133 209 97 46 175 230 326 328 323 449 624 893 1115 1717 2356 2289 2226 2218 2287 2003 1809 1908 1846 1983 2097 2111 1866 2149 2047 2182 2231 2156 2304 2332 2492 2423 2145 2003 1979
1 80 120 254 197 6 7 151 101 148 311 268 107 29 225 258 362 299 306 468 642 605 962 1770 2592 2376 2035 1733 1924 1671 1664 1819 1934 1757 1774 1945 1994 1747 2036 2145 2101 2350 2304 2177 2414 2345 2087 2014 2009
16 189 87 341 368 189 84 64 58 264 313 162 6 25 184 224 237 212 301 314 82 318 1099 2241 2399 1786 1849 1927 1813 1862 1884 1986 1804 1832 1662 1568 1922 1800 2015 2093 2230 2215 2056 2250 2377 2257 2067 1991 2067
38 327 203 270 249 12 0 0 6 259 229 110 2 96 120 158 176 219 6 63 183 582 1028 1759 2595 2124 1929 1815 1743 1832 1897 1843 1695 1836 1745 1738 1915 1838 2042 2169 2112 2055 2085 2207 2395 1923 1956 2117 2200
40 263 279 343 84 0 0 0 1 234 184 35 0 0 4 56 26 12 104 42 351 549 1027 1286 2034 2258 1773 1834 1851 1847 1719 1593 1742 1593 1489 1580 1817 1932 1938 1935 2125 2104 2047 2197 2264 1959 1950 2135 2120
209 228 321 424 113 40 20 72 86 244 43 0 1 0 16 45 28 277 107 5 60 470 813 1381 1439 1400 1657 1839 1723 1759 1640 1677 1645 1531 1727 1704 1737 1912 1946 2074 2147 1999 2266 2326 2245 2149 2049 2130 2198
520 217 333 451 107 0 6 60 208 426 132 6 0 0 0 27 119 344 336 86 301 620 764 775 1154 1021 1152 1319 1669 1775 1694 1629 1583 1561 1471 1668 1727 1682 1777 2572 2560 1840 1845 2060 2247 2127 2037 2081 2144
553 279 278 186 4 7 8 59 105 332 312 96 4 0 3 36 80 44 151 325 518 558 669 530 583 721 923 1074 1286 1436 1648 1495 1586 1238 1124 1578 896 923 1377 2236 2479 1933 1960 1991 1983 1882 1838 1814 1829
51 152 205 175 48 29 58 156 444 47 390 258 0 2 9 39 54 109 65 31 208 314 350 454 599 835 767 1074 1071 1134 1093 738 532 151 481 635 572 731 1356 1907 2302 2100 2120 2214 2068 1980 1833 1839 1053
11 162 298 75 65 101 184 170 402 269 164 8 5 0 4 26 188 128 19 0 9 137 580 323 365 602 333 629 787 703 699 689 515 93 269 467 967 1166 1236 1512 1618 1483 1760 1245 1730 1558 1605 1618 1394
385 342 241 274 414 371 626 631 325 458 416 16 0 0 0 29 116 88 67 14 66 226 572 657 401 414 512 809 930 470 622 627 575 705 974 851 697 507 680 1030 1192 1384 689 491 882 1056 1825 1750 1572
203 69 376 565 434 595 654 614 378 314 120 11 2 0 6 19 58 54 14 78 74 162 622 168 0 77 475 458 389 559 496 247 666 550 939 553 622 291 517 391 732 1173 247 135 780 877 1505 744 619
106 34 26 404 348 335 345 278 103 95 2 11 9 1 11 42 45 40 33 152 150 389 425 346 600 775 364 75 94 84 399 273 567 915 435 537 699 618 0 165 1000 626 613 412 850 1149 871 884 444
427 17 52 248 593 465 484 321 444 41 145 12 7 4 18 52 43 40 20 64 335 425 514 550 551 639 509 129 5 78 468 488 667 406 0 249 487 652 863 710 926 597 512 534 548 955 1534 811 860
167 85 106 140 90 737 362 286 104 7 170 51 10 8 18 35 40 46 31 6 272 417 330 411 502 678 358 616 30 685 164 500 663 1025 285 480 423 3 0 1093 545 942 1248 150 420 852 357 676 308
0 3 109 137 136 561 345 325 299 259 307 55 9 12 27 26 47 50 10 5 37 200 213 158 0 456 167 435 837 257 488 619 246 452 553 1109 1323 509 508 1448 318 1337 1409 1178 511 760 906 877 729
0 0 0 16 7 593 16 7 268 132 169 120 31 21 23 40 33 28 8 0 15 52 0 239 102 459 114 358 164 609 448 38 348 394 16 612 1356 1335 910 977 990 1131 1062 585 452 824 647 384 414
0 0 0 128 146 50 6 0 0 94 138 213 48 17 9 15 37 54 4 10 10 139 24 476 262 668 86 403 765 567 242 117 338 378 165 634 132 1398 1315 902 589 555 840 578 448 1318 641 1273 260
0 0 0 175 476 246 14 0 0 0 108 149 3 3 7 9 30 37 2 7 9 55 42 531 629 484 152 136 687 407 245 740 621 715 589 806 424 1421 1316 817 553 437 688 1445 1380 1069 1250 1108 429
0 0 0 96 71 277 256 353 15 22 401 125 45 115 11 12 20 10 0 0 23 77 142 547 506 746 383 272 676 146 364 117 0 86 506 1115 1057 1281 1339 558 1085 495 1039 1242 1033 712 403 1302 88
0 0 0 97 68 80 304 106 162 651 343 195 82 102 41 50 41 48 8 22 7 74 175 487 747 779 453 1032 636 244 219 318 321 99 394 1267 1389 1140 1429 1582 800 458 280 580 1494 1598 1263 1213 843
0 0 1 62 28 45 112 101 241 541 493 267 292 159 88 51 91 69 95 51 55 79 211 291 997 730 108 691 974 478 330 674 197 720 1029 1100 1096 1302 1253 1142 1221 607 267 428 648 1273 1367 1578 1455
0 0 0 2 3 4 0 30 236 555 399 546 32 46 247 307 178 45 78 93 64 23 162 254 1044 693 346 463 1047 846 184 0 0 87 212 941 1197 1439 1298 1416 1088 1037 721 776 684 894 1139 1105 1613
0 0 0 0 25 5 5 25 231 297 505 254 160 24 31 307 162 74 85 198 169 74 158 246 512 1092 1015 614 1035 888 254 0 0 201 499 847 1050 1119 915 1237 1311 1323 1081 726 789 1448 1174 1358 839
0 0 0 0 0 0 2 244 112 85 72 50 1 169 100 186 280 173 134 201 204 82 185 274 343 1093 1122 665 959 805 803 415 320 338 189 649 262 837 1094 1485 1368 1134 1029 1123 1181 995 1360 1316 984
0 0 0 1 0 0 301 290 110 1 3 0 0 71 83 171 101 306 146 43 246 46 85 330 595 916 1243 957 1193 1125 860 829 345 15 31 580 63 791 766 778 1319 1276 1227 1181 1392 857 1094 1174 1083
0 1 0 0 24 28 464 334 316 181 25 0 0 0 0 3 22 14 1 0 6 84 137 729 998 1087 1328 1430 1507 1578 1710 1293 1106 886 917 700 633 506 174 34 151 917 1257 1524 1336 1091 935 929 643
1 0 6 0 0 0 76 48 23 42 0 0 0 0 0 1 4 7 6 2 1 0 3 58 102 521 1193 1457 1524 1567 1618 1510 1299 1376 1400 824 389 27 25 3 0 38 1070 1233 1238 1006 1074 967 860
0 20 22 0 0 1 71 8 0 0 0 0 0 0 0 2 2 3 3 2 1 2 1 2 3 2 0 1 602 1541 1740 1733 1628 1608 1264 1357 589 388 44 0 0 0 615 1227 1327 1166 1107 1013 1112

GFSSGP_con_sbcape_084.txt.gz
CAPE
13 0 0 0 4 3 48 19 121 101 157 48 0 4 1 6 68 75 34 297 435 839 1450 1793 2306 1721 1884 2226 2164 1888 2191 1928 1951 2122 1695 1949 1953 2222 2387 2385 2430 2430 2616 2466 2237 2110 2076 2017 1781
0 0 0 0 0 15 51 113 75 121 116 89 120 161 166 231 231 221 253 387 510 1001 1285 1646 2162 2333 2332 2172 2160 1948 1980 2000 2199 2285 2096 1860 2166 2186 2300 2320 2307 2349 2607 2501 2258 2146 2092 1689 1497
4 0 5 50 119 0 0 78 74 159 207 38 126 207 236 259 285 192 264 494 711 1012 1437 1392 2217 2575 1987 2071 1828 1798 1948 1965 1843 1929 2118 1961 2016 2162 2267 2171 2380 2348 2369 2821 2327 2218 2071 1898 1729
0 84 63 227 112 1 11 96 60 70 72 86 111 125 165 219 178 243 382 576 587 1141 1294 1975 1971 1813 1973 1764 1739 1903 1985 1904 1909 1769 1917 1823 2098 2197 2229 2386 2344 2347 2460 2488 2163 2184 1987 2080 1894
0 217 128 322 199 19 4 0 8 142 206 163 107 98 112 93 222 275 331 212 642 1035 1504 1529 2363 1954 1954 1744 1803 1876 1831 1717 1814 1850 1838 1927 1863 2155 2256 2205 2147 2263 2439 2395 2020 2034 2134 1805 2768
57 168 242 302 13 10 0 5 8 214 76 80 34 0 0 111 147 38 11 115 525 1010 1420 1489 1829 1807 1794 1705 1941 1738 1682 1767 1685 1573 1734 1976 2050 2136 2150 2163 2162 2241 2428 2362 1959 2105 2256 2000 2379
63 258 392 306 11 2 14 21 100 28 61 12 0 42 14 111 4 0 109 81 501 969 1026 1249 1322 1503 1771 1760 1663 1587 1737 1577 1553 1576 1571 1830 1872 1961 2036 2249 2314 2255 2400 2240 1998 2009 2100 2263 2519
377 257 406 272 101 26 4 101 348 17 18 0 0 14 57 0 0 26 34 255 454 747 1104 1036 937 1071 1156 1383 1736 1716 1644 1515 1502 1343 1698 1769 1811 1864 2065 2578 2522 2233 2259 2121 2035 2031 2133 2233 2425
473 238 50 18 0 4 57 123 275 381 0 14 10 0 0 16 0 0 12 113 371 587 740 866 753 746 807 902 1244 1598 1563 1475 1354 1362 1751 1407 733 1138 1418 2248 2094 1889 1995 2038 1994 1958 1963 1928 1901
274 4 23 100 8 21 58 160 300 282 24 34 3 23 137 108 19 2 150 328 358 459 340 465 405 519 684 1139 960 884 861 549 589 565 732 499 459 800 1478 1951 2031 1981 1931 1873 1877 1706 1700 1738 832
2 126 177 76 1 22 93 176 119 35 65 18 0 0 11 22 63 149 281 338 381 416 319 282 387 435 553 810 691 701 444 353 6 158 266 297 721 1089 1172 1161 1267 1269 1682 1352 1517 1057 1222 1428 1263
7 39 166 51 33 60 248 188 18 405 264 4 0 20 2 50 56 120 114 150 305 238 326 318 229 252 85 378 479 470 491 366 71 37 274 454 536 635 595 827 1048 1177 583 671 748 910 1348 1575 1471
207 160 500 272 247 321 530 471 253 320 293 23 1 29 36 43 60 17 0 0 227 284 293 217 178 109 303 587 315 229 369 388 257 610 642 620 111 119 384 599 743 1078 64 29 547 678 1130 552 461
252 51 604 395 454 773 363 309 210 185 107 18 4 14 42 88 85 2 12 66 210 407 371 7 9 83 390 406 222 123 139 55 248 424 491 347 280 277 119 182 722 767 279 124 383 867 669 275 142
49 43 180 316 473 526 438 281 252 145 112 2 5 3 8 40 70 12 119 126 334 320 86 117 339 151 2 5 30 60 58 223 458 229 106 533 515 313 0 258 590 304 220 606 480 749 609 346 408
184 11 1 228 487 402 184 135 286 102 51 9 13 8 28 2 9 81 94 116 299 200 162 420 355 76 0 0 84 117 183 496 564 187 81 197 528 289 370 519 556 723 1098 277 471 454 332 546 141
36 84 58 274 622 565 176 124 368 130 240 12 11 17 38 32 17 78 256 238 236 160 159 193 271 127 183 36 184 124 476 346 499 490 476 646 503 0 127 729 282 1096 994 186 361 501 652 906 463
0 0 14 235 620 614 252 159 197 254 326 13 3 13 21 16 2 31 231 294 235 167 131 81 117 33 192 298 59 154 95 220 229 322 333 358 979 1100 452 298 689 1124 824 647 243 778 624 173 172
0 0 0 158 365 123 259 29 116 222 346 158 34 11 18 41 7 0 128 263 195 108 86 0 103 25 0 267 329 265 94 17 399 296 43 144 349 1059 239 730 638 546 554 462 290 302 368 740 131
0 0 0 457 237 77 113 206 114 150 264 252 56 11 8 12 4 1 0 42 43 13 133 118 178 0 0 76 304 254 110 308 303 449 241 309 324 894 985 840 450 408 575 734 957 603 843 647 210
0 0 0 136 280 101 98 93 28 0 8 214 110 23 1 25 17 0 0 9 32 4 250 166 299 4 0 64 249 207 147 13 85 279 488 829 620 971 471 682 700 335 832 783 564 204 295 744 25
0 0 0 165 57 44 147 0 184 14 8 188 36 22 1 15 19 0 0 9 76 44 256 237 306 100 0 288 252 306 283 181 52 69 340 1005 869 856 815 637 550 450 166 488 1015 1268 971 572 683
0 0 0 26 41 173 105 85 46 139 383 146 52 34 0 12 27 2 0 9 40 117 286 224 273 301 228 614 393 205 235 368 229 429 200 974 855 884 882 835 382 101 31 312 386 915 876 1168 1023
0 0 30 16 13 16 56 113 24 385 330 310 319 166 85 17 20 43 8 31 37 132 192 530 309 242 25 374 632 470 121 194 154 295 374 776 775 890 1142 858 699 695 362 622 247 458 676 771 982
0 0 0 0 4 7 0 56 26 280 491 334 362 304 137 88 135 17 37 49 62 124 202 614 413 339 159 180 625 496 150 0 47 182 325 480 747 863 841 891 745 563 480 220 437 983 864 762 370
0 0 0 0 0 0 0 20 28 84 442 316 171 105 2 6 258 23 18 46 85 59 226 302 599 431 347 275 535 529 153 35 0 62 324 300 565 578 775 929 885 845 842 674 586 667 748 800 962
0 0 0 0 0 0 109 50 3 5 0 0 0 0 6 163 147 242 34 122 155 80 226 217 577 631 431 535 443 529 527 301 299 210 65 115 258 378 564 1050 1044 945 650 585 970 595 640 803 672
0 0 0 0 0 0 128 53 0 0 0 0 0 0 1 2 3 4 2 0 102 99 140 176 235 730 684 597 505 710 580 609 375 172 8 163 107 743 620 789 946 933 932 739 923 808 404 491 406
0 0 0 0 0 0 87 11 58 0 0 0 0 0 0 4 5 6 4 2 24 30 20 46 71 159 127 104 252 952 1056 830 730 726 632 618 339 500 256 105 126 285 591 984 1082 616 671 675 537
0 0 0 3 1 15 2 11 0 0 0 0 0 0 0 1 1 4 3 3 2 0 2 15 69 1 0 1 71 284 433 781 984 922 940 582 382 164 111 12 0 0 78 603 885 702 948 856 733

GFSSGP_con_sbcape_087.txt.gz
CAPE
24 0 0 0 0 11 25 34 53 148 30 0 0 0 0 0 31 10 29 334 646 1162 1561 1831 2199 1491 1844 2053 1852 1910 1672 1617 1560 1982 2096 2188 2314 2400 2278 2326 2181 2302 2659 2058 2159 1913 1875 2020 1730
0 0 0 0 11 0 12 60 96 145 87 0 0 44 221 336 379 78 329 409 835 1232 1380 1675 2178 2268 2058 2024 1760 1872 1827 1891 2052 1665 1982 2028 2271 2455 2335 2315 2388 2414 2556 2267 2100 1714 1555 1657 1613
0 0 0 29 13 46 0 74 128 280 29 0 61 293 406 432 215 235 302 493 1021 1244 1338 1336 2008 2198 1887 1885 1878 1918 1966 1892 1893 1951 1924 2102 2195 2265 2339 2468 2576 2586 2428 2217 2130 1846 1569 1536 1330
0 12 148 145 10 0 2 103 172 242 187 201 187 153 218 294 243 345 386 768 1017 1252 1024 2015 1991 2006 1933 1804 1843 1965 1745 1797 1749 1808 1762 2015 2176 2257 2391 2394 2389 2440 2274 2242 2267 2110 2012 1885 1751
0 164 164 209 6 0 1 40 83 180 228 250 110 159 155 265 357 413 471 755 1043 1164 1292 1714 2133 2023 1940 1892 1849 1848 1772 1689 1762 1769 1939 2070 2218 2272 2376 2232 2465 2492 2346 2257 2189 2000 1993 2131 2386
56 190 210 53 79 8 19 39 29 170 120 59 91 70 96 264 359 396 458 749 1145 1312 1320 1629 2026 1959 1769 1871 1977 1765 1878 1899 1845 1868 1924 2047 2200 2260 2210 2300 2452 2457 2155 2056 2247 1946 2129 2371 2225
77 378 342 123 39 29 25 46 69 66 40 26 35 49 144 219 267 178 308 631 1021 1354 1201 1221 1453 1624 1864 1956 1561 1705 1711 1536 1606 1742 1930 2029 2189 2115 2269 2215 2100 2440 2072 2074 2270 2158 2136 2512 2373
275 210 384 121 0 9 41 75 90 41 46 45 19 59 121 88 57 57 76 499 787 967 1119 982 1060 1201 1177 1296 1669 1689 1522 1645 1622 1666 1900 2071 1998 2194 2362 2078 2521 2505 2157 2019 2014 2040 1937 2210 2584
555 334 61 99 0 2 17 140 294 341 42 35 46 40 41 0 51 0 211 418 589 953 820 726 798 818 945 1117 1426 1465 1509 1386 1475 1696 2044 1348 946 1185 1707 2089 2079 2074 2037 1987 2023 2056 2083 2183 2515
137 2 13 55 0 1 121 274 333 51 20 82 43 15 0 0 0 28 50 276 391 632 678 596 545 660 743 1187 1015 735 1119 629 775 888 520 460 685 1206 1828 1886 1969 1908 1944 1865 1802 1749 1853 1426 1088
23 90 225 1 0 59 57 140 129 9 65 44 34 14 0 7 0 1 0 95 196 426 489 434 355 491 626 898 691 529 261 230 217 407 351 338 601 1137 1229 1204 1241 1274 1470 1197 1270 1201 1255 1136 780
3 12 278 19 93 134 134 169 137 75 217 14 83 45 0 0 0 95 222 175 297 349 264 233 301 356 262 573 554 400 369 84 1 131 245 421 605 656 814 881 991 1013 486 448 613 712 804 1191 1227
81 308 554 52 63 246 199 224 97 292 503 15 130 114 40 24 36 214 274 204 308 268 224 270 211 191 104 484 353 303 385 282 172 284 349 374 251 231 341 690 712 955 170 37 410 586 668 322 512
104 438 335 297 79 550 457 131 258 202 153 16 33 26 39 61 133 147 125 183 189 204 271 171 185 130 124 428 216 210 228 162 233 480 579 342 0 184 349 277 525 677 375 115 94 586 502 119 42
235 253 144 392 525 451 518 177 209 256 57 22 26 32 26 82 28 21 63 145 214 215 218 108 114 113 183 231 134 84 117 120 363 187 440 364 345 243 3 131 532 307 204 549 428 600 185 146 123
98 176 118 207 477 461 77 228 196 143 121 21 20 64 45 87 53 0 52 157 235 192 124 79 384 134 17 2 60 60 88 282 213 0 199 493 566 403 351 441 491 611 877 265 252 193 216 215 96
0 21 21 450 467 419 181 218 365 230 162 0 11 38 95 74 97 65 121 193 267 130 75 292 57 0 0 34 97 75 224 337 349 62 323 243 521 194 405 547 454 798 781 28 233 307 476 586 252
0 0 52 315 538 310 186 154 202 231 321 0 0 13 5 4 20 60 120 248 191 94 147 143 0 0 0 81 82 141 149 181 165 266 374 614 806 59 476 806 275 1068 650 517 111 410 410 149 132
0 0 0 168 548 384 205 170 256 266 362 10 8 12 3 0 33 107 198 222 147 132 73 88 0 29 60 78 141 73 94 13 285 234 161 210 405 595 413 369 658 484 528 311 298 391 251 398 42
0 0 1 292 166 204 236 158 153 171 367 163 36 9 5 0 59 188 184 187 138 110 51 4 30 0 61 71 129 99 21 49 163 307 175 215 440 512 664 571 416 323 427 415 737 612 504 298 85
0 0 0 175 100 35 146 88 123 149 86 229 357 70 1 0 7 98 157 169 159 103 53 19 22 0 0 113 139 114 60 27 104 277 442 455 611 543 824 510 610 395 751 577 533 178 121 268 82
0 0 0 302 82 124 62 42 10 29 2 11 266 166 3 0 0 49 132 117 117 83 94 40 69 0 0 150 193 276 220 187 59 63 232 502 737 702 585 449 622 320 143 557 764 1262 714 304 532
0 0 0 201 8 55 111 0 0 0 0 0 191 75 13 0 0 3 37 79 47 96 173 80 47 0 1 129 143 145 123 58 124 126 49 562 658 702 798 528 254 187 63 238 470 571 699 825 727
0 0 0 0 0 44 2 3 0 53 47 62 264 93 16 14 0 0 0 8 60 74 212 206 135 8 94 183 132 115 110 251 178 201 109 408 587 610 700 725 320 172 90 187 203 617 458 479 910
0 0 0 35 23 24 0 11 0 27 195 250 201 111 24 27 9 0 0 2 49 58 249 227 156 102 104 292 297 191 103 98 106 158 161 435 532 538 716 579 463 423 339 373 208 397 722 426 172
0 0 0 2 0 0 1 1 0 0 109 177 134 112 40 135 9 18 0 4 21 53 224 310 163 134 13 139 295 256 104 3 0 69 160 267 434 498 566 629 612 394 442 194 233 662 712 588 769
0 0 0 0 0 0 3 0 0 0 0 0 0 0 1 19 80 33 37 27 32 71 146 394 322 163 101 56 136 293 115 35 0 0 83 176 231 309 361 538 802 577 549 362 588 417 371 510 481
0 0 0 0 0 0 22 2 0 12 0 1 2 1 3 1 1 8 28 141 39 38 197 190 520 314 200 150 123 219 273 211 104 100 86 50 80 121 356 614 779 742 669 310 405 587 248 344 263
0 0 0 0 0 0 70 7 0 0 0 0 1 0 2 3 3 3 3 78 140 117 200 130 98 226 114 342 282 357 347 329 241 150 69 0 39 125 474 432 557 680 690 670 726 705 545 430 297
0 0 0 0 0 0 0 0 0 0 0 0 0 0 1 2 3 3 2 3 15 69 162 147 32 2 0 2 36 185 289 514 541 340 444 384 511 211 142 171 119 110 162 400 752 851 791 523 478

GFSSGP_con_sbcape_090.txt.gz
CAPE
64 0 0 0 5 24 61 33 34 0 0 0 0 0 0 50 29 0 15 254 851 1321 1380 1507 2147 1359 1628 1556 2081 1730 1370 1547 2041 2129 2297 2241 2256 2261 2381 2068 2187 2569 2580 2200 1667 1868 1834 1896 2097
0 0 0 0 4 25 42 79 73 119 0 0 0 1 229 383 243 104 259 557 1088 1262 1408 1448 2123 2133 1809 1909 1817 1890 1916 1909 1858 1991 2161 2244 2356 2432 2350 2213 2078 2738 2193 1875 1729 1905 1760 1630 1297
0 0 0 24 0 33 37 63 191 122 0 0 3 323 454 344 44 160 213 766 1077 1192 1167 1325 2039 1982 1905 1699 1887 2020 2028 1938 1826 1937 2100 2068 2267 2387 2287 2182 1923 1904 1973 2133 1855 1741 1610 1623 1634
0 16 200 5 0 26 61 94 228 303 0 0 222 225 304 263 78 264 530 924 1013 977 819 1918 2125 1952 1860 1868 1943 1749 1906 1851 1793 1919 1788 2201 2304 2418 2230 2300 2293 2332 2203 1951 1988 1923 1867 1749 1606
5 153 140 29 0 10 79 121 165 190 340 267 133 168 180 333 253 344 745 932 905 783 1278 1635 2222 1823 1783 1701 1694 1769 1727 1826 1837 1869 2083 2088 2196 2220 2216 2253 2376 2298 2374 2239 1997 1982 2011 2081 2272
58 163 209 47 16 0 44 83 140 127 211 120 56 21 226 266 257 404 686 867 992 1062 1208 1524 1807 1818 1875 1798 1623 1646 1747 1779 1701 1821 2041 2058 2226 2199 2335 2406 2487 2306 2232 2190 1920 2150 2154 2133 1815
43 324 229 140 49 11 74 60 101 132 69 65 36 48 247 204 249 369 626 926 1161 1163 1101 1421 1503 1496 1749 1596 1507 1520 1588 1703 1741 1840 2164 2179 2292 2144 2342 2514 2476 2090 2116 2049 1945 1943 2002 2092 2133
111 319 288 23 27 25 33 84 192 39 4 5 9 1 180 146 94 179 517 726 896 1004 951 959 1040 1037 1006 1186 1753 1582 1669 1543 1653 1837 1954 2158 2239 2139 2032 2781 2649 2166 2120 2104 2020 1921 2429 2371 2248
362 200 99 53 5 21 37 101 203 160 14 10 33 42 68 49 11 179 467 596 813 985 711 639 760 708 880 1075 1322 1279 1373 1530 1746 1507 1922 1306 1120 1303 1606 2443 2339 2138 2080 1905 1988 2088 1984 1917 2291
40 1 13 63 0 28 102 112 201 42 10 26 23 14 37 29 4 97 226 334 560 764 648 466 533 608 768 1145 700 804 746 585 721 442 467 562 931 1853 2042 2037 2061 2078 2004 1908 1852 1878 2002 1347 1349
61 41 208 1 0 94 353 283 91 21 17 1 20 0 8 0 0 0 35 237 299 392 674 389 394 411 561 654 478 262 189 263 372 372 305 569 926 1134 1133 1192 1354 1179 1557 1215 1224 1140 1267 1079 787
0 55 224 6 64 210 182 293 32 128 71 0 8 28 33 0 0 0 0 34 105 361 461 282 270 328 325 516 350 206 184 38 143 215 354 497 652 682 708 923 1031 1006 344 592 525 999 1093 1138 1428
1 291 111 151 98 156 258 178 54 41 24 17 16 37 15 0 0 0 4 14 149 218 192 214 219 193 129 400 240 238 289 8 61 146 383 407 364 252 409 613 786 980 109 242 509 834 901 271 365
124 268 157 167 279 343 294 216 30 33 65 44 35 30 19 10 3 90 139 129 174 148 173 158 196 118 67 210 143 195 226 190 248 535 479 247 88 207 447 310 714 745 575 290 333 704 425 262 174
62 216 363 145 249 382 308 211 174 161 79 86 41 29 40 31 78 154 111 125 161 118 178 149 138 94 63 215 107 108 133 129 279 344 383 286 221 170 47 230 563 392 345 568 620 667 353 364 204
137 85 150 395 418 343 185 93 355 237 34 66 80 82 75 67 96 79 63 102 132 155 167 103 209 108 86 94 69 64 48 241 186 51 327 522 547 405 328 496 509 752 995 344 344 395 458 273 288
0 1 27 329 424 415 245 85 480 82 40 28 46 88 73 102 15 8 45 78 141 117 110 83 163 80 3 0 51 17 71 217 107 39 325 314 638 300 511 568 444 878 752 210 436 482 558 684 357
0 0 0 188 139 456 382 86 212 210 31 25 21 62 78 72 29 7 39 129 172 66 63 112 32 0 0 0 13 77 133 175 213 132 403 485 752 101 578 760 427 1110 797 608 503 483 540 420 242
0 0 0 139 281 468 356 78 142 80 171 2 27 47 97 94 79 38 50 173 140 68 101 72 0 0 0 2 84 69 108 93 180 198 121 419 651 798 502 355 683 558 692 438 646 816 549 699 405
0 0 118 266 575 152 5 103 102 174 287 23 0 0 3 50 41 36 78 164 140 104 77 2 0 0 0 2 49 61 47 36 182 265 190 255 341 680 518 395 400 398 498 416 861 672 601 431 239
0 0 0 139 125 130 94 93 154 102 177 228 167 0 0 0 6 61 99 119 81 77 60 17 0 0 0 22 67 69 39 13 123 237 374 397 540 428 883 515 425 351 637 602 634 338 466 486 299
0 0 0 269 143 64 69 51 67 82 97 46 233 82 0 0 33 128 115 119 102 87 53 29 0 0 0 40 122 156 171 163 33 141 246 438 771 623 647 451 539 436 232 619 818 1322 861 478 868
0 0 0 180 30 73 57 1 0 55 100 71 22 222 0 0 33 143 128 152 141 100 61 37 13 0 0 0 97 92 75 30 60 81 46 318 626 609 782 358 502 285 190 293 618 795 988 965 930
0 0 0 0 0 32 18 9 0 7 14 50 35 86 4 0 1 125 152 150 114 72 72 40 19 0 0 0 0 50 89 89 120 127 81 204 598 643 689 603 212 190 106 225 375 897 594 630 1109
0 0 0 0 3 0 0 7 0 0 1 0 11 89 26 0 0 12 86 46 61 58 153 111 36 7 0 1 0 0 36 132 120 106 125 287 510 568 751 679 519 405 316 395 222 589 931 415 450
0 0 0 0 0 3 0 0 0 0 0 105 112 46 5 5 0 0 0 30 49 59 184 144 108 44 3 115 121 58 0 43 22 41 140 300 430 525 650 743 696 557 372 211 337 676 804 894 907
0 0 0 0 0 0 0 0 0 0 0 0 5 5 9 54 21 2 0 22 3 18 71 131 120 76 25 122 159 132 40 0 0 0 60 174 257 394 511 587 699 669 547 468 424 594 657 661 618
0 0 0 0 0 0 22 0 0 15 1 4 3 2 3 3 2 17 27 15 1 14 48 184 119 72 36 7 30 146 103 0 0 15 15 80 115 295 216 458 570 550 577 532 522 635 383 558 425
0 0 0 0 0 0 15 0 0 0 0 1 1 3 2 3 3 2 3 49 14 45 166 233 338 379 83 6 56 136 175 178 157 67 76 55 26 27 80 307 582 687 416 652 448 583 622 542 419
0 0 0 0 0 0 0 0 0 0 0 0 0 5 2 2 3 2 3 2 98 78 215 128 105 59 24 5 45 174 258 304 351 122 230 292 242 107 99 208 401 519 569 617 799 828 951 662 639

GFSSGP_con_sbcape_093.txt.gz
CAPE
6 0 0 30 0 90 94 124 76 0 0 0 0 0 6 99 95 0 99 544 955 1145 1313 1622 2010 1456 1542 2044 1909 1350 1693 2230 2189 2224 2265 2332 2335 2158 1968 1949 2251 2262 2314 1852 2038 2091 2006 1939 1853
0 0 0 80 3 54 80 115 0 0 0 0 0 0 129 537 199 151 492 719 1065 1118 1324 907 2288 2182 2084 2034 2037 1934 1685 1980 2029 2151 2295 2289 2214 2163 2203 2034 2334 2311 2271 2177 2019 1808 1558 1232 760
0 0 125 54 0 24 79 162 234 13 0 0 26 328 554 382 76 311 430 954 1088 1343 778 1765 2141 2032 1948 1761 1803 1878 1907 1697 1954 1870 2091 2240 2280 2113 2167 2023 2032 2251 2509 2452 1887 1920 1965 1859 1735
0 107 506 1 0 12 33 149 198 0 0 0 272 469 265 275 146 426 692 938 1067 722 760 1997 1955 1999 2031 2093 1934 1905 1961 1842 2010 2062 2041 2227 1998 2273 2113 2318 2325 2320 2052 2017 1845 1781 1851 1773 1443
12 415 2 0 0 5 138 210 267 0 0 0 312 194 150 351 488 468 834 745 491 436 1755 1783 2135 1829 1830 1871 1867 1797 1732 1784 1810 1971 2154 2287 2292 2297 2296 2311 2271 2337 2288 2088 2105 2209 2238 2191 2140
143 318 260 11 0 6 157 167 260 212 81 97 181 67 60 418 391 576 751 775 187 1201 1049 1310 1725 1537 1861 1647 1663 1753 1811 1865 1971 2046 2027 2218 2040 1982 2031 2131 2359 2436 2171 2114 2200 2153 2144 1941 1859
37 438 234 7 58 8 128 153 229 255 242 182 103 2 120 299 379 659 916 718 280 896 1267 1282 1100 1790 1575 1403 1566 1735 1722 1888 1960 2067 2198 2225 1966 2004 2220 2252 2278 2290 2108 1952 1975 2072 2072 2202 1485
44 402 206 79 32 108 102 64 191 180 136 69 0 0 40 217 441 777 887 606 384 968 1066 1449 1553 1519 1269 1333 1621 1525 1638 1747 1929 2024 2164 2108 2153 2055 2235 2439 2548 2174 2074 1958 2013 2038 2066 2228 1928
268 428 232 30 21 110 96 132 123 60 3 48 76 1 72 314 370 555 773 451 453 821 1025 1202 1038 1240 1645 1436 1479 1488 1531 1693 1969 2121 2037 2082 2028 2055 2237 2430 2308 2108 1894 1939 2071 1995 2025 2212 2356
120 343 117 52 25 87 175 120 50 32 85 109 108 125 208 254 285 336 367 442 466 749 994 1191 970 1126 1347 1336 1438 1752 1705 1791 1648 1814 2044 2127 2223 2423 2014 2237 2157 2048 1908 2013 2067 2146 1913 1567 2359
143 247 295 40 44 163 130 118 30 32 16 24 86 107 190 195 235 241 77 393 458 785 790 1016 1011 1365 1431 1661 1263 1062 1241 1265 1373 1463 1724 2180 2115 2025 1926 2060 1681 1706 1618 1377 1428 1423 1438 1618 1449
2 124 235 21 175 273 111 96 0 0 41 25 24 129 171 171 158 47 0 223 394 618 703 716 734 1217 1292 1126 846 817 924 1042 1069 1208 1538 1840 1619 1738 1824 1800 1829 1480 1352 1725 1901 1895 2015 1914 1912
50 305 106 137 261 135 169 42 31 90 8 28 80 133 103 30 0 0 0 100 207 331 598 488 659 1069 1173 1039 940 819 806 876 968 1233 1460 1474 1287 1533 1722 1825 1872 1641 1253 1628 1946 2135 1609 1330 1185
194 363 205 227 260 146 53 44 32 53 9 34 59 44 55 58 46 0 0 0 143 181 295 374 478 855 992 1044 1219 1216 1013 1163 1063 1163 1220 1322 1159 1527 1521 1639 1765 1782 1532 1514 1973 1871 1578 1301 1573
398 359 348 309 319 217 190 74 47 78 31 22 16 52 72 104 116 24 0 0 155 234 274 327 392 563 849 1053 1190 1184 1128 1090 1392 1392 1483 1016 1366 1257 1392 1610 1470 1477 1784 1765 2044 1575 1579 1288 1072
291 413 384 315 273 210 145 152 162 130 75 60 60 62 81 123 197 119 32 13 248 300 495 474 182 465 585 1028 1166 1052 1040 1246 1148 1392 1349 1372 1589 1573 1579 1568 1726 2083 1645 1564 1675 1540 1536 1281 1231
11 318 251 322 318 257 157 55 310 126 165 93 110 108 95 175 239 329 173 213 349 490 587 576 628 696 714 1026 1002 1013 1153 1248 1111 1269 1387 1766 1707 1546 1834 1609 1663 2117 1258 1517 1647 1575 1776 1570 1404
98 95 197 343 379 321 130 260 238 156 211 165 142 146 165 143 268 344 333 260 452 562 685 675 693 885 942 804 1080 958 1061 1446 1110 1149 1473 1427 1487 1332 1998 1861 1653 2207 1925 1730 1713 1944 1796 1687 1645
52 33 0 68 330 303 205 319 214 127 177 178 188 185 175 163 271 271 300 361 461 624 699 795 842 927 694 816 970 1023 1029 1370 1351 1051 1459 1652 1989 1517 2022 1694 1924 1798 1941 1760 2210 1902 2156 1646 1694
0 0 1 411 369 252 167 123 91 275 159 204 217 230 184 264 306 188 247 374 473 688 770 867 928 902 783 870 947 959 1148 1002 1255 1344 1303 1404 1649 2034 1692 1853 1864 1763 1674 1932 2351 2216 1562 1501 1446
0 0 343 250 181 23 9 26 74 175 508 193 204 218 248 265 268 265 265 378 474 649 805 885 963 874 771 768 899 958 972 985 1233 1350 1266 1131 1536 1558 1968 1657 1564 1807 1797 1629 2026 1882 2200 1520 1747
0 0 1 466 251 173 74 8 19 144 314 414 154 138 180 263 275 320 371 443 418 568 705 833 915 733 650 897 965 1220 1326 1643 953 1167 1416 1440 1531 1440 1779 1890 1756 1976 1864 2091 2269 2185 2133 2081 2097
0 0 0 383 181 242 50 13 15 173 270 534 513 193 78 97 209 308 376 507 430 516 580 703 783 683 550 794 1041 1038 1584 1040 991 1036 1504 1717 1966 1763 1667 1691 1993 1883 1451 1964 2220 2422 2665 2218 2060
0 0 0 90 127 17 149 77 0 253 424 404 437 439 197 33 122 296 154 377 465 450 459 524 797 708 844 810 972 1230 1142 1440 1172 1242 1162 1268 1654 1826 1889 1606 1819 1745 1510 1825 1904 2348 2236 2253 2183
0 0 0 1 15 0 12 215 54 192 100 170 202 443 480 69 91 322 299 364 448 402 338 133 708 922 630 747 973 1094 1139 1337 1461 1310 1227 1071 1703 1999 1763 1894 1827 1502 1632 1498 1726 2543 2350 1863 1605
0 0 0 0 5 0 25 10 45 44 36 230 356 343 529 257 69 218 436 306 74 123 337 301 528 853 700 534 786 1056 1113 922 1095 1193 1239 1174 1747 2423 1864 1852 1871 1734 1720 1639 1728 1511 1839 2166 1914
0 0 0 0 0 0 55 107 98 118 188 308 327 281 463 316 53 165 477 469 326 50 306 577 631 774 591 542 659 885 989 1012 1087 1206 1229 1292 1472 1255 1727 1786 1709 1957 1821 1667 1504 1277 1896 2113 2018
0 0 0 0 6 6 101 120 217 286 168 125 211 131 203 278 111 131 291 423 419 130 43 279 219 612 832 549 677 1061 1224 1113 1032 857 779 1009 1197 1377 1508 1613 1711 1781 1897 1800 1738 1624 1643 1944 1760
0 0 0 0 0 3 14 43 177 356 283 90 31 47 17 26 49 50 189 215 240 116 30 268 434 691 510 165 374 643 1067 1040 1072 1113 1159 1135 1077 920 1200 1377 1354 1703 1738 1748 1780 1700 1795 1736 1821
0 0 0 0 0 22 29 27 0 36 222 105 40 54 25 4 3 6 35 193 312 225 202 271 630 751 712 524 234 232 758 805 1146 1338 1153 1267 1120 1041 1035 1026 1272 1293 1258 1709 1877 1755 1273 1690 1754

GFSSGP_con_sbcape_096.txt.gz
CAPE
0 0 12 490 412 327 135 103 0 0 0 0 0 0 9 327 75 80 259 670 740 697 1036 1461 1714 1335 1657 1825 1327 1777 2244 2402 2330 2306 2362 2355 2167 1878 2122 2168 1586 1988 1981 2035 2059 2058 1996 1597 997
0 0 171 320 163 170 209 0 0 0 0 0 0 36 207 435 6 108 561 801 603 960 1274 545 2156 1789 2035 1983 1716 1670 1987 1993 2098 2270 2380 2266 2255 2368 2652 2234 2019 2020 2203 2058 1593 1459 877 1269 1370
0 10 746 50 70 144 187 0 0 0 0 0 0 518 808 30 20 340 727 867 856 1039 470 1585 1862 1980 1867 1816 1986 1921 1838 1901 2094 2163 2275 2340 2177 2338 2420 2224 2077 2059 2024 1742 1956 2099 2000 1796 1615
7 515 1 29 182 182 139 11 0 0 0 11 288 678 343 8 271 563 912 947 1099 618 1090 1830 1789 1675 1584 2010 1999 1948 1904 2030 2183 2237 2191 2177 2295 2321 2193 2288 2176 2062 1964 1849 1912 2020 1994 1618 1945
236 164 1 1 135 203 208 41 0 0 11 494 586 645 40 251 454 782 860 908 582 542 1068 1596 1870 1834 1994 1946 1884 1796 1836 1938 2114 2168 2246 2270 2239 2168 2332 2396 2249 2226 2274 2244 2317 2369 2342 2407 2035
326 445 15 157 49 131 292 259 0 0 0 250 312 69 79 378 613 792 721 476 297 586 853 1279 1755 1847 1752 1729 1880 1895 2043 2007 2100 2138 2165 2028 1957 2136 2256 2388 2408 2145 2285 2335 2329 2266 2116 1844 1634
386 566 533 66 28 63 214 522 232 2 11 14 129 100 222 355 681 668 629 178 325 403 947 1054 1282 1572 1658 1689 1843 1895 1954 2131 2226 2050 2020 2084 2112 2203 2341 2504 2327 2174 2049 2107 2139 2172 2287 1458 1126
372 559 136 26 39 52 231 480 351 303 437 303 204 114 167 501 647 688 526 86 215 691 1010 927 1112 1177 1166 1334 1692 1741 1952 1906 1992 2287 2046 2735 2073 2095 2152 2684 2662 2105 2030 2248 1979 2146 2285 1965 1367
317 719 214 209 8 254 323 508 544 398 402 259 237 0 156 451 659 632 277 82 305 633 752 485 567 1185 1475 1427 1582 1705 1916 2035 2186 2220 2093 2114 1877 1963 1704 2327 2186 1945 2001 2140 2156 2155 2311 2438 2096
461 735 278 489 65 486 408 525 452 377 390 274 0 61 223 372 504 365 139 112 202 542 516 217 574 635 803 399 1446 1426 1453 1667 1551 1898 2066 2183 2139 2098 1654 2143 1957 1906 2049 2138 2191 2234 1896 2054 1755
524 432 609 280 192 376 440 479 282 393 387 298 114 171 259 330 359 165 100 124 152 509 303 212 728 1116 760 683 654 1110 1220 1216 1708 2023 1896 1723 1382 1254 1178 1436 1576 1625 1877 1644 1843 1745 1670 1851 1696
256 479 422 269 454 332 432 352 206 246 100 158 90 152 223 277 214 65 28 106 235 470 192 263 680 1183 1071 854 570 669 855 1062 1045 1275 1411 1489 1227 1284 1372 1391 1609 1544 1554 1890 1930 1920 2125 2062 2161
422 474 319 387 553 203 300 127 96 125 44 92 1 121 185 181 103 32 0 70 229 251 63 274 712 1359 1394 972 796 875 964 704 617 1171 1461 1314 1457 1805 1679 1997 1664 1514 1477 1801 1977 1765 1775 1663 1732
463 373 358 418 417 138 123 78 103 107 64 15 42 113 85 72 50 17 0 12 171 87 25 366 758 1274 1225 1292 1269 1082 719 778 901 1209 1737 1681 1491 1793 1710 1896 1764 1515 1430 1688 1815 1911 1474 1273 1296
284 456 352 592 326 187 135 120 214 84 45 53 62 49 48 44 0 0 0 130 130 49 77 529 751 1011 1224 1419 1409 1087 946 900 1035 1328 1695 1637 1652 2163 1828 1734 1574 1597 2085 2170 1841 1560 1385 1004 933
660 633 560 470 569 337 53 207 102 80 45 13 29 81 92 94 25 0 0 89 100 69 230 456 322 748 1043 1244 1341 1220 1305 1167 1097 1145 1382 1749 2084 2156 1933 1537 1566 1972 1758 1625 1451 1282 1089 1088 1034
253 544 527 581 300 287 117 102 548 90 61 36 67 104 149 95 41 52 50 133 184 329 428 479 519 656 977 1424 1131 1206 1575 1417 1365 1414 1331 2018 1976 2131 1699 1581 2070 2173 1505 1552 1311 1427 1516 1353 1231
120 477 787 774 405 39 165 3 371 134 100 106 84 124 166 133 102 166 206 298 258 445 694 713 880 1108 1208 1395 1513 1124 1235 1466 1280 1420 1515 1868 1821 2187 1846 1804 2064 2042 1681 1532 1593 2048 1662 1572 1461
77 58 494 614 573 130 145 108 188 168 159 119 112 148 153 173 210 279 259 343 440 390 683 966 1114 1480 1688 1564 1094 1086 1165 1339 1122 1327 1880 1873 1880 1774 2120 1589 2042 1962 1924 2252 2250 1631 1949 1110 1180
68 332 373 546 712 356 122 182 225 260 184 300 93 112 143 188 253 333 389 408 530 751 631 878 1232 1744 1548 1374 1396 1023 1060 1198 1273 1339 1774 1741 1746 1990 2019 1835 1751 1932 1826 2218 2456 2501 1413 1106 1809
8 230 133 540 322 209 197 101 54 66 171 248 188 156 210 288 357 430 478 477 555 874 1119 1148 1382 1612 1608 1215 1343 1524 1847 1560 2104 1663 1681 1604 1699 1780 1990 1946 1708 1979 2237 1744 2114 2111 2450 1104 1744
1 0 247 709 335 155 59 44 11 1 99 290 272 339 205 399 473 555 539 620 610 766 1161 1298 1502 1709 1630 1610 1177 1217 2102 1444 2096 1343 1370 1577 1674 1482 1596 2049 1926 2227 1656 1909 2260 2051 2063 2766 1564
2 0 30 209 283 213 178 87 14 17 17 496 719 373 232 272 357 524 652 671 697 703 1023 1259 1562 1735 1277 1638 1260 1050 738 1819 745 1209 2003 1759 1913 1745 1473 2040 2046 2364 1803 2417 2260 2445 2606 1791 1929
0 0 0 164 256 263 135 43 2 51 70 124 692 705 486 335 359 449 610 722 876 735 921 1104 1579 1812 1548 1487 1570 1464 1072 833 1943 1885 1461 1486 1564 1877 1727 1835 2121 2202 1928 2062 1992 2473 2470 2455 2241
0 2 2 33 106 94 244 103 21 8 304 239 647 722 701 426 372 455 645 749 983 936 958 1040 1496 1707 1513 1410 1294 1440 1301 1127 1007 1291 1941 1174 1977 1634 1918 1976 2084 1865 2224 1914 1723 1909 2169 2056 1842
0 0 44 47 119 67 16 157 137 371 357 407 727 682 877 824 432 376 637 421 676 1044 963 666 1276 1643 1580 1426 1582 1607 1609 682 1141 1062 913 2129 1632 1141 1621 1330 1391 1729 1784 1975 2155 1748 1465 1656 1754
0 0 0 31 34 83 68 47 317 327 489 729 855 685 771 1059 741 488 710 900 1027 793 778 507 501 945 1487 1338 1439 1492 1664 1492 888 1009 1060 2793 1919 1541 1363 1081 1101 1160 1442 1837 2007 1346 1951 2105 2004
0 0 45 3 93 67 119 102 44 573 647 619 935 907 822 1024 1069 731 739 893 632 336 296 279 797 953 1117 1063 1207 1213 750 736 686 1092 1261 1378 1420 1930 1406 1329 1184 1192 1307 1785 2262 1405 1657 2133 1837
0 0 0 37 47 82 87 124 625 712 884 740 611 515 762 1048 1007 785 899 1079 1012 438 175 176 266 377 1085 1069 1198 1078 926 705 734 729 901 944 1372 1775 1961 1542 1137 1312 1134 1231 1755 1648 1556 1924 1724
0 0 0 0 43 38 85 325 480 791 923 778 375 366 302 364 317 435 802 869 820 847 321 129 173 200 411 1188 1079 738 906 826 729 781 845 1190 1085 1793 1617 1561 1630 1614 1328 1545 1565 1497 1297 1666 1451

GFSSGP_con_sbcape_099.txt.gz
CAPE
0 2 136 690 917 622 219 5 2 0 0 2 0 34 188 270 251 284 369 644 513 705 886 1467 1389 1136 1646 1477 1812 2205 2291 2331 2377 2371 2204 2038 2087 2156 2338 1995 2066 2097 2108 2046 1907 1708 834 935 1712
1 46 576 730 614 210 42 0 0 0 0 0 1 264 74 45 199 317 572 447 587 745 1005 509 1805 1720 1668 1320 1729 1975 1940 2218 2375 2427 2354 2254 2370 2340 2083 2118 2137 2380 2401 1683 1313 1252 1460 1434 1726
14 237 1008 73 61 193 13 0 0 0 0 0 329 473 2 152 235 512 470 793 939 794 464 1767 1774 1790 1737 1730 1812 1907 1864 2193 2251 2402 2375 2264 2114 2276 2072 2105 2173 1746 1728 1860 1781 1800 1821 1593 1730
109 594 13 526 189 59 0 0 0 0 0 104 460 31 6 182 478 418 502 731 773 712 762 1444 1690 1656 1708 1958 1882 1815 1922 2220 2309 2353 2212 2232 2355 2244 2179 2038 2027 1863 1888 1969 2065 2155 1814 1902 1795
268 4 83 137 148 23 43 0 0 0 115 320 276 7 78 287 483 687 525 572 538 567 706 1072 1683 1827 1766 1757 1827 1903 2056 2246 2197 2307 2199 2236 2387 2440 2167 2059 2128 2192 2344 2335 2289 2518 2353 1687 1674
311 151 180 231 99 62 60 0 0 459 320 391 170 16 307 520 451 548 652 496 417 604 689 995 1771 1756 1661 1857 1830 1973 1943 2182 2249 2128 2115 2208 2056 2426 2265 2269 2330 2347 2374 2352 2291 1843 1470 1485 1255
425 556 613 254 163 92 180 3 12 48 35 339 210 145 325 484 398 461 217 212 175 505 607 718 1088 1594 1840 1762 1896 1963 2053 2184 1970 1952 1976 2294 2374 2389 2549 2351 2293 2164 2220 2107 2296 2254 1449 1153 1056
527 149 220 56 222 239 254 135 0 6 30 150 148 174 367 532 469 365 70 73 496 411 416 584 1072 1393 969 1407 1855 2004 2104 2167 2151 2046 2100 2442 2323 2460 2534 2697 2532 2192 2239 2015 2208 2370 1859 1527 1257
550 751 302 112 147 240 307 284 262 386 387 363 329 83 340 320 440 226 45 53 589 663 236 500 600 1018 1210 1020 1648 1959 2071 2303 2182 2039 2080 2111 1853 1657 2131 2426 2105 2111 2202 2266 2207 2351 2425 2204 1933
554 970 258 415 160 421 480 399 338 383 304 350 35 102 270 322 353 155 28 50 263 183 146 520 740 860 1118 541 1678 1536 1458 1703 1844 2166 2175 2896 2111 2267 1281 1919 1944 2097 2226 2372 2403 2295 2789 2886 1950
544 625 643 597 540 559 522 385 476 245 252 75 104 181 250 318 302 122 40 47 206 128 13 599 1105 315 210 1031 851 1503 1453 1135 1949 2335 2622 2753 1055 1169 1142 1679 1832 1974 2233 1974 2299 2059 1773 1228 1679
319 503 521 469 439 594 506 567 340 158 249 146 155 174 204 228 175 53 52 65 153 74 14 612 759 787 381 401 663 1036 817 1054 1950 1799 1448 1402 996 1527 2132 1926 1359 1976 1988 1862 1957 1571 1854 1356 1402
388 463 431 383 390 537 419 227 145 249 139 163 106 166 190 168 89 51 40 36 235 10 19 697 1134 1239 977 505 551 937 701 797 996 1350 1256 1128 1707 1695 1812 2199 2082 1876 2334 2501 1662 1328 1480 1408 1196
516 528 385 459 630 650 310 143 92 80 37 107 106 150 174 142 96 44 26 25 179 7 104 677 874 1163 1625 915 977 862 775 590 865 1037 1486 1703 1963 2466 1842 1801 2442 1416 2512 2690 1406 1752 1102 1396 608
555 442 401 451 544 187 120 138 105 46 72 76 115 145 148 110 94 24 12 209 118 15 257 657 719 802 1650 1594 999 1067 567 711 1200 1403 1763 1697 1788 2261 2144 1946 2158 1765 1753 2060 1928 1279 1056 552 371
1004 409 367 435 441 296 243 233 119 47 72 97 117 115 90 83 55 11 77 201 127 27 342 364 356 497 889 1636 2134 2076 1132 1239 1619 1339 1552 1985 2210 1937 2352 1529 2224 1404 2454 1036 1412 800 725 703 784
821 327 414 456 403 255 217 294 315 84 75 102 107 87 92 92 46 16 88 137 150 184 361 337 523 696 1352 1002 1441 1825 1560 1913 1524 1591 1949 1981 1936 2120 2574 2921 2004 2753 1761 1239 1699 709 1758 932 749
325 88 557 695 456 267 10 0 140 129 85 82 100 120 110 64 41 52 76 142 200 352 442 370 395 1611 1723 930 1086 1538 1567 1753 1677 1829 2029 1855 1846 1922 2586 1726 1683 2653 2465 1395 1779 3346 1093 1478 1259
33 4 3 574 97 29 102 18 107 108 32 181 115 105 118 61 71 102 120 142 212 413 523 597 1772 1325 1365 1397 1047 1701 1554 1510 1316 2029 1688 1800 1774 1880 2316 2196 1978 2192 3085 2770 1612 1741 2219 717 826
107 113 52 109 167 14 78 38 110 79 8 39 224 122 128 117 99 134 135 161 149 329 588 836 1519 1850 1918 1425 1944 1991 1463 1802 1727 2003 1690 1764 1671 1954 2072 2538 2078 2584 1903 2205 2140 2468 2201 718 958
31 219 12 11 210 10 49 74 149 124 59 55 257 254 117 136 158 142 165 132 250 455 508 803 1135 1837 1592 1458 2128 1704 2050 2209 1598 2018 1771 1758 1691 1758 2150 2206 2166 1923 3153 2194 2256 1773 2397 1921 964
22 124 27 32 402 546 92 82 173 58 50 78 354 125 112 102 93 166 193 224 235 753 853 1084 1152 1684 1673 1215 2304 1235 1897 1806 1383 1365 1772 2257 1674 1562 1770 1879 1940 2422 2686 3898 2683 1698 3403 2691 1165
2 1 370 242 247 282 196 93 145 101 35 4 413 192 77 163 174 252 233 308 248 647 900 1153 1387 1559 1605 1546 2000 1338 1329 1884 1302 1391 1977 1536 2064 1658 1362 1760 1888 2215 2081 2089 3511 2452 3053 1736 2639
39 0 22 338 385 141 105 87 125 42 26 35 76 160 244 197 234 477 203 437 378 611 1213 1125 1671 1906 1579 1690 1570 1368 1194 1254 1998 1163 1806 1542 1893 1614 1649 1770 1982 2227 2307 2269 2163 2384 2402 3597 3315
53 5 64 100 149 165 59 75 36 88 14 70 124 399 310 111 213 225 313 296 798 911 1258 1564 1858 1973 1757 1649 1368 1124 1324 1377 1346 1736 769 652 887 1294 2415 1953 1880 1963 2285 1899 2072 2358 2451 2230 2752
12 42 99 119 86 101 146 130 58 39 32 53 235 493 771 540 164 251 572 449 862 1122 916 1272 1843 2158 1762 1552 1520 1375 1229 950 801 1222 2211 936 884 852 2699 1745 1679 1631 2025 1960 1821 1586 1555 2527 1823
0 77 79 20 60 23 53 314 311 129 113 302 507 512 724 747 370 422 516 879 1309 1109 1349 1439 1949 2232 1793 1473 1566 1645 1527 1424 1481 1387 1473 1377 1790 1855 1402 1208 1248 1443 1571 1776 1840 1453 1507 2131 2198
0 20 113 85 101 68 76 133 150 456 526 572 616 930 979 872 941 578 1064 1036 720 454 1545 904 812 1402 1684 1575 1438 1579 1477 1275 1012 1073 1234 1390 976 1395 1608 928 1096 1165 1223 1455 1833 2307 1952 1867 1849
0 0 34 93 88 89 158 265 336 747 916 983 1055 1125 994 1071 1217 1545 1300 1235 1446 1203 1054 824 1346 1387 1534 1582 1540 1907 1391 1623 1426 965 836 1057 1145 1466 1219 1452 1348 1344 1455 1529 2215 2473 1836 2103 2066
0 0 0 26 105 69 31 336 458 844 1087 1264 1266 1283 1511 1681 1604 1380 1208 1501 1153 1047 219 418 207 306 203 960 1253 1418 961 1163 1397 914 907 916 1273 1352 1373 1507 1602 1719 1499 2032 2196 1743 1478 1775 1637

GFSSGP_con_sbcape_102.txt.gz
CAPE
0 0 26 633 863 949 80 30 13 14 17 5 90 122 157 174 73 111 293 372 374 672 1062 1531 1805 1263 1470 1554 1993 2078 2263 2251 2299 2407 2225 2082 2078 2244 1611 1968 1868 2013 1881 1729 894 1160 1483 1684 1839
0 71 297 654 515 130 39 8 4 3 0 279 179 17 131 92 222 314 329 563 621 690 540 272 2222 1704 1211 1838 1933 1890 2066 2270 2287 2182 2316 2182 2139 2644 2107 2124 2050 2492 2138 1451 1562 1572 1521 1790 1563
0 160 961 38 5 142 0 5 1 0 0 402 444 57 80 99 218 269 567 792 501 622 647 1630 1853 1798 1696 1828 1750 1853 2018 2243 2223 2262 2200 2198 2047 2190 2045 1952 1837 2032 1869 1912 1961 1701 1650 1527 1530
42 509 59 50 35 49 0 0 0 0 139 239 99 37 255 279 256 494 563 255 569 703 1082 1914 1855 1842 1912 1924 1834 1890 2153 2282 2511 2366 2157 2175 2092 1949 1991 1833 1834 2065 2066 2112 1999 2039 1661 1389 1259
182 40 155 92 98 5 0 0 0 2 369 29 9 14 293 505 524 597 414 557 491 529 839 1194 2037 1795 1935 1945 1994 2091 2155 2251 2366 2453 2397 2168 2021 2116 2016 2067 2302 2243 2247 2358 2356 1862 1487 1264 1148
236 12 59 190 36 22 0 0 7 284 362 282 2 35 306 510 225 134 522 225 449 546 699 1164 1926 1856 1842 1866 1997 2037 2207 2242 2265 2644 2288 2515 2580 2803 2296 2468 2609 2304 2167 1887 1461 1319 1253 982 1017
264 529 516 136 39 12 0 0 224 170 49 6 47 88 258 368 247 493 29 266 599 412 533 866 1220 1769 1908 2046 1822 1992 2132 2108 2067 2243 2351 2840 2536 2350 2714 3066 2461 2087 2116 2225 1575 1280 1057 889 926
468 211 262 131 72 38 0 33 160 89 68 35 21 219 284 273 414 391 222 360 372 430 490 973 1239 1132 1334 1452 1932 2093 1979 2035 2188 2227 2438 2890 2783 2330 2214 2774 2839 2034 2030 2177 2156 1651 1295 1172 1035
545 107 81 46 98 67 18 2 54 73 97 90 170 145 194 61 58 61 471 409 52 462 688 909 667 1075 1707 1792 1925 2090 2164 2149 2408 2101 2482 2486 1892 2092 1981 2513 2552 2128 2111 2155 2353 2238 1922 1498 1277
641 345 91 11 76 75 122 57 148 212 250 162 52 120 82 116 70 51 57 171 204 424 458 627 755 630 790 842 2112 2255 1607 1723 2047 1965 2109 2338 2544 2366 1380 1886 2173 2111 2097 2243 2641 2731 2336 1662 1854
315 158 290 249 223 77 305 128 257 181 255 144 31 29 63 81 60 49 65 86 89 196 590 500 783 1375 827 1623 1980 1374 2057 1891 1612 2220 2682 2848 1579 1292 1335 1790 2016 2051 1977 1720 2178 2643 2371 1221 1249
201 377 563 508 482 167 253 311 171 196 117 19 111 46 22 57 61 63 60 56 47 289 721 315 985 1801 1079 1321 1451 1694 1801 1629 866 1364 2046 3161 1568 2256 1035 1772 299 1269 1811 1375 1843 2194 2656 1479 1371
217 301 405 174 322 248 375 463 327 168 72 13 114 93 44 77 62 66 63 37 9 92 784 462 1256 1705 1990 1270 1121 1502 1131 1355 1863 1978 2067 2114 1571 2940 1741 660 916 473 510 1347 2339 1945 2106 2289 1606
496 414 388 395 181 416 309 107 144 106 51 9 107 80 60 67 60 63 67 99 13 216 1036 620 708 1498 1767 2517 2837 843 763 1304 1692 2427 1512 1759 1294 2119 1238 523 1745 1499 1178 2518 1437 851 973 2070 1073
273 520 449 622 661 438 122 104 125 31 47 34 64 73 84 72 70 61 46 64 9 67 890 819 823 808 1740 1954 2066 1896 986 1317 1697 1816 1788 1141 2574 1449 597 1106 1929 2556 2538 2194 3024 3033 2021 1394 1178
558 534 515 394 491 111 98 170 159 32 49 62 73 90 100 88 37 44 71 67 48 225 932 758 639 829 1268 2092 2145 1300 1221 557 1653 1993 2544 2816 2749 2036 1689 2306 2411 3177 3668 3533 2177 2432 2425 1834 1902
771 653 525 456 396 391 317 208 172 60 47 78 101 98 97 113 30 42 142 113 96 509 610 139 945 1015 1171 2829 1317 2225 1289 1756 1774 2252 2185 2820 2715 1491 2933 1634 2288 2743 3335 497 1319 1621 2182 2200 1323
314 434 463 431 248 145 154 34 113 175 108 111 96 71 88 70 45 28 133 76 198 434 518 756 1037 1792 1936 493 1170 1938 905 1204 1362 2039 2766 2899 2420 2588 2751 2980 2895 2105 3068 1062 3062 2728 1719 3245 962
0 249 344 0 20 66 62 9 25 141 171 138 59 70 89 71 36 55 113 171 192 396 895 1119 1114 2020 1418 1911 1033 1534 1531 1566 1907 1369 2841 2991 2621 2338 3529 3123 2948 775 1919 2883 2986 2818 3154 3110 2792
74 54 95 0 0 56 43 26 23 90 69 54 106 17 110 69 58 81 89 135 82 479 945 1926 2298 2454 2332 2243 2325 1811 1076 2048 2022 2554 2857 2499 2095 2783 2753 2745 2750 645 2033 3435 3156 3568 3724 2228 2364
148 130 3 1 0 9 55 77 188 117 84 48 32 30 133 97 49 107 121 63 210 754 1163 1229 1273 2718 2517 2196 1066 1813 493 1972 1006 2279 2583 2446 2094 2564 2020 2445 1737 2343 1467 2168 3388 3557 3727 2870 2031
268 54 2 3 0 49 108 61 115 33 48 10 14 26 125 75 136 174 103 82 83 489 909 1993 2007 2403 1885 954 1354 1982 1797 380 1505 1750 667 981 2771 2305 2584 2552 2201 2052 899 1093 2856 3400 3708 3829 3066
5 152 102 30 0 25 83 83 44 127 27 3 8 36 108 107 133 55 105 61 269 345 523 1240 2295 2660 2486 2608 1966 2239 1924 1849 1545 1324 838 1096 2247 2595 2069 2793 2717 2642 1995 1561 1026 2603 4183 3740 3339
3 131 105 17 3 98 137 159 130 125 86 62 7 56 143 122 63 55 125 87 637 562 825 1396 2339 2706 2903 2598 2507 2227 1800 1500 1547 306 1169 1210 1969 2367 3000 2071 3182 3059 958 1432 2766 3246 3377 4160 3764
89 81 128 176 101 132 117 107 204 117 80 56 15 96 124 206 161 162 122 177 442 808 1021 1519 2267 2429 2515 2170 2080 1947 2089 1538 1932 2622 909 1554 462 218 1032 2820 2361 2690 2466 2431 2535 2843 3434 3772 3474
88 152 14 71 107 205 117 112 258 92 8 0 64 108 139 140 221 219 202 19 702 1189 1497 1431 2165 2553 2381 2018 2433 2631 3015 1877 1867 2532 1527 322 355 127 1117 2037 2149 2592 2586 2752 2764 2726 2589 3066 3142
58 10 27 17 13 121 122 148 246 9 1 7 59 117 42 30 51 195 111 272 73 12 827 1180 2069 2018 2402 2043 2557 2432 2059 2214 1924 1906 2727 2048 294 58 4 0 1638 2277 1832 2097 2149 2656 2538 1074 657
5 23 7 114 54 79 104 65 144 131 104 110 141 108 0 12 82 91 96 13 0 0 195 1212 2327 2014 2067 1515 2071 2095 2137 2528 2145 2366 1699 1395 18 0 0 0 894 2149 1843 2402 2727 2286 2077 2100 979
0 0 0 20 198 27 137 179 286 435 254 333 501 484 314 742 436 166 105 536 0 0 1032 1435 1667 1754 2024 1489 1058 1951 1603 1861 2013 2154 2105 1760 158 0 0 739 1877 1761 2613 2534 2724 2699 2184 1405 1547
0 1 2 23 33 31 37 224 185 204 599 611 1103 865 1584 936 545 86 94 25 834 867 1521 1051 743 847 1117 1006 1341 1430 822 1094 1555 740 279 1471 1720 2078 2267 2652 1972 2208 1810 1920 2331 2318 2038 1949 2051

GFSSGP_con_sbcape_105.txt.gz
CAPE
0 0 0 201 443 476 22 10 5 80 88 38 52 66 101 122 67 92 204 335 533 994 1289 1576 2110 1397 1458 2033 2254 2327 2160 2345 2238 2253 2611 2080 1562 1794 1801 1969 1937 1848 1674 796 1212 1572 1671 1453 1585
0 0 105 103 155 81 26 12 20 130 71 15 14 193 185 178 129 74 109 400 680 921 916 1020 2183 2015 1690 1939 2005 2153 2168 2325 2166 2167 2084 1991 1999 2237 2093 1847 1588 1689 1657 1421 1277 1761 1485 1365 1452
0 1 243 34 19 82 2 0 0 163 17 38 58 7 127 139 327 303 195 274 242 277 1057 1481 2251 2154 1919 1907 1938 2022 2165 2248 2194 2169 2089 2117 1991 2160 2127 2084 1953 1909 2042 1973 1793 1532 1385 1352 1585
0 214 59 5 75 139 0 0 19 135 11 34 40 161 98 276 367 355 248 446 637 974 1380 2192 2054 1771 1856 1810 1938 1953 2161 2197 2180 2150 2162 1925 2190 1699 1663 1812 1995 2058 2103 2014 1711 1452 1164 1205 1399
0 56 83 110 227 25 0 0 111 86 35 20 116 265 349 215 178 143 211 527 724 999 1376 1672 2413 2128 1886 1745 1852 2012 2195 2202 2257 2320 2182 1974 2214 2007 2013 2053 2228 2301 2393 2096 1510 1355 1008 1072 1362
98 2 74 129 130 1 0 0 211 116 8 79 267 216 251 295 157 357 403 463 590 740 1135 1413 1962 1982 1925 1951 1953 2143 2172 2277 2194 2206 2262 2447 2416 2624 2570 2307 2326 1854 1734 1450 1301 1136 972 965 1053
146 107 151 137 0 0 0 20 209 126 18 84 272 187 139 18 219 377 228 352 523 758 1053 1159 1351 1644 1905 1919 2070 2266 2144 2147 2271 2268 2413 2530 2230 2283 2349 2323 2295 2143 1558 1261 1128 923 830 831 879
350 211 204 156 1 0 0 232 151 9 3 49 36 64 20 47 158 235 140 228 319 599 720 938 1136 1239 1340 1583 2063 2031 2032 2025 2180 2383 2496 2585 2370 2204 2222 2943 2760 2102 2132 1772 1252 934 831 706 682
325 0 30 68 21 0 108 116 212 50 21 77 81 31 18 52 68 66 64 123 128 436 577 726 767 929 1118 1426 1781 1908 2079 2144 2280 2363 2487 2410 1723 1620 1659 2401 2595 2037 2078 2052 1724 1454 1283 1223 1244
262 80 19 40 78 126 20 209 202 137 63 108 40 4 27 97 46 45 143 78 230 462 472 355 673 712 1021 1316 1504 1530 1789 1342 1232 1140 1318 1469 1379 1326 1581 1988 1967 1819 1699 1776 2235 2051 1946 1123 933
237 30 70 0 1 219 121 207 213 75 33 75 7 0 24 19 27 35 32 205 281 396 453 262 327 391 445 1062 1274 1268 1206 1174 985 713 1144 1235 1163 1240 1237 226 52 30 0 0 86 2307 964 1 301
148 121 49 51 216 250 219 251 170 143 65 8 10 0 18 14 0 11 35 60 127 47 7 315 599 317 732 1009 1057 1045 1173 20 7 964 1413 1508 725 472 640 0 0 0 40 0 0 840 1602 1665 1035
363 356 48 61 10 61 195 293 217 177 33 3 23 2 3 9 3 19 14 162 161 32 46 378 714 789 502 840 740 982 1124 207 100 972 1463 689 1247 526 139 0 42 109 216 251 179 686 594 742 354
376 209 434 51 393 234 274 174 122 91 44 16 15 0 1 12 10 28 5 110 204 170 254 368 552 658 1239 530 682 707 768 953 1122 718 605 856 932 624 438 0 9 246 359 236 347 0 150 435 250
325 308 507 264 379 465 110 191 102 84 57 16 0 0 1 9 14 9 0 70 350 185 201 196 269 579 761 719 690 631 494 1077 1180 353 0 945 786 151 66 234 248 749 462 894 219 122 346 412 438
261 393 221 486 268 266 170 108 136 45 19 19 23 12 22 17 8 12 0 0 300 189 262 92 101 407 409 581 1009 742 488 631 806 990 691 1666 1142 426 693 536 782 1125 1872 1696 1796 1422 960 520 355
455 206 172 382 414 252 206 155 191 82 19 31 32 32 16 16 12 9 0 0 122 62 56 245 107 265 701 1011 1171 537 538 1220 1131 1101 1325 1408 1837 1125 1595 1466 1000 1929 1541 221 827 744 851 843 735
111 104 281 163 19 10 223 142 210 278 28 41 47 38 24 3 24 17 0 23 0 106 5 426 339 227 573 239 486 330 445 912 1304 1514 1539 1693 1645 1538 1686 1754 469 44 1164 1187 1576 1293 2004 1763 344
157 225 4 19 5 2 117 128 101 96 111 98 62 35 13 1 3 30 6 7 0 2 62 720 409 558 228 291 726 638 279 734 1031 1061 1722 1354 1540 1744 1692 1494 406 0 889 1491 1663 1887 2116 1902 1636
48 5 27 13 0 0 5 108 49 49 63 58 48 71 30 8 4 31 15 16 1 90 136 643 680 413 843 761 1001 818 306 1066 1059 1244 1539 1626 1131 1412 1803 1308 953 741 1093 1423 1668 1691 2394 1383 910
153 143 41 27 6 0 8 37 36 54 75 73 55 28 69 25 17 17 14 10 10 196 638 786 1069 984 959 697 669 517 569 835 410 920 917 1081 1633 1478 1426 592 629 580 298 6 207 1941 2197 2260 1526
188 157 25 14 0 0 20 21 71 44 26 39 33 15 68 22 33 23 36 45 67 133 378 653 1030 923 923 980 194 603 343 223 564 539 516 415 850 1478 1501 253 448 326 0 0 18 1835 2496 2185 2053
282 137 47 2 0 0 41 95 55 13 12 19 27 7 40 36 18 33 31 26 94 329 243 370 642 859 865 487 696 611 418 379 619 625 478 36 401 1294 1295 1549 1250 370 207 784 1016 802 2157 2195 1997
208 105 45 30 12 0 31 61 76 5 0 0 0 1 17 83 85 28 75 46 196 273 761 484 709 713 1022 635 638 528 549 423 241 269 486 739 669 718 705 1301 1240 487 8 0 146 1654 1913 2167 1904
215 140 58 27 0 0 0 24 26 79 82 2 0 7 23 70 77 81 63 41 77 117 437 1008 925 976 1156 834 563 459 778 592 282 97 218 764 375 100 269 412 1233 1023 240 117 902 1104 1277 1881 1811
258 105 20 29 52 35 79 77 40 37 45 62 4 9 53 48 73 76 11 44 153 237 534 678 1083 1269 957 1306 1025 831 921 816 810 880 200 192 103 318 421 608 752 1005 1086 1075 1158 974 1259 1147 799
10 51 52 34 0 2 55 37 32 142 87 22 5 28 31 28 73 91 126 83 343 155 842 1259 1255 1221 1349 928 1160 681 1048 830 864 864 450 539 454 297 155 57 0 51 968 1260 1248 1018 827 724 430
0 10 0 53 9 2 100 69 147 19 55 27 0 6 41 27 62 86 177 149 194 15 159 687 1364 1427 1362 1092 1320 1106 958 1113 982 716 117 101 14 20 82 0 0 47 953 927 994 1191 929 698 45
0 0 2 38 0 34 67 72 64 71 50 85 53 19 1 0 9 56 129 103 62 35 53 224 232 1159 1310 1251 971 969 905 929 872 771 598 44 0 0 0 0 124 871 1043 1180 1005 981 878 722 833
0 0 0 0 0 4 1 370 495 340 163 59 73 74 26 7 19 106 99 44 18 1 33 35 78 518 973 1013 425 553 665 65 639 173 147 235 204 79 75 550 1192 948 1005 979 1239 1301 1251 924 759

GFSSGP_con_sbcape_108.txt.gz
CAPE
0 0 11 442 274 238 18 44 21 35 23 39 22 118 46 65 52 46 160 370 534 930 1425 1648 2190 1642 1740 1992 2099 2118 2192 1883 2529 2059 2264 2031 1757 1804 1961 2033 2068 1471 1261 1735 1690 1690 1711 1459 1025
0 0 82 89 46 16 20 72 19 16 62 82 82 83 94 122 164 187 273 475 800 1095 1130 1425 2123 1767 2057 2141 2244 2073 2008 1982 2175 2052 1955 1903 1896 2074 2101 1953 1182 1097 1191 1586 1724 1480 1498 1467 1024
0 8 13 19 6 54 0 93 38 19 81 78 130 129 170 94 129 127 193 566 848 697 802 1389 2033 2063 2047 2050 2257 2267 2286 2324 2274 2063 1957 2050 1920 2119 1959 1440 2011 1851 1792 1936 1536 1454 1580 1772 1579
0 26 25 11 27 109 0 82 26 25 89 156 134 185 231 229 205 101 419 623 368 875 1117 1884 1637 2021 2028 2062 2160 2264 2305 2242 2158 2132 2018 1993 1871 1817 1842 1871 2018 2021 1822 1538 1421 1355 1580 1617 1815
0 4 28 93 73 27 30 73 38 103 228 137 109 128 181 121 155 123 203 475 975 1159 1496 1684 2246 2064 1954 2049 2047 2231 2253 2249 2302 2093 2053 1993 1918 1975 2100 2132 2173 2154 2014 1690 1304 1090 1316 1422 1695
21 0 68 83 55 0 56 89 42 194 199 219 120 113 73 128 295 336 559 742 1034 1200 1438 1749 2150 1967 1858 1992 2202 2331 2312 2368 2418 2274 2186 2160 2167 2199 2155 2112 2025 2348 2234 1270 1145 998 1004 1109 1449
91 42 35 81 0 0 13 35 36 186 179 140 84 91 7 141 225 397 443 606 835 1116 1152 1319 1516 1705 2039 2102 2250 2325 2221 2377 2397 2383 2139 2282 2308 2295 2224 2197 1775 1323 1194 1026 869 734 778 896 1038
252 74 87 108 0 0 27 238 53 147 245 95 73 49 32 98 162 296 378 491 735 990 984 1084 1234 1360 1475 1855 2264 2211 2303 2309 2398 2461 2333 2416 2435 2222 2136 2632 2426 1855 1438 1104 926 818 779 671 755
138 2 43 102 3 10 153 223 72 150 171 29 70 7 41 141 97 183 175 336 494 663 769 925 1009 1062 1244 1568 1878 2205 2274 2402 2481 2370 2444 2263 1470 1631 1723 2203 2079 1955 1819 1536 1273 1000 880 1020 1188
341 9 13 42 113 101 167 163 39 110 121 58 14 48 58 140 92 161 97 180 237 451 617 556 670 884 1297 1834 1472 1445 1734 1637 1845 1891 1791 1236 1123 1078 1516 1704 1873 1946 1396 1399 1909 1842 1922 1718 781
181 19 34 21 21 46 176 96 172 39 124 19 9 49 41 47 71 43 76 178 264 409 468 421 641 720 775 1452 1232 1331 1084 996 942 1007 1026 1102 1152 972 89 5 21 0 17 0 1 49 1824 147 196
143 67 46 84 67 223 319 335 116 165 99 15 6 27 4 7 49 33 71 222 278 249 314 233 208 371 641 1009 1057 965 979 420 423 594 847 477 535 617 0 0 0 0 0 12 0 0 506 1347 1417
241 20 86 74 60 82 149 264 154 141 124 0 2 2 0 45 0 72 138 131 57 69 130 234 75 227 664 994 828 891 711 0 171 783 922 856 108 364 7 0 2 46 129 276 259 126 445 884 599
523 405 156 75 34 138 206 321 100 109 32 0 0 3 6 0 3 90 78 30 0 29 203 416 451 430 504 609 654 796 673 7 760 463 499 725 284 373 8 0 0 68 226 240 118 252 0 58 181
590 323 121 27 209 140 285 154 42 30 29 13 13 0 6 15 41 67 75 7 0 35 118 200 303 843 670 396 389 540 492 648 545 67 522 604 321 286 76 35 143 251 492 500 327 224 88 432 233
517 242 183 64 51 6 282 54 48 13 28 25 7 6 6 17 35 94 93 54 0 30 38 127 390 254 334 503 489 228 405 892 523 0 396 790 193 2 58 77 238 365 10 1265 1112 664 1094 727 288
392 80 82 218 61 183 133 35 76 29 48 25 31 5 4 8 2 50 195 106 82 0 0 0 79 316 501 792 514 675 676 439 465 596 1172 924 1067 878 1121 885 665 658 875 202 509 422 625 550 249
23 124 15 5 14 34 1 66 181 92 31 38 16 15 21 6 1 63 183 100 88 0 0 0 15 390 206 343 281 144 538 816 700 838 1034 1196 672 1262 1535 930 274 0 1055 1099 1302 1306 1511 1032 316
177 77 2 11 0 5 9 0 46 114 74 42 0 8 3 17 3 33 143 62 74 33 66 0 69 156 51 391 459 68 369 766 826 1113 1276 864 1095 1353 1194 1341 330 235 987 1313 1343 1314 1951 1343 608
93 50 28 3 0 2 7 0 0 80 61 25 45 4 9 39 18 34 14 24 3 30 132 100 67 154 172 421 583 456 384 786 572 620 1162 1369 839 1059 1105 1061 909 856 668 133 556 1837 1859 1342 410
72 154 31 17 6 16 1 0 0 93 90 59 33 33 57 0 15 2 0 0 4 92 291 186 146 194 569 461 229 175 393 433 564 721 753 779 1137 1091 848 573 571 311 37 0 29 1348 1853 1593 1395
225 191 85 7 0 0 2 10 58 53 25 24 69 18 43 18 15 0 2 0 74 104 222 198 221 416 378 248 277 194 205 318 328 368 345 463 63 884 1016 177 501 124 0 54 452 805 1658 1440 1519
253 161 51 18 0 2 6 1 25 32 17 9 7 24 24 24 5 12 10 0 75 171 233 313 313 423 494 243 223 239 142 111 384 281 291 91 125 697 1290 44 651 172 131 459 885 1338 1391 1635 1226
194 119 52 11 0 5 4 0 4 33 5 2 12 50 47 31 3 27 20 15 43 81 249 278 250 325 392 285 335 347 184 265 294 217 408 378 466 425 402 1053 843 613 237 8 47 1143 1388 1466 1370
184 96 51 51 3 2 9 6 16 40 3 20 3 20 58 107 104 35 1 6 43 58 139 259 167 237 408 292 355 280 357 228 171 91 155 376 439 253 201 578 694 247 101 0 262 737 726 1210 1207
197 54 40 34 17 64 50 32 48 25 14 14 1 36 68 124 93 77 1 37 77 264 193 254 201 207 513 245 227 196 350 270 208 45 108 377 186 43 191 385 597 685 683 470 859 615 749 773 446
232 89 10 7 2 21 55 33 6 0 44 23 14 14 50 101 127 111 18 73 86 170 426 445 338 354 382 365 286 340 313 366 446 512 108 74 142 223 137 293 75 45 527 683 785 561 554 476 156
245 79 45 0 35 31 1 1 0 0 1 10 15 7 60 51 92 137 99 217 186 76 20 500 523 593 532 560 462 232 550 340 364 302 248 331 305 123 177 53 0 0 92 551 628 699 567 561 429
0 0 0 0 0 53 41 42 0 0 0 70 9 8 35 27 33 166 182 299 266 252 269 63 155 787 836 486 674 433 633 523 320 147 104 97 10 0 17 0 0 70 513 613 473 502 559 463 358
0 0 0 0 0 4 19 30 65 17 0 24 23 3 7 20 56 178 122 41 90 73 47 118 34 264 804 498 627 755 522 411 423 277 196 0 0 0 0 0 48 566 735 600 576 645 1051 640 537

GFSSGP_con_sbcape_111.txt.gz
CAPE
4 43 33 368 75 8 5 17 23 0 0 2 0 22 29 98 44 1 114 236 268 395 1159 1661 1924 1874 1860 2199 2222 2165 2027 1941 2065 2011 2137 2015 1948 1805 1896 1919 1837 1927 1751 1768 1892 1786 1419 1319 1374
0 0 49 17 0 6 23 39 15 85 159 34 101 80 140 149 315 286 234 341 386 944 1279 1508 2290 1907 2021 2186 2203 2203 2111 1751 2023 1823 1945 1997 1845 1920 2007 1032 829 1033 1671 1685 1749 1682 1418 1373 1547
0 26 9 6 2 0 7 18 47 110 113 131 180 212 181 185 317 225 358 634 1016 1083 1044 1370 1609 2086 2115 2265 2215 2183 2245 1878 1947 2106 1934 1969 1727 1290 1383 1660 1571 1567 1981 1561 1640 1783 1898 1733 1687
0 46 5 17 25 28 6 9 28 148 167 208 200 268 247 196 191 230 529 859 688 809 1012 1739 1623 2097 2068 2216 2126 2056 2190 2221 2221 2109 2118 2107 2159 2082 2130 2157 1958 1825 1655 1604 1649 1884 1802 2009 1600
0 4 25 86 73 6 34 25 78 226 269 197 179 246 218 230 239 419 596 554 761 964 1313 1387 2144 2090 2135 2277 2213 2235 2269 2252 2198 2159 1988 1889 1840 2017 2084 2189 2062 2133 1876 1435 1444 1577 1653 1830 2074
11 0 18 47 45 1 40 47 169 171 183 187 210 172 148 176 278 374 531 734 1018 1273 1548 1643 2029 2014 2151 2116 2294 2312 2303 2235 2147 2151 2170 2096 2096 2151 2098 2327 2376 2171 1637 1221 1245 1302 1332 1712 2473
54 1 45 40 0 2 37 87 133 170 123 177 151 136 150 170 203 443 659 916 1162 1303 1336 1555 1631 1691 2029 2242 2215 2283 2374 2325 2229 2217 2316 2405 2417 2299 2233 1647 1411 1230 1018 972 927 957 1045 1223 1548
46 9 57 62 0 0 29 108 163 136 210 153 114 112 168 210 467 518 610 694 922 1029 1133 1188 1289 1556 1620 1978 2398 2356 2437 2479 2394 2180 2325 2386 2330 2153 2129 2376 1935 1494 1228 1026 866 839 914 1052 1164
63 12 28 59 3 57 120 111 170 237 134 141 136 82 130 170 302 380 472 705 884 885 939 973 1120 1169 1408 1657 1923 2256 2356 2395 2401 2157 2274 2061 1377 1662 1703 1962 1832 1859 1745 1490 1290 1074 1029 1218 1640
211 10 28 99 79 65 185 94 119 118 19 19 78 85 155 193 227 312 382 493 651 737 911 801 844 1063 1346 1828 1426 1406 1861 1905 1845 1757 1353 1054 989 1121 1679 1874 2077 1683 1042 780 1739 1864 2150 407 165
109 119 33 35 56 32 62 198 124 31 59 4 88 141 165 137 150 203 219 277 347 561 832 588 671 952 1250 1443 1183 1287 1160 1239 1360 1238 825 948 976 702 150 14 1 0 30 0 0 2 95 1259 449
240 137 66 5 50 46 117 298 88 73 116 47 84 123 163 139 151 117 198 203 253 467 486 423 515 715 685 1083 993 972 849 643 495 560 727 707 670 336 0 0 0 0 0 83 97 46 19 197 671
215 119 64 66 98 116 97 191 229 78 27 124 89 100 114 121 138 126 203 257 255 306 283 323 215 232 678 955 874 666 517 282 270 603 799 356 341 320 0 0 0 4 54 96 126 100 119 0 47
334 99 162 187 79 83 207 238 182 178 27 41 97 64 53 81 113 130 237 216 159 110 127 133 132 157 576 746 574 646 296 0 310 552 617 411 36 154 0 0 41 90 182 303 239 230 141 0 25
521 334 137 103 107 167 296 191 104 59 14 26 36 57 49 66 46 145 180 43 40 60 179 203 121 180 515 434 490 500 468 33 399 223 509 528 184 145 0 52 222 379 14 647 808 644 285 217 262
556 284 109 100 189 80 191 128 72 46 18 18 39 6 21 0 74 108 114 9 26 131 168 161 594 318 322 293 288 312 328 357 220 0 419 366 95 61 49 112 349 262 0 704 233 413 723 770 229
142 54 89 117 84 63 174 93 99 1 1 10 41 0 0 0 29 47 54 10 33 89 61 121 203 189 241 397 178 226 329 630 239 0 609 407 48 30 550 761 604 457 733 770 620 621 418 633 240
22 88 15 10 76 84 25 41 63 51 4 39 25 0 0 24 12 57 58 29 6 0 0 31 232 343 470 241 203 377 373 353 184 432 653 558 801 909 899 388 73 257 795 905 1028 983 1095 545 100
170 128 77 15 18 27 26 4 15 66 94 29 1 0 0 0 33 80 115 42 0 0 0 0 238 129 144 210 106 124 374 455 458 866 678 900 823 1144 842 437 0 172 698 649 1336 1321 1182 566 223
225 120 38 18 10 13 28 14 1 0 91 83 3 0 0 0 27 144 80 54 10 0 0 0 164 59 131 223 135 203 357 530 368 508 773 912 782 949 822 668 505 525 16 112 1143 1525 1365 1048 682
157 113 51 32 10 6 2 5 44 3 78 92 73 3 1 0 11 112 64 47 19 0 5 5 61 0 171 280 185 237 282 262 452 655 651 616 1039 1161 743 606 185 135 0 0 411 1236 1375 1019 883
149 275 184 48 10 2 1 0 33 0 19 62 87 32 1 0 20 105 55 42 44 34 64 0 52 136 224 150 178 261 221 285 222 208 217 432 70 819 879 294 216 3 0 144 600 900 1370 822 821
283 270 166 35 0 0 13 0 4 17 0 19 73 11 3 0 14 79 41 39 35 94 123 0 66 239 165 143 137 105 109 66 166 173 193 149 1 572 1044 142 403 2 96 343 742 1121 1209 1113 493
218 126 91 12 0 0 18 9 0 7 2 0 34 52 36 16 21 46 55 18 51 44 138 94 96 230 152 79 124 126 127 140 248 174 236 145 162 357 543 693 342 305 253 54 200 831 1061 1021 576
163 20 1 13 0 5 3 2 0 0 19 13 23 34 30 54 11 32 39 1 57 104 187 153 87 149 172 122 158 177 118 116 152 154 145 210 231 189 241 569 626 276 6 0 0 507 465 798 847
236 2 0 0 5 17 33 13 9 9 0 0 0 8 59 89 2 34 54 16 69 118 168 204 72 53 164 91 173 176 181 152 124 86 24 140 206 114 62 218 518 301 235 0 477 474 495 663 285
429 125 0 15 0 2 15 55 8 0 0 1 19 5 13 23 52 56 61 60 61 42 145 185 74 0 162 122 87 65 207 175 190 136 48 59 131 69 102 255 280 378 494 491 462 377 271 274 84
263 101 123 16 57 32 0 29 3 5 32 87 34 5 2 2 94 55 28 108 102 138 132 154 131 25 155 236 62 73 128 175 216 259 215 66 98 179 0 120 35 9 35 265 566 461 294 179 109
24 20 0 2 0 40 11 17 15 0 1 112 48 8 2 57 62 86 17 165 162 221 238 309 244 216 295 330 217 214 230 189 196 228 198 137 78 14 11 39 0 0 29 234 427 335 349 276 96
0 0 0 1 0 0 0 2 54 0 0 40 52 0 0 28 75 104 160 233 237 251 249 253 177 486 499 310 397 304 301 298 248 177 101 43 0 0 0 0 0 0 356 385 428 348 667 436 350

GFSSGP_con_sbcape_114.txt.gz
CAPE
0 93 35 246 2 0 1 11 1 0 0 0 0 1 32 182 91 0 29 85 132 204 811 779 1293 1209 1924 2381 2241 2033 2071 2142 1913 1770 1882 1872 1885 2020 1959 1767 1661 1705 1749 1768 1728 1644 1566 1596 1637
0 0 16 5 0 0 5 15 13 50 7 0 87 153 136 204 386 151 55 214 197 724 1105 1111 1698 1748 2294 2380 2224 2100 1990 2149 2099 1844 1969 2020 1941 1891 1161 1053 1521 1772 1765 1750 1733 1638 1629 1559 1678
0 1 11 0 0 0 23 45 83 43 94 85 256 237 146 176 210 130 232 614 881 1091 1188 1564 1776 2052 2153 2156 2128 2003 1707 2010 1911 2200 2062 1894 1927 1659 1386 1449 1489 1936 1737 1701 1951 1643 1679 1725 1967
0 32 1 8 7 0 30 58 139 198 221 253 132 271 213 231 191 308 657 787 864 960 1051 1466 1735 1907 2040 2053 2126 2191 2032 2237 2164 2099 2142 2159 1901 2092 1834 1844 1970 1739 1632 1715 1952 1987 1992 1905 2210
0 25 11 55 60 0 26 39 155 263 238 153 174 253 199 262 341 596 592 653 794 852 1137 1485 1937 2112 2212 2046 2121 2247 2267 2237 2227 2211 2143 2002 2046 2062 1965 1940 2062 1753 1508 1667 1736 1781 1667 1943 1965
47 5 16 42 3 8 37 134 222 185 188 163 155 160 169 235 395 452 572 704 806 1077 1278 1360 1742 1772 2186 2023 2236 2262 2212 2160 2003 2014 1949 1951 2117 2089 2183 2217 2223 1388 1354 1496 1521 1524 1808 1979 1977
93 19 75 2 0 14 47 136 151 112 87 122 115 137 162 175 287 530 716 910 1178 1384 1388 1420 1606 1617 2119 2189 2262 2319 2246 2180 2266 2314 2245 2210 2257 2338 1683 1532 1330 1069 1077 1137 1185 1226 1406 1735 1896
52 15 76 18 6 1 52 200 172 106 111 59 46 123 169 183 478 628 726 939 975 1176 1329 1209 1218 1414 1600 1840 2220 2356 2337 2293 2203 2244 2334 2409 2325 2293 2339 2240 1786 1209 964 956 955 1077 1220 1372 1678
71 5 31 106 0 77 71 139 140 121 91 103 78 71 127 336 457 457 643 792 797 961 949 938 1133 1204 1395 1538 1888 2282 2438 2427 2136 2133 2571 1766 1343 1634 1697 1841 1841 1939 1663 1259 1146 1180 1303 1698 1422
176 32 54 137 71 59 138 85 202 106 76 79 92 139 265 299 326 362 509 516 692 856 871 813 894 1065 1305 1776 1204 1329 2001 1369 1568 1356 1004 939 892 1194 1884 2189 1747 1265 498 750 1083 1059 1579 602 106
98 106 63 53 71 33 50 139 125 70 38 22 84 128 235 212 216 261 382 409 500 659 863 685 688 906 1083 1130 1061 1147 1273 1281 1236 968 829 865 941 292 33 0 0 0 32 0 0 8 53 281 725
181 219 102 28 29 125 166 337 55 32 61 23 84 123 192 159 152 99 107 191 250 526 746 571 560 822 806 990 960 883 887 753 771 751 744 809 642 65 0 0 0 0 30 149 199 293 270 161 332
316 229 203 169 130 140 154 240 207 14 45 51 112 103 116 92 60 86 96 147 191 404 392 419 431 595 663 939 779 655 594 437 408 545 728 475 488 140 0 0 12 60 186 293 319 237 234 15 100
254 260 281 260 121 121 179 186 203 98 63 87 117 105 47 52 35 78 134 180 186 249 216 260 292 304 553 722 650 602 221 150 275 536 733 279 236 137 0 0 115 266 282 415 439 412 289 124 237
295 355 122 279 167 230 187 86 114 86 58 83 85 107 32 48 35 92 148 164 135 70 92 134 112 117 433 559 474 490 261 3 349 409 388 365 14 129 0 0 236 321 5 775 698 641 516 750 681
540 222 88 107 351 200 104 67 276 143 23 75 85 58 77 28 72 55 134 77 5 0 107 118 178 119 303 315 345 383 326 38 299 60 439 500 252 121 45 138 314 211 36 832 842 755 746 839 516
0 22 133 93 50 173 96 95 157 13 5 41 75 64 40 15 6 70 110 0 0 15 78 90 107 172 223 213 141 147 218 267 154 0 371 154 89 68 177 687 554 708 1114 1173 1077 990 655 693 332
21 40 32 47 45 20 0 0 83 21 1 15 32 15 56 0 59 71 31 3 0 7 29 28 117 145 132 167 136 200 182 203 91 0 417 203 143 756 909 523 78 675 1194 1341 1290 1149 1036 501 379
60 110 37 37 51 25 5 1 26 0 41 11 1 0 0 33 46 53 36 8 0 0 0 0 153 154 150 71 103 178 255 300 282 462 630 577 578 1019 746 386 0 703 904 722 1613 1325 981 1060 449
155 118 67 22 15 0 2 3 12 0 2 44 12 0 3 12 24 61 39 30 14 0 0 0 111 85 117 88 11 142 201 334 366 468 732 689 691 882 670 352 323 689 46 663 1431 1477 1160 1016 710
182 73 45 47 23 1 0 0 2 12 7 53 40 0 0 17 36 74 56 20 9 0 0 0 13 30 117 123 130 197 250 286 364 513 572 706 850 851 843 588 518 382 0 342 934 1493 1194 1230 626
151 144 104 71 13 1 0 0 0 2 30 61 66 0 0 0 52 89 91 36 11 0 0 0 0 0 71 128 158 264 263 286 208 384 294 515 158 724 532 465 132 0 0 407 892 1206 1294 832 1056
11 292 121 63 0 5 12 0 0 14 1 0 24 10 0 0 29 97 109 78 26 0 0 0 0 0 89 50 106 117 115 78 114 147 213 226 26 509 974 369 413 2 278 469 957 1174 1382 1149 493
351 187 56 10 0 0 11 0 0 5 0 0 1 9 1 0 8 98 127 92 38 11 5 0 0 38 68 11 10 69 92 81 163 135 162 163 114 259 600 582 150 260 274 161 521 975 1118 1086 443
255 38 16 44 0 2 0 0 0 28 0 0 8 20 1 0 4 47 71 34 27 88 87 0 29 82 67 0 17 14 44 55 152 144 167 206 173 241 360 513 652 440 273 2 0 543 661 915 1116
202 16 13 23 0 1 39 0 0 0 5 0 14 37 16 0 1 11 14 22 52 93 135 120 0 82 118 58 45 42 23 31 50 94 128 166 190 194 152 204 634 442 173 0 26 534 507 695 587
415 243 4 44 0 6 38 8 0 0 0 0 24 29 19 31 0 0 9 30 63 107 129 137 83 26 88 89 52 70 90 63 71 82 36 37 146 136 113 211 543 435 522 459 509 528 363 348 203
448 228 167 25 51 47 4 4 0 0 0 1 18 24 18 26 0 7 23 23 32 94 143 137 116 38 38 97 44 52 58 109 67 141 138 115 84 90 74 140 153 186 127 365 571 687 512 346 150
9 228 0 1 0 15 7 0 0 0 0 24 23 32 18 5 33 10 6 21 16 63 94 150 130 73 74 145 79 88 55 69 86 155 108 71 116 147 117 49 91 1 10 186 412 468 544 418 309
1 108 3 0 0 0 0 0 32 4 0 35 32 40 25 29 9 27 17 65 34 132 118 124 153 148 164 210 181 146 129 196 172 131 103 3 3 1 2 53 38 0 26 476 533 453 675 634 553

GFSSGP_con_sbcape_117.txt.gz
CAPE
0 176 81 459 217 142 63 0 25 0 0 0 4 15 23 204 34 30 46 54 61 146 541 624 733 891 1668 2056 2035 2146 2065 1597 1518 1760 1893 1787 1744 1710 1661 1667 1798 1929 1789 1749 1652 1645 1736 2001 1908
3 25 62 110 146 40 99 76 13 0 0 20 62 113 174 293 366 81 120 52 79 412 776 598 1284 1198 1288 2163 2085 2035 2095 2111 2062 2084 1968 1926 1813 1254 1410 1751 1870 1767 1703 1541 1635 1642 1630 2006 2064
0 0 98 89 33 96 103 71 62 33 0 57 260 192 78 122 74 38 207 192 372 926 869 1050 1632 1921 1739 2245 2009 1886 1948 1747 2216 2074 1813 1779 1540 1121 1105 1612 1886 1680 1778 1460 1227 1321 1594 1836 1972
0 111 59 109 99 72 117 170 143 118 52 214 69 7 183 82 71 401 384 414 698 1101 980 1452 2117 2116 1971 2155 2079 1886 2052 2100 2032 2095 1778 1578 2022 1893 1843 1792 1601 1670 1809 1913 1928 1696 2005 2068 1923
0 137 199 125 57 78 157 162 180 246 249 125 2 6 4 497 681 503 515 463 804 1015 1048 898 1971 1873 2043 2048 2214 2131 2068 2258 2053 1831 1950 1894 1861 1842 1696 1911 1625 1549 1773 1745 1666 1811 1992 1798 1391
234 38 126 61 36 82 107 209 249 268 241 132 0 87 306 577 580 510 517 648 744 678 1378 1366 1830 2077 1982 2006 2170 2138 2101 2047 2011 2040 1886 2045 2007 1976 1812 1829 1220 1545 1632 1516 1500 1893 1935 2092 1399
381 175 167 8 78 70 110 217 215 181 171 83 61 38 407 459 536 506 597 830 649 948 1018 1622 1414 1701 1939 2160 2234 2196 2171 2134 2031 2140 2108 2015 1763 1640 1456 1208 1122 1273 1342 1259 1416 1525 1840 1863 1495
326 222 42 4 76 77 190 214 156 92 144 49 46 50 118 370 458 455 716 553 1238 1250 1195 1782 1418 1731 1775 2004 2229 2295 2274 2155 2176 2320 2053 1940 2213 1952 1780 1983 1625 1037 1103 1105 1176 1269 1480 1810 1786
153 214 104 24 38 140 211 217 121 186 53 27 175 58 181 411 394 482 503 769 1279 1333 1168 1413 1511 1901 2330 2228 2180 2210 2097 2149 2212 2360 2333 2303 1754 1588 1338 1954 1647 1353 1081 992 1194 1272 1567 1385 1532
359 275 111 140 67 124 197 174 217 66 59 157 248 295 394 478 452 528 406 691 1009 988 1206 1229 1589 1644 1902 1976 2230 2388 2197 2597 2491 2322 2216 1959 1818 2125 1964 1662 1178 924 641 1181 1179 1225 1321 901 1012
220 237 35 41 136 104 193 197 199 63 61 116 138 348 477 588 564 376 244 405 567 768 1054 1380 1714 1857 2177 2198 2033 2090 2127 2140 2258 1978 1927 1945 1964 1060 674 422 245 299 332 536 516 704 920 1307 1420
200 121 65 13 4 114 173 283 154 60 59 56 76 348 456 480 437 199 290 329 429 749 960 1272 1366 1798 2056 1850 2206 1957 1693 1579 1481 1732 2066 1951 1137 759 285 37 87 578 839 1131 1251 1194 1153 961 913
165 331 112 67 0 0 117 213 216 85 76 99 212 320 321 415 344 184 230 224 295 531 791 948 1250 1760 1969 2028 1807 1883 1456 1037 1324 1779 1918 1906 1657 1080 302 810 949 1229 1429 1566 1531 1232 1252 1435 891
491 572 467 312 166 75 169 193 306 86 123 146 194 245 297 399 369 166 268 263 246 301 611 787 1068 1491 1716 1727 1924 1746 1245 1107 1346 1599 1823 1729 1661 1363 736 600 1390 1527 1483 1721 1759 1658 1664 1778 802
518 558 451 337 221 75 165 151 199 185 161 166 189 260 318 368 368 258 302 284 294 322 533 710 825 1117 1471 1613 1763 1766 1405 1069 1314 1647 1829 1550 1147 1167 1389 784 1431 1051 703 2176 1897 1945 1972 1630 745
519 369 274 251 258 249 77 91 179 203 186 161 197 232 283 333 312 324 327 317 323 316 594 668 356 660 1005 1361 1631 1567 1364 847 1308 1497 1562 1838 1312 1356 1264 1405 1355 889 1584 2291 2309 2193 1711 1342 1090
153 36 296 194 118 208 57 58 109 151 159 89 201 242 250 280 284 322 342 381 349 375 541 666 684 747 954 1494 1412 1483 1534 838 1395 1008 1654 1658 1466 1269 1425 1616 1616 2159 2572 2713 2446 2567 2009 1346 1100
33 131 241 256 107 20 87 59 18 35 177 169 164 164 236 207 262 312 344 367 350 427 543 666 684 896 1170 1385 1409 1353 1453 1349 1331 1003 1776 1338 1022 1541 2302 1907 1573 2349 2674 2820 2428 2609 2217 1574 1425
0 71 139 148 113 61 0 0 16 9 87 84 94 82 141 187 193 251 340 322 308 406 487 593 751 968 1075 1204 1267 1284 2044 1494 1473 1142 2027 1670 2110 2208 2311 1725 1202 2275 2465 2991 2866 2302 2712 2270 1752
0 43 226 98 86 46 31 0 5 0 21 50 3 9 117 151 158 214 315 275 336 404 494 664 839 1120 1219 1112 1217 1252 1474 1429 1394 1905 2154 2118 1980 2258 2108 1877 1381 2160 1798 2858 3058 2856 2234 2188 2161
23 0 168 151 97 33 34 0 0 11 8 80 80 51 29 84 175 231 288 255 337 354 470 654 1032 1219 1187 1080 1090 1364 1439 1921 1596 1851 1921 2081 1986 2167 2117 1945 1900 1913 1126 1993 2812 2709 2766 2084 1721
0 94 161 226 151 101 48 56 0 8 37 36 65 129 42 19 149 238 277 260 297 324 406 585 905 1131 1076 1073 1213 1640 1277 1163 1971 2472 2393 1978 2070 2087 1927 1789 1446 1589 456 1932 2398 2476 2478 2557 1982
0 309 332 277 149 116 87 123 20 0 8 7 6 29 106 7 38 156 266 284 276 257 305 408 769 938 958 1124 1241 1015 1821 1173 1535 1564 1869 1836 1666 1895 1864 1745 1552 1052 894 1958 2547 2546 2787 1968 1388
357 343 254 198 211 200 110 92 56 25 0 8 10 0 32 38 11 86 200 266 261 214 236 237 533 928 1000 1178 1148 1342 1568 1539 1266 1641 1360 1666 1454 1369 1927 1983 1428 1633 1493 1649 2132 2539 2581 2322 1531
468 441 186 190 285 106 213 143 90 29 0 8 0 0 39 23 0 56 183 264 253 194 232 248 343 711 854 997 1015 1122 1260 1356 1420 1615 2241 1532 2137 1657 1821 2278 1538 1730 1846 1426 1020 2121 2316 2451 2197
459 104 0 4 137 191 229 177 124 22 4 0 0 0 116 16 0 17 172 207 236 205 283 248 267 525 833 874 1015 1096 1167 910 975 1327 1499 1222 1161 1208 1417 1567 1955 2111 1592 1310 889 1096 1692 1778 1979
607 455 129 354 274 305 377 259 140 93 15 9 0 12 82 3 0 18 134 98 310 262 330 302 314 464 804 812 1025 1075 1112 1059 991 1195 1125 1074 1233 1109 1241 1128 1383 1793 1720 1369 1456 1064 1693 1741 1725
712 423 440 492 141 100 284 285 281 220 106 20 33 60 81 53 9 35 117 124 216 302 413 431 441 507 605 813 960 959 1000 1260 1215 1214 1318 1281 1014 1056 1273 1041 1112 1529 1724 1786 1753 1979 1891 1961 1590
497 530 396 418 447 194 158 81 176 199 186 142 52 81 66 75 17 35 47 56 150 315 386 572 673 701 622 773 905 968 928 978 1240 1283 1446 1496 1173 1067 938 1007 1025 1185 1255 1259 1515 1761 1751 1886 1616
291 446 435 423 171 410 352 40 382 143 139 244 227 141 86 82 16 39 46 40 124 252 370 507 686 717 741 752 1038 1037 1054 1110 1162 1354 1327 1137 1183 967 990 877 765 752 974 880 1258 1420 1255 1588 1631

GFSSGP_con_sbcape_120.txt.gz
CAPE
0 279 195 1328 780 117 68 45 62 36 38 34 15 29 90 394 188 224 85 146 70 135 261 442 799 1238 1676 1710 1830 1881 1472 1696 2061 1895 1892 1671 1549 1784 1783 1991 1920 1767 1889 1739 1819 1970 2052 1869 1901
65 164 353 430 284 109 144 92 67 68 47 116 122 84 192 345 173 123 134 159 110 168 284 453 1075 1151 1702 1979 2008 1939 2002 2034 2056 1931 1946 1718 1660 1721 1958 1861 1766 1487 1481 1691 1661 1902 2040 2157 2205
5 68 207 246 141 129 131 135 57 62 58 424 481 381 215 229 97 169 147 178 282 409 570 1093 1306 1414 1904 1956 1943 1956 1695 2037 1922 1605 1669 1118 1038 1063 1938 1797 1803 1461 1175 1415 1557 1735 1859 2097 1989
13 787 265 275 118 282 137 189 117 39 58 352 356 179 168 109 196 313 225 246 620 870 823 1152 1802 1690 1993 1995 1795 1874 2118 2072 1930 1525 1715 2030 1984 2065 1899 1826 1780 1899 1967 2001 1895 2350 1900 1804 1634
57 620 286 262 180 230 214 227 250 270 324 298 5 4 298 570 354 312 345 460 712 698 811 844 1838 1885 2061 1860 1890 1958 2072 2078 2133 2046 1858 1891 1777 1774 1843 1620 1772 1875 1731 1766 1959 1963 1651 1270 1344
719 370 266 127 226 247 324 374 418 420 390 150 0 29 532 585 306 331 346 484 457 495 505 1090 1797 1874 1974 1895 1763 1958 1998 1834 1859 1955 1698 1849 1880 1806 1799 1374 1786 1806 1656 1685 2005 2202 2165 1445 948
621 414 289 171 235 208 352 380 333 341 271 112 113 220 419 433 326 339 393 427 305 755 837 1054 1363 1920 2053 1892 2000 2116 1903 1710 2030 1944 1636 1805 1846 1694 1220 1268 1617 1624 1549 1740 1809 2043 2022 1696 1399
694 405 179 147 193 235 290 335 226 202 321 220 52 27 416 547 321 344 417 334 691 647 985 1122 1095 1250 1462 1669 1947 2166 2155 2017 2109 2000 1904 1911 1581 1248 1167 1738 1420 1367 1336 1515 1541 1714 2086 1827 1643
591 539 219 134 133 282 290 256 260 201 93 46 184 8 184 350 334 491 348 603 813 637 852 1020 1165 1537 1846 1728 1853 1801 2073 1904 1976 1691 1755 1628 666 801 1286 1695 1098 1152 1103 1166 1197 1489 1524 1662 1656
739 541 465 354 185 192 196 208 268 83 92 227 205 162 237 251 439 440 274 493 550 439 405 893 1057 1122 1545 1516 1925 1911 1559 1489 1411 1339 1186 823 987 1541 1028 1275 1332 1447 1607 1580 1754 1631 1148 897 851
289 464 425 165 121 179 289 240 275 72 145 210 185 267 209 227 446 393 276 350 383 359 488 924 1095 1360 1464 1590 1557 1755 1326 1475 1636 1585 1006 1221 1028 1024 786 863 691 756 677 738 739 1061 1130 1330 955
417 125 45 271 135 75 84 367 279 104 197 112 58 180 272 441 485 279 263 254 354 431 570 897 1039 1587 1711 1568 1343 1197 1315 1233 1048 1496 1680 1586 928 972 565 349 734 924 758 1063 1258 1138 1606 1308 921
333 250 116 113 43 35 100 402 388 166 112 34 91 247 312 307 352 185 169 161 320 415 613 777 1094 1739 1915 1663 1242 1113 1066 1081 1301 1578 1875 1444 1042 861 762 1115 1021 1238 1304 1371 1493 1334 1434 1141 718
512 676 784 457 401 93 60 321 446 190 48 92 192 245 311 295 281 288 110 153 235 345 614 715 1035 1643 1735 1504 1361 1140 882 1113 1257 1465 1707 2003 1074 1285 1086 1439 1271 1463 1622 1470 1436 1499 1338 749 777
773 832 789 647 370 201 258 358 325 199 172 182 171 208 220 346 330 335 147 108 151 321 554 732 1036 1412 1641 1607 2179 1342 1130 1051 1293 1542 2066 1802 1536 1781 1975 1377 1467 1373 1705 2529 2007 1685 1289 740 652
642 403 380 627 521 447 367 181 272 309 290 169 110 139 234 404 462 412 325 38 95 253 507 640 585 1105 1670 1728 1904 1362 1201 1268 1476 1679 1781 2091 1942 2013 2085 1449 1456 1839 2380 1842 1366 1063 776 874 762
32 65 209 597 587 374 243 245 194 258 417 333 158 166 187 434 566 580 416 209 98 263 500 564 509 1027 1481 1888 1617 1614 1756 1411 1625 1588 1653 2217 1892 1960 1871 1331 1821 2787 2394 2428 1914 1511 1127 900 716
21 30 61 203 644 492 206 320 79 211 520 528 371 152 99 307 476 608 510 337 183 279 529 574 855 1122 1458 1723 1825 1523 1421 1359 1435 1518 1576 1799 1818 2096 2448 1589 2087 2699 2205 2231 2286 2196 1891 1440 1157
0 0 5 488 452 480 451 324 163 93 152 597 422 141 123 158 337 538 557 401 329 424 638 997 1109 1447 1477 1528 1380 1292 1229 1499 1423 1288 2034 1989 2299 2526 2671 1517 1789 2326 2314 2837 2660 2442 2613 1876 2095
0 0 21 392 348 291 239 233 56 272 70 313 535 200 169 132 284 474 588 528 355 399 674 1009 1183 1492 1810 1687 1719 1245 1124 1316 1237 1339 1732 1780 2245 2276 2288 2323 1661 2539 1900 3014 2858 2815 1742 1675 2094
0 0 10 74 329 228 167 222 171 127 137 141 327 372 103 150 181 413 568 608 434 462 546 875 1279 1422 1528 1391 1488 1543 2056 1556 1628 1742 1648 1720 1952 2082 2461 2297 1827 2309 2086 1816 3008 2822 2721 1514 2176
0 0 0 280 165 155 178 58 294 223 339 174 75 255 49 39 155 248 440 605 528 519 609 691 1139 1471 1483 1473 1821 1779 1196 907 1808 1688 1476 1627 1714 1792 2092 2036 2090 2335 1559 2112 2172 2308 3072 3148 1684
0 0 0 242 201 162 192 156 66 210 345 243 166 267 57 51 76 187 327 520 534 544 628 716 1167 1682 1564 1888 1661 1012 940 850 1035 1075 1497 1603 2086 1929 1521 2224 2262 2030 1368 1851 2643 2572 3060 2195 1911
0 0 179 345 190 105 82 211 128 389 179 120 59 123 169 257 106 182 297 439 552 567 609 674 1108 1601 1265 1837 1357 1344 961 950 1036 1114 1160 1408 1152 1365 1995 1970 2322 2015 1803 1736 2092 2653 2564 2816 2402
0 10 76 90 124 44 308 178 199 188 196 115 68 134 257 324 214 165 329 358 548 602 620 686 980 1352 1302 1638 1426 1015 919 1036 987 1012 829 1158 1036 1152 1551 1955 2090 1714 2218 1913 1775 2566 2530 2425 2320
8 17 40 68 68 125 415 196 271 301 190 132 202 184 297 259 301 184 262 408 536 661 668 699 814 1107 1210 1293 1048 1416 1295 1515 949 879 1102 797 937 934 1021 1349 1477 1547 1872 1809 1913 1436 1593 1523 1939
65 135 30 73 93 129 143 338 380 313 198 152 109 26 17 51 182 311 239 482 626 732 745 789 827 959 937 977 1250 1489 1935 1672 1091 1252 1649 1279 2433 2043 1700 1685 1524 1323 1456 1460 1616 1269 1388 1784 2004
350 320 170 80 142 200 155 286 236 241 308 224 175 65 22 33 149 347 278 528 710 753 787 865 844 835 834 819 1071 1227 1310 1596 1544 1560 1883 1316 1399 1698 1592 1789 1736 1707 1766 1861 2157 1417 1647 1751 1455
264 396 347 260 376 222 283 292 256 277 363 384 252 179 89 200 146 304 342 589 702 755 756 987 906 788 838 868 1019 1088 1099 1172 1436 1378 1653 1855 2179 1889 1869 2035 1917 1824 1804 1859 2179 1977 1486 1765 1650
7 173 220 329 241 441 304 141 466 476 444 423 359 195 132 239 186 103 409 662 715 753 761 1077 1055 963 998 917 1154 1331 1325 1329 1117 1435 1449 1817 2054 1982 2032 1951 1811 1568 1687 1731 1910 1908 1280 1508 1502

GFSSGP_con_sbcape_123.txt.gz
CAPE
0 314 638 1263 1920 564 88 102 90 74 121 156 103 66 130 253 293 257 155 404 101 175 475 882 1463 998 776 773 957 1433 1627 1663 1593 1716 1711 1754 1919 1890 1979 1985 1895 1907 1830 2037 1896 1967 1917 1837 1934
38 554 662 898 911 72 114 109 94 157 188 284 255 274 82 148 171 219 176 86 132 146 369 614 1661 1487 974 1073 1090 1847 1701 1669 1775 1821 1658 1721 1795 1987 1985 1405 1535 1746 1760 1789 2048 2031 2096 1967 1919
200 241 1029 761 282 154 98 125 145 142 349 415 376 361 256 175 185 287 170 113 273 268 522 1242 1692 2009 1631 1731 1529 1847 1759 1749 1798 1755 952 1143 1910 2067 1634 1267 1295 1528 1868 1684 1806 1971 1973 1943 1992
144 803 680 475 201 148 98 144 184 203 307 386 245 184 148 161 239 244 173 141 289 743 880 1523 1884 2154 1928 1835 1827 1782 1840 1612 1714 1992 2102 1925 1952 2177 2027 1737 1887 1824 1576 2087 2075 1844 1820 1501 1585
146 803 622 334 195 134 148 206 221 222 362 286 110 309 203 354 248 234 372 542 592 708 873 1093 1915 2209 1979 1793 1913 1874 1963 2088 2138 2081 1984 1729 2049 1711 1768 1889 1840 1807 1874 2171 1755 1267 1019 1358 1501
459 707 426 224 154 195 265 289 270 295 324 155 182 337 498 289 225 299 372 553 488 434 807 885 1792 2018 1882 1953 1711 1813 1832 1699 1932 1840 1909 1778 1894 1998 1509 1919 1845 1658 2047 2194 2278 1751 1182 887 1166
410 333 147 145 181 265 347 233 375 204 167 132 132 288 390 231 260 262 304 336 339 422 578 682 981 1779 1934 1912 1835 1837 1651 1993 1729 1917 1981 1993 1988 1507 1378 1877 1770 1818 1935 2019 1973 2011 1699 1357 799
768 584 206 141 121 188 313 320 217 151 208 56 240 267 279 276 199 226 281 307 617 641 780 962 586 951 1171 1322 1831 1833 1900 2042 2034 1848 1868 1825 1367 1159 1344 1575 1701 1596 1726 1682 1888 2036 1796 1666 1325
644 876 300 282 150 312 279 333 376 88 68 47 74 144 295 142 155 219 285 403 446 659 820 872 836 1582 2353 1372 1586 1997 1919 2091 1853 1618 1793 1748 548 895 1347 1621 1347 1240 1251 1265 1385 1537 1819 1939 1744
843 626 463 652 189 114 232 257 316 129 103 84 139 358 164 134 178 246 236 421 360 416 720 395 996 946 1210 1034 1747 1756 1656 1801 1391 805 1019 669 1389 808 875 1702 1841 1549 1708 1723 1629 1419 1340 1707 1938
527 519 622 224 153 235 363 284 343 155 110 138 126 185 107 146 260 96 225 335 398 232 832 695 813 1622 1402 1433 1589 1558 993 802 969 940 868 690 519 856 337 802 942 713 1180 971 1361 1455 1568 897 851
607 447 347 301 164 7 6 101 269 144 201 137 68 94 111 234 289 153 186 254 236 297 620 709 966 1583 1748 1329 1038 1517 1233 764 737 933 1033 1134 623 798 565 666 885 942 471 836 1239 685 936 780 678
514 436 133 518 156 0 1 54 435 243 204 48 59 136 194 273 259 186 190 240 178 334 679 628 1506 2312 2468 1369 1710 1527 1015 962 826 1173 1166 867 697 932 899 992 905 1886 467 676 692 971 1142 836 898
412 530 740 493 172 208 0 148 790 222 119 68 57 151 207 195 168 165 103 182 206 433 652 764 1302 2288 1385 2021 1967 1207 1182 1375 1434 1369 1385 1650 1131 1286 1136 1279 1027 846 876 715 770 1419 1278 682 594
476 552 947 718 738 556 97 312 600 322 136 206 94 146 163 162 165 106 134 137 255 500 652 755 1183 1442 1610 1371 1277 1113 754 728 947 1655 1822 1507 1401 1913 1417 1100 1903 815 1506 1586 1112 1424 1137 564 344
207 443 498 802 632 428 334 324 583 360 294 273 117 129 137 146 115 162 16 71 255 520 710 824 941 1158 1596 1853 1830 1120 1499 1013 1831 1570 1530 1673 1850 1861 2459 1304 1352 1408 1712 1066 784 1065 889 635 413
56 56 154 718 832 673 496 102 223 440 341 184 115 90 107 219 209 244 73 15 132 515 673 842 1031 1720 2064 1902 1801 1955 1234 1624 1566 1873 1489 1783 1715 1894 2266 1804 1729 2625 1238 1261 1542 872 784 701 455
32 16 23 248 990 873 489 403 685 208 392 255 123 195 92 258 327 254 163 34 66 461 604 757 836 1804 1939 1458 2543 2128 1403 1470 1478 1525 2365 1799 1610 1868 2686 1660 1912 3285 1219 2409 3319 4087 1356 1334 649
0 36 24 285 718 735 560 451 734 229 109 309 316 298 84 127 243 243 216 148 101 252 511 707 980 1592 1828 1386 1172 1662 1300 1936 1718 1943 1865 1855 1732 2104 2660 1681 2160 2534 2716 2393 2012 2193 2577 2020 1165
0 1 24 256 541 551 300 389 466 663 157 102 169 422 102 95 155 343 250 142 136 264 557 780 1141 1708 2041 1417 2817 2327 2046 2075 1427 2167 1703 1719 1861 2140 2048 2883 1675 2810 1869 2919 2475 2760 2592 1189 1345
0 6 27 53 445 419 257 195 357 404 707 206 241 396 235 97 108 288 259 265 252 336 598 990 1276 1766 1842 2216 1495 2146 2677 2355 1218 1550 1500 1653 1874 2043 2162 2180 2447 2298 2986 2597 2468 2979 2715 1156 1303
0 0 0 4 92 78 332 43 362 492 427 584 256 552 462 135 125 144 269 373 249 498 473 912 1293 1695 1754 1966 2080 1789 1392 1276 1133 1450 1797 1573 1663 1805 1818 1956 2126 2491 2527 3009 1933 1714 3402 3359 2436
0 0 0 1 44 90 106 194 27 302 619 456 311 278 585 190 160 208 177 363 370 523 654 602 1542 2270 1971 2217 2463 1569 1755 1628 1908 1963 2254 1763 1799 1834 1366 1928 2051 2224 1725 2003 2729 2509 2496 2762 1656
0 0 0 18 84 92 37 76 81 252 542 559 384 420 293 191 153 161 285 393 574 475 786 713 1538 2397 1984 1705 1470 2296 2502 1729 1435 1423 1839 1580 1296 1524 1611 1672 2110 2207 2007 2026 2150 2416 2549 2840 2983
0 0 17 60 65 29 71 90 60 30 388 217 404 500 322 508 146 97 220 320 744 652 803 745 1142 1783 1461 1852 1461 1538 1700 1537 1544 1793 1220 962 1519 1184 2884 2343 2185 2028 2345 2252 2071 2347 2710 2409 2320
0 0 31 49 80 234 105 99 169 70 172 96 152 336 414 356 166 116 247 343 1116 923 771 871 1057 1519 1348 1530 1555 2123 1443 1275 1116 1631 1072 935 982 870 1953 1956 1733 1808 2003 1957 2054 1736 1568 2453 1434
12 7 4 45 43 53 212 172 168 30 39 161 160 252 98 213 277 232 219 244 867 871 867 1081 1171 1308 1176 1320 1537 1795 1619 1345 979 2341 1596 1425 1482 1115 1607 1605 1857 1817 1702 1727 2017 1687 1600 1548 1968
3 96 41 31 49 89 104 97 291 122 1 54 220 299 341 302 567 416 221 258 452 673 1054 973 1143 1270 1139 973 1121 1246 1278 1488 1425 2530 1908 1334 2473 1947 1741 1946 1724 1876 1782 1861 2575 2112 2552 1786 1571
48 23 20 63 130 83 191 374 35 66 99 439 267 227 179 107 137 305 137 334 562 812 926 1182 1196 1274 1164 1008 1739 1715 1427 1389 1490 1533 1872 2009 2138 1916 1921 2130 2184 2051 1893 1898 2584 2240 2615 2283 1875
80 55 96 114 191 21 52 179 143 266 12 515 357 203 309 249 231 417 446 368 644 1038 1013 1160 1395 1188 1120 1410 2235 1911 1593 1416 1238 1451 1228 2154 2407 2445 2655 2215 2212 2068 2045 2315 2259 2107 1718 1820 1476